[[{"header":{"parameterUnit":"m.s-1","parameterCategory":1,"la1":31.0,"la2":29.5877,"lo1":-88.7671,"lo2":-86.6584,"dy":0.0162,"dx":0.0185,"nx":115,"ny":88,"refTime":"2023-11-10T06:00:00:Z","depth":0,"parameterNumber":2,"parameterNumberName":"U-component_of_WINDS"},"data":[0.0,0.0,0.0,0.0,0.0,0.0,0.0,0.0,0.0,0.0,0.0,0.0,0.0,0.0,0.0,0.0,0.0,0.0,0.0,0.0,0.0,0.0,0.0,0.0,0.0,0.0,0.0,0.0,0.0,0.0,0.0,0.0,0.0,0.0,0.0,0.0,0.0,0.0,0.0,0.0,0.0,0.0,0.0,0.0,0.0,0.0,0.0,0.0,0.0,0.0,0.0,0.0,0.0,0.0,0.0,0.0,0.0,0.0,0.0,0.0,0.0,0.0,0.0,0.0,0.0,0.0,0.0,0.0,0.0,0.0,0.0,0.0,0.0,0.0,0.0,0.0,0.0,0.0,0.0,0.0,0.0,0.0,0.0,0.0,0.0,0.0,0.0,0.0,0.0,0.0,0.0,0.0,0.0,0.0,0.0,0.0,0.0,0.0,0.0,0.0,0.0,0.0,0.0,0.0,0.0,0.0,0.0,0.0,0.0,0.0,0.0,0.0,0.0,0.0,0.0,0.0,0.0,0.0,0.0,0.0,0.0,0.0,0.0,0.0,0.0,0.0,0.0,0.0,0.0,0.0,0.0,0.0,0.0,0.0,0.0,0.0,0.0,0.0,0.0,0.0,0.0,0.0,0.0,0.0,0.0,0.0,0.0,0.0,0.0,0.0,0.0,0.0,0.0,0.0,0.0,0.0,0.0,0.0,0.0,0.0,0.0,0.0,0.0,0.0,0.0,0.0,0.0,0.0,0.0,0.0,0.0,0.0,0.0,0.0,0.0,0.0,0.0,0.0,0.0,0.0,0.0,0.0,0.0,0.0,0.0,0.0,0.0,0.0,0.0,0.0,0.0,0.0,0.0,0.0,0.0,0.0,0.0,0.0,0.0,0.0,0.0,0.0,0.0,0.0,0.0,0.0,0.0,0.0,0.0,0.0,0.0,0.0,0.0,0.0,0.0,0.0,0.0,0.0,0.0,0.0,0.0,0.0,0.0,0.0,0.0,0.0,0.0,0.0,0.0,0.0,0.0,0.0,0.0,0.0,0.0,0.0,0.0,0.0,0.0,0.0,0.0,0.0,0.0,0.0,0.0,0.0,0.0,0.0,0.0,0.0,0.0,0.0,0.0,0.0,0.0,0.0,0.0,0.0,0.0,0.0,0.0,0.0,0.0,0.0,0.0,0.0,0.0,0.0,0.0,0.0,0.0,0.0,0.0,0.0,0.0,0.0,0.0,0.0,0.0,0.0,0.0,0.0,0.0,0.0,0.0,0.0,0.0,0.0,0.0,0.0,0.0,0.0,0.0,0.0,0.0,0.0,0.0,0.0,0.0,0.0,0.0,0.0,0.0,0.0,0.0,0.0,0.0,0.0,0.0,0.0,0.0,0.0,0.0,0.0,0.0,0.0,0.0,0.0,0.0,0.0,0.0,0.0,0.0,0.0,0.0,0.0,0.0,0.0,0.0,0.0,0.0,0.0,0.0,0.0,0.0,0.0,0.0,0.0,0.0,0.0,0.0,0.0,0.0,0.0,0.0,0.0,0.0,0.0,0.0,0.0,0.0,0.0,0.0,0.0,0.0,0.0,0.0,0.0,0.0,0.0,0.0,0.0,0.0,0.0,0.0,0.0,0.0,0.0,0.0,0.0,0.0,0.0,0.0,0.0,0.0,0.0,0.0,0.0,0.0,0.0,0.0,0.0,0.0,0.0,0.0,0.0,0.0,0.0,0.0,0.0,0.0,0.0,0.0,0.0,0.0,0.0,0.0,0.0,0.0,0.0,0.0,0.0,0.0,0.0,0.0,0.0,0.0,0.0,0.0,0.0,0.0,0.0,0.0,0.0,0.0,0.0,0.0,0.0,0.0,0.0,0.0,0.0,0.0,0.0,0.0,0.0,0.0,0.0,0.0,0.0,0.0,0.0,0.0,0.0,0.0,0.0,0.0,0.0,0.0,0.0,0.0,0.0,0.0,0.0,0.0,0.0,0.0,0.0,0.0,0.0,0.0,0.0,0.0,0.0,0.0,0.0,0.0,0.0,0.0,0.0,0.0,0.0,0.0,0.0,0.0,0.0,0.0,0.0,0.0,0.0,0.0,0.0,0.0,0.0,0.0,0.0,0.0,0.0,0.0,0.0,0.0,0.0,0.0,0.0,0.0,0.0,0.0,0.0,0.0,0.0,0.0,0.0,0.0,0.0,0.0,0.0,0.0,0.0,0.0,0.0,0.0,0.0,0.0,0.0,0.0,0.0,0.0,0.0,0.0,0.0,0.0,0.0,0.0,0.0,0.0,0.0,0.0,0.0,0.0,0.0,0.0,0.0,0.0,0.0,0.0,0.0,0.0,0.0,0.0,0.0,0.0,0.0,0.0,0.0,0.0,0.0,0.0,0.0,0.0,0.0,0.0,0.0,0.0,0.0,0.0,0.0,0.0,0.0,0.0,0.0,0.0,0.0,0.0,0.0,0.0,0.0,0.0,0.0,0.0,0.0,0.0,0.0,0.0,0.0,0.0,0.0,0.0,0.0,0.0,0.0,0.0,0.0,0.0,0.0,0.0,0.0,0.0,0.0,0.0,0.0,0.0,0.0,0.0,0.0,0.0,0.0,0.0,0.0,0.0,0.0,0.0,0.0,0.0,0.0,0.0,0.0,0.0,0.0,0.0,0.0,0.0,0.0,0.0,0.0,0.0,0.0,0.0,0.0,0.0,0.0,0.0,0.0,0.0,0.0,0.0,0.0,0.0,0.0,0.0,0.0,0.0,0.0,0.0,0.0,0.0,0.0,0.0,0.0,0.0,0.0,0.0,0.0,0.0,0.0,0.0,0.0,0.0,0.0,0.0,0.0,0.0,0.0,0.0,0.0,0.0,0.0,0.0,0.0,0.0,0.0,0.0,0.0,0.0,0.0,0.0,0.0,0.0,0.0,0.0,0.0,0.0,0.0,0.0,0.0,0.0,0.0,0.0,0.0,0.0,0.0,0.0,0.0,0.0,0.0,0.0,0.0,0.0,0.0,0.0,0.0,0.0,0.0,0.0,0.0,0.0,0.0,0.0,0.0,0.0,0.0,0.0,0.0,0.0,0.0,0.0,0.0,0.0,0.0,0.0,0.0,0.0,0.0,0.0,0.0,0.0,0.0,0.0,0.0,0.0,0.0,0.0,0.0,0.0,0.0,0.0,0.0,0.0,0.0,0.0,0.0,0.0,0.0,0.0,0.0,0.0,0.0,0.0,0.0,0.0,0.0,0.0,0.0,0.0,0.0,0.0,0.0,0.0,0.0,0.0,0.0,0.0,0.0,0.0,0.0,0.0,0.0,0.0,0.0,0.0,0.0,0.0,0.0,0.0,0.0,0.0,0.0,0.0,0.0,0.0,0.0,0.0,0.0,0.0,0.0,0.0,0.0,0.0,0.0,0.0,0.0,0.0,0.0,0.0,0.0,0.0,0.0,0.0,0.0,0.0,0.0,0.0,0.0,0.0,0.0,0.0,0.0,0.0,0.0,0.0,0.0,0.0,0.0,0.0,0.0,0.0,0.0,0.0,0.0,0.0,0.0,0.0,0.0,0.0,0.0,0.0,0.0,0.0,0.0,0.0,0.0,0.0,0.0,0.0,0.0,0.0,0.0,0.0,0.0,0.0,0.0,0.0,0.0,0.0,0.0,0.0,0.0,0.0,0.0,0.0,0.0,0.0,0.0,0.0,0.0,0.0,0.0,0.0,0.0,0.0,0.0,0.0,0.0,0.0,0.0,0.0,0.0,0.0,0.0,0.0,0.0,0.0,0.0,0.0,0.0,0.0,0.0,0.0,0.0,0.0,0.0,0.0,0.0,0.0,0.0,0.0,0.0,0.0,0.0,0.0,0.0,0.0,0.0,0.0,0.0,0.0,0.0,0.0,0.0,0.0,0.0,0.0,0.0,0.0,0.0,0.0,0.0,0.0,0.0,0.0,0.0,0.0,0.0,0.0,0.0,0.0,0.0,0.0,0.0,0.0,0.0,0.0,0.0,0.0,0.0,0.0,0.0,0.0,0.0,0.0,0.0,0.0,0.0,0.0,0.0,0.0,0.0,0.0,0.0,0.0,0.0,0.0,0.0,0.0,0.0,0.0,0.0,0.0,0.0,0.0,0.0,0.0,0.0,0.0,0.0,0.0,0.0,0.0,0.0,0.0,0.0,0.0,0.0,0.0,0.0,0.0,0.0,0.0,0.0,0.0,0.0,0.0,0.0,0.0,0.0,0.0,0.0,0.0,0.0,0.0,0.0,0.0,0.0,0.0,0.0,0.0,0.0,3.5303,0.0,0.0,0.0,0.0,0.0,0.0,0.0,0.0,0.0,0.0,0.0,0.0,0.0,0.0,0.0,0.0,0.0,0.0,0.0,0.0,0.0,0.0,0.0,0.0,0.0,0.0,0.0,0.0,0.0,0.0,0.0,0.0,0.0,0.0,0.0,0.0,0.0,0.0,0.0,0.0,0.0,0.0,0.0,0.0,0.0,0.0,0.0,0.0,0.0,0.0,0.0,0.0,0.0,0.0,0.0,0.0,0.0,0.0,0.0,0.0,0.0,0.0,0.0,0.0,0.0,0.0,0.0,0.0,0.0,0.0,0.0,0.0,0.0,0.0,0.0,0.0,0.0,0.0,0.0,0.0,0.0,0.0,0.0,0.0,0.0,0.0,0.0,0.0,0.0,0.0,0.0,0.0,0.0,0.0,0.0,0.0,0.0,0.0,0.0,0.0,0.0,0.0,0.0,0.0,0.0,0.0,0.0,0.0,0.0,0.0,3.5611,3.56,3.5543,3.5475,3.5291,0.0,0.0,0.0,0.0,0.0,0.0,0.0,0.0,0.0,0.0,0.0,0.0,0.0,0.0,0.0,0.0,0.0,0.0,0.0,0.0,0.0,0.0,0.0,0.0,0.0,0.0,0.0,0.0,0.0,0.0,0.0,0.0,0.0,0.0,0.0,0.0,0.0,0.0,0.0,0.0,0.0,0.0,0.0,0.0,0.0,0.0,0.0,0.0,0.0,0.0,0.0,0.0,0.0,0.0,0.0,0.0,0.0,0.0,0.0,0.0,0.0,0.0,0.0,0.0,0.0,0.0,0.0,0.0,0.0,0.0,0.0,0.0,0.0,0.0,0.0,0.0,0.0,0.0,0.0,0.0,0.0,0.0,0.0,0.0,0.0,0.0,0.0,0.0,0.0,0.0,0.0,0.0,0.0,0.0,0.0,0.0,0.0,0.0,0.0,0.0,0.0,0.0,0.0,0.0,0.0,0.0,0.0,0.0,0.0,0.0,0.0,0.0,3.5779,3.5551,3.513,0.0,0.0,0.0,0.0,0.0,0.0,0.0,0.0,0.0,0.0,0.0,0.0,0.0,0.0,0.0,0.0,0.0,0.0,0.0,0.0,0.0,0.0,0.0,0.0,0.0,0.0,0.0,0.0,0.0,0.0,0.0,0.0,0.0,0.0,0.0,0.0,0.0,0.0,0.0,0.0,0.0,0.0,0.0,0.0,0.0,0.0,0.0,0.0,0.0,0.0,0.0,0.0,0.0,0.0,0.0,0.0,0.0,0.0,0.0,0.0,0.0,0.0,0.0,0.0,0.0,0.0,0.0,0.0,0.0,0.0,0.0,0.0,0.0,0.0,0.0,0.0,0.0,0.0,0.0,0.0,0.0,0.0,0.0,0.0,0.0,0.0,0.0,0.0,0.0,0.0,0.0,0.0,0.0,0.0,0.0,0.0,0.0,0.0,0.0,0.0,0.0,0.0,0.0,0.0,0.0,0.0,0.0,0.0,0.0,0.0,3.6682,3.6682,3.6566,0.0,3.4763,0.0,0.0,0.0,0.0,0.0,0.0,0.0,0.0,0.0,0.0,0.0,0.0,0.0,0.0,0.0,0.0,0.0,0.0,0.0,0.0,0.0,0.0,0.0,0.0,0.0,0.0,0.0,0.0,0.0,0.0,0.0,0.0,0.0,0.0,0.0,0.0,0.0,0.0,0.0,0.0,0.0,0.0,0.0,0.0,0.0,0.0,0.0,0.0,0.0,0.0,0.0,0.0,0.0,0.0,0.0,0.0,0.0,0.0,0.0,0.0,0.0,0.0,0.0,0.0,0.0,0.0,0.0,0.0,0.0,0.0,0.0,0.0,0.0,0.0,0.0,0.0,0.0,0.0,0.0,0.0,0.0,0.0,0.0,0.0,0.0,0.0,0.0,0.0,0.0,0.0,0.0,0.0,0.0,0.0,0.0,0.0,0.0,0.0,0.0,0.0,0.0,0.0,0.0,0.0,0.0,0.0,0.0,0.0,0.0,0.0,3.7021,3.7449,3.6833,3.5897,0.0,0.0,0.0,0.0,0.0,0.0,0.0,0.0,0.0,0.0,0.0,0.0,0.0,0.0,0.0,0.0,0.0,0.0,0.0,0.0,0.0,0.0,0.0,0.0,0.0,0.0,0.0,0.0,0.0,0.0,0.0,0.0,0.0,0.0,0.0,0.0,0.0,0.0,0.0,0.0,0.0,0.0,0.0,0.0,0.0,0.0,0.0,0.0,0.0,0.0,0.0,0.0,0.0,0.0,0.0,0.0,0.0,0.0,0.0,0.0,0.0,0.0,0.0,0.0,0.0,0.0,0.0,0.0,0.0,0.0,0.0,0.0,0.0,0.0,0.0,0.0,0.0,0.0,0.0,0.0,0.0,0.0,0.0,0.0,0.0,0.0,0.0,0.0,0.0,0.0,0.0,0.0,0.0,0.0,0.0,0.0,0.0,0.0,0.0,0.0,0.0,0.0,0.0,0.0,0.0,0.0,0.0,0.0,0.0,0.0,3.7202,3.7527,3.7747,3.7074,3.6013,3.4554,0.0,0.0,0.0,0.0,0.0,0.0,0.0,0.0,0.0,0.0,0.0,0.0,0.0,0.0,0.0,0.0,0.0,0.0,0.0,0.0,0.0,0.0,0.0,0.0,0.0,0.0,0.0,0.0,0.0,0.0,0.0,0.0,0.0,0.0,0.0,0.0,0.0,0.0,0.0,0.0,0.0,0.0,0.0,0.0,0.0,0.0,0.0,0.0,0.0,0.0,0.0,0.0,0.0,0.0,0.0,0.0,0.0,0.0,0.0,0.0,0.0,0.0,0.0,0.0,0.0,0.0,0.0,0.0,0.0,0.0,0.0,0.0,0.0,0.0,0.0,0.0,0.0,0.0,0.0,0.0,0.0,0.0,0.0,0.0,0.0,0.0,0.0,0.0,0.0,0.0,0.0,0.0,0.0,0.0,0.0,0.0,0.0,0.0,0.0,0.0,0.0,0.0,0.0,0.0,0.0,0.0,0.0,0.0,3.684,3.8171,3.8468,3.7584,3.7492,3.6533,0.0,0.0,0.0,0.0,0.0,0.0,0.0,0.0,0.0,0.0,0.0,0.0,0.0,0.0,0.0,0.0,0.0,0.0,0.0,0.0,0.0,0.0,0.0,0.0,0.0,0.0,0.0,0.0,0.0,0.0,0.0,0.0,0.0,0.0,0.0,0.0,0.0,0.0,0.0,0.0,0.0,0.0,0.0,0.0,0.0,0.0,0.0,0.0,0.0,0.0,0.0,0.0,0.0,0.0,0.0,0.0,0.0,0.0,0.0,0.0,0.0,0.0,0.0,0.0,0.0,0.0,0.0,0.0,0.0,0.0,0.0,0.0,0.0,0.0,0.0,0.0,0.0,0.0,0.0,0.0,0.0,0.0,0.0,0.0,0.0,0.0,0.0,0.0,0.0,0.0,0.0,0.0,0.0,0.0,0.0,0.0,0.0,0.0,0.0,0.0,0.0,0.0,0.0,0.0,0.0,0.0,0.0,0.0,0.0,3.7505,3.8949,3.8995,3.7605,3.7406,3.6423,0.0,0.0,0.0,0.0,0.0,0.0,0.0,0.0,0.0,0.0,0.0,0.0,0.0,0.0,0.0,0.0,0.0,0.0,0.0,0.0,0.0,0.0,0.0,0.0,0.0,0.0,0.0,0.0,0.0,0.0,0.0,0.0,0.0,0.0,0.0,0.0,0.0,0.0,0.0,0.0,0.0,0.0,0.0,0.0,0.0,0.0,0.0,0.0,0.0,0.0,0.0,0.0,0.0,0.0,0.0,0.0,0.0,0.0,0.0,0.0,0.0,0.0,0.0,0.0,0.0,0.0,0.0,0.0,0.0,0.0,0.0,0.0,0.0,0.0,0.0,0.0,0.0,0.0,0.0,0.0,0.0,0.0,0.0,0.0,0.0,0.0,0.0,0.0,0.0,0.0,0.0,0.0,0.0,0.0,0.0,0.0,0.0,0.0,0.0,0.0,0.0,0.0,0.0,0.0,0.0,0.0,0.0,0.0,0.0,3.8587,0.0,3.9277,3.7593,3.7357,3.6348,0.0,0.0,0.0,0.0,0.0,0.0,0.0,0.0,0.0,0.0,0.0,0.0,0.0,0.0,0.0,0.0,0.0,0.0,0.0,0.0,0.0,0.0,0.0,0.0,0.0,0.0,0.0,0.0,0.0,0.0,0.0,0.0,0.0,0.0,0.0,0.0,0.0,0.0,0.0,0.0,0.0,0.0,0.0,0.0,0.0,0.0,0.0,0.0,0.0,0.0,0.0,0.0,0.0,0.0,0.0,0.0,0.0,0.0,0.0,0.0,0.0,0.0,0.0,0.0,0.0,0.0,0.0,0.0,0.0,0.0,0.0,0.0,0.0,0.0,0.0,0.0,0.0,0.0,0.0,0.0,0.0,0.0,0.0,0.0,0.0,0.0,0.0,0.0,0.0,0.0,0.0,0.0,0.0,0.0,0.0,0.0,0.0,0.0,0.0,0.0,0.0,0.0,0.0,0.0,0.0,0.0,0.0,0.0,3.8366,3.9999,4.0079,3.9277,3.7593,3.739,3.6348,0.0,0.0,0.0,0.0,0.0,0.0,0.0,0.0,0.0,0.0,0.0,0.0,0.0,0.0,0.0,0.0,0.0,0.0,0.0,0.0,0.0,0.0,0.0,0.0,0.0,0.0,0.0,0.0,0.0,0.0,0.0,0.0,0.0,0.0,0.0,0.0,0.0,0.0,0.0,0.0,0.0,0.0,0.0,0.0,0.0,0.0,0.0,0.0,0.0,0.0,0.0,0.0,0.0,0.0,0.0,0.0,0.0,0.0,0.0,0.0,0.0,0.0,0.0,0.0,0.0,0.0,0.0,0.0,0.0,0.0,0.0,0.0,0.0,0.0,0.0,0.0,0.0,0.0,0.0,0.0,0.0,0.0,0.0,0.0,0.0,0.0,0.0,0.0,0.0,0.0,0.0,0.0,0.0,0.0,0.0,0.0,0.0,0.0,0.0,0.0,0.0,0.0,0.0,0.0,0.0,0.0,0.0,0.0,0.0,4.0079,4.0113,3.9501,3.8317,3.7549,3.6455,0.0,0.0,0.0,0.0,0.0,0.0,0.0,0.0,0.0,0.0,0.0,0.0,0.0,0.0,0.0,0.0,0.0,0.0,0.0,0.0,0.0,0.0,0.0,0.0,0.0,0.0,0.0,0.0,0.0,0.0,0.0,0.0,0.0,0.0,0.0,0.0,0.0,0.0,0.0,0.0,0.0,0.0,0.0,0.0,0.0,0.0,0.0,0.0,0.0,0.0,0.0,0.0,0.0,0.0,0.0,0.0,0.0,0.0,0.0,0.0,0.0,0.0,0.0,0.0,0.0,0.0,0.0,0.0,0.0,0.0,0.0,0.0,0.0,0.0,0.0,0.0,0.0,0.0,0.0,0.0,0.0,0.0,0.0,0.0,0.0,0.0,0.0,0.0,0.0,0.0,0.0,0.0,0.0,0.0,0.0,0.0,0.0,0.0,0.0,0.0,0.0,0.0,0.0,0.0,0.0,0.0,0.0,0.0,0.0,4.0506,4.0442,3.9977,3.9008,3.8245,3.6973,3.5163,0.0,0.0,0.0,0.0,0.0,0.0,0.0,0.0,0.0,0.0,0.0,0.0,0.0,0.0,0.0,0.0,0.0,0.0,0.0,0.0,0.0,0.0,0.0,0.0,0.0,0.0,0.0,0.0,0.0,0.0,0.0,0.0,0.0,0.0,0.0,0.0,0.0,0.0,0.0,0.0,0.0,0.0,0.0,0.0,0.0,0.0,0.0,0.0,0.0,0.0,0.0,0.0,0.0,0.0,0.0,0.0,0.0,0.0,0.0,0.0,0.0,0.0,0.0,0.0,0.0,0.0,0.0,0.0,0.0,0.0,0.0,0.0,0.0,0.0,0.0,0.0,0.0,0.0,0.0,0.0,0.0,0.0,0.0,0.0,0.0,0.0,0.0,0.0,0.0,0.0,0.0,0.0,0.0,0.0,0.0,0.0,0.0,0.0,0.0,0.0,0.0,0.0,0.0,0.0,0.0,0.0,0.0,0.0,4.1271,4.1182,4.068,3.9791,3.9295,3.7825,0.0,0.0,0.0,0.0,0.0,0.0,0.0,0.0,0.0,0.0,0.0,0.0,0.0,0.0,0.0,0.0,0.0,0.0,0.0,0.0,0.0,0.0,0.0,0.0,0.0,0.0,0.0,0.0,0.0,0.0,0.0,0.0,0.0,0.0,0.0,0.0,0.0,0.0,0.0,0.0,0.0,0.0,0.0,0.0,0.0,0.0,0.0,0.0,0.0,0.0,0.0,0.0,0.0,0.0,0.0,0.0,0.0,0.0,0.0,0.0,0.0,0.0,0.0,0.0,0.0,0.0,0.0,0.0,0.0,0.0,0.0,0.0,0.0,0.0,0.0,0.0,0.0,0.0,0.0,0.0,0.0,0.0,0.0,0.0,0.0,0.0,0.0,0.0,0.0,0.0,0.0,0.0,0.0,0.0,0.0,0.0,0.0,0.0,0.0,0.0,0.0,0.0,0.0,0.0,0.0,0.0,0.0,0.0,0.0,4.2016,4.2314,4.1787,4.0414,3.9385,3.7845,0.0,0.0,0.0,0.0,0.0,0.0,0.0,0.0,0.0,0.0,0.0,0.0,0.0,0.0,0.0,0.0,0.0,0.0,0.0,0.0,0.0,0.0,0.0,0.0,0.0,0.0,0.0,0.0,0.0,0.0,0.0,0.0,0.0,0.0,0.0,0.0,0.0,0.0,0.0,0.0,0.0,0.0,0.0,0.0,0.0,0.0,0.0,0.0,0.0,0.0,0.0,0.0,0.0,0.0,0.0,0.0,0.0,0.0,0.0,0.0,0.0,0.0,0.0,0.0,0.0,0.0,0.0,0.0,0.0,0.0,0.0,0.0,0.0,0.0,0.0,0.0,0.0,0.0,0.0,0.0,0.0,0.0,0.0,0.0,0.0,0.0,0.0,0.0,0.0,0.0,0.0,0.0,0.0,0.0,0.0,0.0,0.0,0.0,0.0,0.0,0.0,0.0,0.0,0.0,0.0,0.0,0.0,0.0,4.1854,4.224,4.3018,4.2736,4.1234,4.0184,3.8525,0.0,0.0,0.0,0.0,0.0,0.0,0.0,0.0,0.0,0.0,0.0,0.0,0.0,0.0,0.0,0.0,0.0,0.0,0.0,0.0,0.0,0.0,0.0,0.0,0.0,0.0,0.0,0.0,0.0,0.0,0.0,0.0,0.0,0.0,0.0,0.0,0.0,0.0,0.0,0.0,0.0,0.0,0.0,0.0,0.0,0.0,0.0,0.0,0.0,0.0,0.0,0.0,0.0,0.0,0.0,0.0,0.0,0.0,0.0,0.0,0.0,0.0,0.0,0.0,0.0,0.0,0.0,0.0,0.0,0.0,0.0,0.0,0.0,0.0,0.0,0.0,0.0,0.0,0.0,0.0,0.0,0.0,0.0,0.0,0.0,0.0,0.0,0.0,0.0,0.0,0.0,0.0,0.0,0.0,0.0,0.0,0.0,0.0,0.0,0.0,0.0,0.0,0.0,0.0,0.0,0.0,0.0,0.0,4.222,4.2119,4.3384,4.3444,4.2145,4.1215,3.9392,0.0,0.0,0.0,0.0,0.0,0.0,0.0,0.0,0.0,0.0,0.0,0.0,0.0,0.0,0.0,0.0,0.0,0.0,0.0,0.0,0.0,0.0,0.0,0.0,0.0,0.0,0.0,0.0,0.0,0.0,0.0,0.0,0.0,0.0,0.0,0.0,0.0,0.0,0.0,0.0,0.0,0.0,0.0,0.0,0.0,0.0,0.0,0.0,0.0,0.0,0.0,0.0,0.0,0.0,0.0,0.0,0.0,0.0,0.0,0.0,0.0,0.0,0.0,0.0,0.0,0.0,0.0,0.0,0.0,0.0,0.0,0.0,0.0,0.0,0.0,0.0,0.0,0.0,0.0,0.0,0.0,0.0,0.0,0.0,0.0,0.0,0.0,0.0,0.0,0.0,0.0,0.0,0.0,0.0,0.0,0.0,0.0,0.0,0.0,0.0,0.0,0.0,0.0,0.0,0.0,0.0,0.0,0.0,4.222,4.2125,4.3237,4.3558,4.2851,4.1266,3.9232,0.0,0.0,0.0,0.0,0.0,0.0,0.0,0.0,0.0,0.0,0.0,0.0,0.0,0.0,0.0,0.0,0.0,0.0,0.0,0.0,0.0,0.0,0.0,0.0,0.0,0.0,0.0,0.0,0.0,0.0,0.0,0.0,0.0,0.0,0.0,0.0,0.0,0.0,0.0,0.0,0.0,0.0,0.0,0.0,0.0,0.0,0.0,0.0,2.8908,0.0,0.0,0.0,0.0,0.0,0.0,0.0,0.0,0.0,0.0,0.0,0.0,0.0,0.0,0.0,0.0,0.0,0.0,0.0,0.0,0.0,0.0,0.0,0.0,0.0,0.0,0.0,0.0,0.0,0.0,0.0,0.0,0.0,0.0,0.0,0.0,0.0,0.0,0.0,0.0,0.0,0.0,0.0,0.0,0.0,0.0,0.0,0.0,0.0,0.0,0.0,0.0,0.0,0.0,0.0,0.0,0.0,0.0,0.0,4.2193,4.2044,4.3165,4.3355,4.2391,4.082,3.9074,0.0,0.0,0.0,0.0,0.0,0.0,0.0,0.0,0.0,0.0,0.0,0.0,0.0,0.0,0.0,0.0,0.0,0.0,0.0,0.0,0.0,0.0,0.0,0.0,0.0,0.0,0.0,0.0,0.0,0.0,0.0,0.0,0.0,0.0,0.0,0.0,0.0,0.0,0.0,0.0,0.0,0.0,0.0,0.0,0.0,0.0,0.0,0.0,0.0,0.0,0.0,0.0,0.0,0.0,0.0,0.0,0.0,0.0,0.0,0.0,0.0,0.0,0.0,0.0,0.0,0.0,0.0,0.0,0.0,0.0,0.0,0.0,0.0,0.0,0.0,0.0,0.0,0.0,0.0,0.0,0.0,0.0,0.0,0.0,0.0,0.0,0.0,0.0,0.0,0.0,0.0,0.0,0.0,0.0,0.0,0.0,0.0,0.0,0.0,0.0,0.0,0.0,0.0,0.0,0.0,0.0,0.0,4.0798,4.2186,4.1954,4.3041,4.2921,4.1597,4.0084,3.8654,3.7198,0.0,0.0,0.0,0.0,0.0,0.0,0.0,0.0,0.0,0.0,0.0,0.0,0.0,0.0,0.0,0.0,0.0,0.0,0.0,0.0,0.0,0.0,0.0,0.0,0.0,0.0,0.0,0.0,0.0,0.0,0.0,0.0,0.0,0.0,0.0,0.0,0.0,0.0,2.8429,2.9109,0.0,0.0,0.0,0.0,0.0,0.0,0.0,0.0,2.9554,0.0,0.0,0.0,0.0,0.0,0.0,0.0,0.0,0.0,0.0,0.0,0.0,0.0,0.0,0.0,0.0,0.0,0.0,0.0,0.0,0.0,0.0,0.0,0.0,0.0,0.0,0.0,0.0,0.0,0.0,0.0,0.0,0.0,0.0,0.0,0.0,0.0,0.0,0.0,0.0,0.0,0.0,0.0,0.0,0.0,0.0,0.0,0.0,0.0,0.0,0.0,0.0,0.0,0.0,0.0,0.0,3.791,4.0798,4.2139,4.1907,4.2423,4.2293,4.1331,3.9188,3.7325,3.584,0.0,0.0,0.0,0.0,0.0,0.0,0.0,0.0,0.0,0.0,0.0,0.0,0.0,0.0,0.0,0.0,0.0,0.0,0.0,0.0,0.0,0.0,0.0,0.0,0.0,0.0,0.0,0.0,0.0,0.0,0.0,0.0,0.0,0.0,0.0,0.0,0.0,0.0,0.0,3.0051,3.0731,0.0,0.0,0.0,0.0,0.0,0.0,0.0,0.0,3.0503,0.0,0.0,0.0,0.0,0.0,0.0,0.0,0.0,0.0,0.0,0.0,0.0,0.0,0.0,0.0,0.0,0.0,0.0,0.0,0.0,0.0,0.0,0.0,0.0,0.0,0.0,0.0,0.0,0.0,0.0,0.0,0.0,0.0,0.0,0.0,0.0,0.0,0.0,0.0,0.0,0.0,0.0,0.0,0.0,0.0,0.0,0.0,0.0,0.0,0.0,0.0,0.0,0.0,0.0,0.0,3.7916,4.0336,4.1506,4.1229,4.1546,4.1161,3.9962,3.809,3.6166,0.0,0.0,0.0,0.0,0.0,0.0,0.0,0.0,0.0,0.0,0.0,0.0,0.0,0.0,0.0,0.0,0.0,0.0,0.0,0.0,0.0,0.0,0.0,0.0,0.0,0.0,0.0,0.0,0.0,0.0,0.0,0.0,0.0,0.0,0.0,0.0,0.0,0.0,0.0,0.0,3.0712,3.1548,3.1836,0.0,0.0,0.0,0.0,0.0,0.0,3.1399,3.1111,0.0,0.0,0.0,0.0,0.0,0.0,0.0,0.0,0.0,0.0,0.0,0.0,0.0,0.0,0.0,0.0,0.0,0.0,0.0,0.0,0.0,0.0,0.0,0.0,0.0,0.0,0.0,0.0,0.0,0.0,0.0,0.0,0.0,0.0,0.0,0.0,0.0,0.0,0.0,0.0,0.0,0.0,0.0,0.0,0.0,0.0,0.0,0.0,0.0,0.0,0.0,0.0,0.0,0.0,0.0,3.7727,3.985,4.0862,4.0546,4.0659,4.0068,3.8685,3.7078,3.5185,0.0,0.0,0.0,0.0,0.0,0.0,0.0,0.0,0.0,0.0,0.0,0.0,0.0,0.0,0.0,0.0,0.0,0.0,0.0,0.0,0.0,0.0,0.0,0.0,0.0,0.0,0.0,0.0,0.0,0.0,0.0,0.0,0.0,0.0,0.0,0.0,0.0,0.0,0.0,0.0,0.0,3.2006,3.2594,3.2672,0.0,0.0,0.0,0.0,3.2052,3.1876,0.0,0.0,0.0,0.0,0.0,0.0,0.0,0.0,0.0,0.0,0.0,0.0,0.0,0.0,0.0,0.0,0.0,0.0,0.0,0.0,0.0,0.0,0.0,0.0,0.0,0.0,0.0,0.0,0.0,0.0,0.0,0.0,0.0,0.0,0.0,0.0,0.0,0.0,0.0,0.0,0.0,0.0,0.0,0.0,0.0,0.0,0.0,0.0,0.0,0.0,0.0,0.0,0.0,0.0,0.0,0.0,3.7605,3.9812,4.0776,4.0343,4.001,3.9421,3.8504,3.6338,3.4436,0.0,0.0,0.0,0.0,0.0,0.0,0.0,0.0,0.0,0.0,0.0,0.0,0.0,0.0,0.0,0.0,0.0,0.0,0.0,0.0,0.0,0.0,0.0,0.0,0.0,0.0,0.0,0.0,0.0,0.0,0.0,0.0,0.0,0.0,0.0,0.0,0.0,0.0,0.0,0.0,0.0,3.2006,3.262,3.2672,3.2672,0.0,0.0,3.2672,3.2594,3.2156,0.0,0.0,0.0,0.0,0.0,0.0,0.0,0.0,0.0,0.0,0.0,0.0,0.0,0.0,0.0,0.0,0.0,0.0,0.0,0.0,0.0,0.0,0.0,0.0,0.0,0.0,0.0,0.0,0.0,0.0,0.0,0.0,0.0,0.0,0.0,0.0,0.0,0.0,0.0,0.0,0.0,0.0,0.0,0.0,0.0,0.0,0.0,0.0,0.0,0.0,0.0,0.0,0.0,0.0,0.0,3.7245,3.7436,3.9126,3.9854,3.9441,3.8938,3.8069,3.6827,3.508,3.342,0.0,0.0,0.0,0.0,0.0,0.0,0.0,0.0,0.0,0.0,0.0,0.0,0.0,0.0,0.0,0.0,0.0,0.0,0.0,0.0,0.0,0.0,0.0,0.0,0.0,0.0,0.0,0.0,0.0,0.0,0.0,0.0,0.0,0.0,0.0,0.0,0.0,0.0,0.0,0.0,0.0,0.0,3.4005,3.4162,0.0,0.0,0.0,3.4058,3.3718,0.0,0.0,0.0,0.0,0.0,0.0,0.0,0.0,0.0,0.0,0.0,0.0,0.0,0.0,0.0,0.0,0.0,0.0,0.0,0.0,0.0,0.0,0.0,0.0,0.0,0.0,0.0,0.0,0.0,0.0,0.0,0.0,0.0,0.0,0.0,0.0,0.0,0.0,0.0,0.0,0.0,0.0,0.0,0.0,0.0,0.0,0.0,0.0,0.0,0.0,0.0,0.0,0.0,0.0,0.0,0.0,0.0,3.7178,3.8566,3.9094,3.8711,3.8101,3.704,3.5536,3.4121,0.0,0.0,0.0,0.0,0.0,0.0,0.0,0.0,0.0,0.0,0.0,0.0,0.0,0.0,0.0,0.0,0.0,0.0,0.0,0.0,0.0,0.0,0.0,0.0,0.0,0.0,0.0,2.315,0.0,0.0,0.0,0.0,0.0,0.0,0.0,0.0,0.0,0.0,0.0,0.0,0.0,0.0,3.3326,3.5051,3.5307,3.5495,0.0,0.0,3.5286,3.4732,3.4162,3.3384,0.0,0.0,0.0,0.0,0.0,0.0,0.0,0.0,0.0,0.0,0.0,0.0,0.0,0.0,0.0,0.0,0.0,0.0,0.0,0.0,0.0,0.0,0.0,0.0,0.0,0.0,0.0,0.0,0.0,0.0,0.0,0.0,0.0,0.0,0.0,0.0,0.0,0.0,0.0,0.0,0.0,0.0,0.0,0.0,0.0,0.0,0.0,0.0,0.0,0.0,0.0,0.0,0.0,0.0,0.0,3.6789,3.8421,3.9032,3.845,3.777,3.6803,3.5536,3.3892,3.2431,0.0,0.0,0.0,0.0,0.0,0.0,0.0,0.0,0.0,0.0,0.0,0.0,0.0,0.0,0.0,0.0,0.0,0.0,0.0,0.0,0.0,0.0,0.0,0.0,0.0,0.0,0.0,0.0,0.0,0.0,0.0,0.0,0.0,0.0,0.0,0.0,0.0,0.0,0.0,0.0,0.0,3.3326,3.5051,3.5307,3.5495,0.0,0.0,3.5861,3.5312,3.4737,3.3917,3.257,0.0,0.0,0.0,0.0,0.0,0.0,0.0,0.0,0.0,0.0,0.0,0.0,0.0,0.0,0.0,0.0,0.0,0.0,0.0,0.0,0.0,0.0,0.0,0.0,0.0,0.0,0.0,0.0,0.0,0.0,0.0,0.0,0.0,0.0,0.0,0.0,0.0,0.0,0.0,0.0,0.0,0.0,0.0,0.0,0.0,0.0,0.0,0.0,0.0,0.0,0.0,0.0,0.0,3.6437,3.641,3.7919,3.8488,3.7993,3.7402,3.618,3.4304,3.3249,3.1867,0.0,0.0,0.0,0.0,0.0,0.0,0.0,0.0,0.0,0.0,0.0,0.0,0.0,0.0,0.0,0.0,0.0,0.0,0.0,0.0,0.0,0.0,0.0,0.0,0.0,0.0,0.0,0.0,2.2665,2.2451,2.2142,0.0,0.0,0.0,0.0,0.0,0.0,0.0,0.0,0.0,0.0,3.3875,3.5547,3.6096,0.0,0.0,3.6746,3.6215,3.5691,3.499,3.407,3.2664,3.1385,0.0,0.0,0.0,0.0,0.0,0.0,0.0,0.0,0.0,0.0,0.0,0.0,0.0,0.0,0.0,0.0,0.0,0.0,0.0,0.0,0.0,0.0,0.0,0.0,0.0,0.0,0.0,0.0,0.0,0.0,0.0,0.0,0.0,0.0,0.0,0.0,0.0,0.0,0.0,0.0,0.0,0.0,0.0,0.0,0.0,0.0,0.0,0.0,0.0,0.0,0.0,0.0,3.5884,3.6018,3.7298,3.7855,3.7611,3.7013,3.5661,3.3576,3.2758,3.1387,0.0,0.0,0.0,0.0,0.0,0.0,0.0,0.0,0.0,0.0,0.0,0.0,0.0,0.0,0.0,0.0,0.0,0.0,0.0,0.0,0.0,0.0,0.0,0.0,0.0,0.0,0.0,0.0,2.2359,2.2082,2.1807,0.0,0.0,0.0,0.0,0.0,0.0,0.0,0.0,0.0,0.0,3.4163,3.5695,3.6397,3.7017,3.7589,3.7074,3.645,3.5884,3.5168,3.4165,3.279,0.0,0.0,0.0,0.0,0.0,0.0,0.0,0.0,0.0,0.0,0.0,0.0,0.0,0.0,0.0,0.0,0.0,0.0,0.0,0.0,0.0,0.0,0.0,0.0,0.0,0.0,0.0,0.0,0.0,0.0,3.2599,0.0,0.0,0.0,0.0,0.0,0.0,0.0,0.0,0.0,0.0,0.0,0.0,0.0,0.0,0.0,0.0,0.0,0.0,0.0,0.0,0.0,0.0,3.4959,3.5613,3.6486,3.7103,3.7371,3.6631,3.5352,3.356,3.2521,3.1083,2.9129,0.0,0.0,0.0,0.0,0.0,0.0,0.0,0.0,0.0,0.0,0.0,0.0,0.0,0.0,0.0,0.0,0.0,0.0,0.0,0.0,0.0,0.0,0.0,0.0,0.0,0.0,2.2453,2.2018,2.1791,0.0,0.0,0.0,0.0,0.0,0.0,0.0,0.0,0.0,0.0,3.2649,3.4114,3.5267,3.5929,3.6516,3.7055,3.6873,3.6506,3.595,3.5214,3.4234,0.0,0.0,0.0,0.0,0.0,0.0,0.0,0.0,0.0,0.0,0.0,0.0,0.0,0.0,0.0,0.0,0.0,0.0,0.0,0.0,0.0,0.0,0.0,0.0,0.0,0.0,0.0,3.5156,3.4314,0.0,0.0,0.0,0.0,0.0,0.0,0.0,0.0,0.0,0.0,0.0,3.6058,3.5669,0.0,0.0,0.0,0.0,0.0,0.0,0.0,0.0,0.0,0.0,0.0,0.0,3.4557,3.5151,3.6001,3.6532,3.6784,3.632,3.5116,3.3097,3.2263,3.0515,2.7728,0.0,0.0,0.0,0.0,0.0,0.0,0.0,0.0,0.0,0.0,0.0,0.0,0.0,0.0,0.0,0.0,0.0,0.0,0.0,0.0,0.0,0.0,0.0,0.0,0.0,2.3248,0.0,0.0,0.0,0.0,0.0,0.0,0.0,0.0,0.0,0.0,0.0,3.0259,3.2196,3.336,3.4437,3.5582,3.6102,3.6438,0.0,0.0,0.0,0.0,0.0,0.0,0.0,0.0,0.0,0.0,0.0,0.0,0.0,0.0,3.0369,2.9792,2.9557,2.9383,2.9189,0.0,0.0,0.0,0.0,0.0,0.0,0.0,0.0,0.0,0.0,0.0,0.0,0.0,0.0,3.6294,0.0,3.5169,0.0,0.0,0.0,0.0,0.0,0.0,0.0,0.0,3.6028,3.6509,3.7302,3.6982,3.6596,0.0,3.5266,3.4398,0.0,0.0,0.0,0.0,0.0,0.0,0.0,0.0,3.4065,3.4647,3.5463,3.6012,3.629,3.5666,3.4449,3.2672,3.1286,2.9482,2.7115,2.6586,2.5823,0.0,0.0,0.0,0.0,0.0,0.0,0.0,0.0,0.0,0.0,0.0,0.0,0.0,0.0,0.0,0.0,0.0,0.0,0.0,0.0,0.0,0.0,0.0,2.3303,0.0,0.0,0.0,0.0,0.0,0.0,0.0,0.0,0.0,2.7181,2.9003,3.0827,3.2585,3.3673,3.4545,3.5269,0.0,0.0,0.0,0.0,0.0,0.0,0.0,3.3291,3.2794,3.1995,3.1504,3.167,3.139,3.1297,3.1623,0.0,0.0,3.0948,3.0709,3.0457,3.01,2.9706,2.9361,2.9169,2.8954,2.861,0.0,0.0,0.0,0.0,0.0,0.0,0.0,0.0,3.7789,3.7399,0.0,3.6577,0.0,0.0,0.0,0.0,0.0,3.4944,0.0,0.0,3.7003,3.7119,3.7166,3.7344,3.7417,3.7357,3.6131,3.5503,3.5383,3.3529,0.0,0.0,0.0,0.0,0.0,0.0,3.3536,3.4239,3.4881,3.543,3.5866,3.4673,3.3429,3.2202,2.9709,2.802,2.7297,2.6598,2.6043,2.5619,2.4405,0.0,0.0,0.0,0.0,0.0,0.0,0.0,0.0,0.0,0.0,0.0,0.0,0.0,0.0,0.0,0.0,0.0,0.0,0.0,0.0,2.2923,0.0,0.0,0.0,0.0,0.0,0.0,0.0,0.0,0.0,0.0,2.818,2.9792,3.1272,3.2223,0.0,0.0,0.0,0.0,3.475,3.475,3.431,3.3966,3.3941,3.3128,3.2487,3.2487,0.0,0.0,3.1706,3.1729,3.1729,3.1729,3.1537,3.1425,3.1646,3.1598,3.127,3.0358,3.0018,2.9631,2.9168,2.8906,2.8533,4.3007,0.0,0.0,0.0,0.0,3.9912,3.9853,4.0001,3.9823,3.948,3.8922,3.8302,0.0,0.0,0.0,0.0,0.0,0.0,3.6365,3.7267,3.7351,3.7693,3.8298,3.8014,3.7895,3.7865,3.6738,3.6207,3.6118,3.4697,3.3455,3.2572,0.0,0.0,0.0,0.0,3.3619,3.4683,3.4834,3.4876,3.4916,3.4179,3.2793,3.072,2.9002,2.7838,2.7306,2.684,2.6249,2.5628,2.4796,0.0,0.0,0.0,0.0,0.0,0.0,0.0,0.0,0.0,0.0,0.0,0.0,0.0,0.0,0.0,0.0,0.0,0.0,0.0,2.3771,2.3687,2.3668,0.0,0.0,0.0,0.0,0.0,0.0,0.0,0.0,0.0,2.9427,3.0531,3.169,0.0,0.0,3.3887,3.4075,3.402,3.3867,3.3694,3.3371,0.0,3.2899,3.2437,3.2143,3.2143,3.2207,3.2153,3.1765,3.1993,3.2266,3.2266,3.2017,3.1825,3.1867,3.1477,3.1053,3.0735,3.062,3.0344,2.9733,2.9506,2.9053,4.501,4.3303,4.2273,4.2,4.2206,4.1685,4.1391,4.1331,4.1047,4.05,3.9721,3.9371,3.8676,3.7737,3.7,0.0,0.0,0.0,3.7309,3.814,3.8225,3.8491,3.8879,3.8723,3.8545,3.834,3.7218,3.6646,3.6663,3.5389,3.4212,3.3198,0.0,0.0,3.3021,3.3397,3.397,3.4771,3.4884,3.4678,3.4186,3.2919,3.1253,2.928,2.8295,2.7573,2.707,2.6816,2.6425,2.5861,2.5103,2.4394,0.0,0.0,0.0,0.0,0.0,0.0,0.0,0.0,0.0,0.0,0.0,2.0638,2.0836,0.0,0.0,0.0,2.2284,2.3255,2.4135,2.4074,0.0,0.0,0.0,0.0,0.0,0.0,0.0,2.6173,2.7458,2.8789,3.0166,3.0996,3.1903,3.317,3.3404,3.3492,3.3524,0.0,3.2921,3.2745,3.2418,3.2114,3.1939,3.1684,3.1578,3.168,3.1834,3.1949,3.1734,3.1914,3.2091,3.1986,3.1808,3.1655,3.1553,3.0996,3.0666,3.084,3.0661,3.0229,2.9506,2.9148,2.8563,4.6569,4.5853,4.4424,4.4095,4.4381,4.3193,4.257,4.2298,4.1645,4.0842,3.9972,3.9817,3.9185,3.815,3.7301,0.0,3.7789,3.7789,3.8211,3.9009,3.922,3.9198,3.9045,3.9237,3.9096,3.8694,3.7505,3.6916,3.6799,3.5731,3.4882,3.4246,3.3809,3.3603,3.362,3.4173,3.4502,3.4562,3.4934,3.461,3.3501,3.1164,2.9285,2.802,2.7673,2.7239,2.6696,2.6662,2.6516,2.6154,2.5257,2.4582,2.4139,0.0,0.0,0.0,0.0,0.0,0.0,0.0,0.0,0.0,0.0,0.0,0.0,0.0,0.0,0.0,2.2527,0.0,2.4184,2.4094,0.0,0.0,0.0,2.4153,2.4828,2.5232,2.5914,2.7147,0.0,0.0,3.0418,3.1123,3.1854,3.2655,3.3043,3.3119,3.2768,3.2294,3.1986,3.1936,3.1501,3.1167,3.1081,3.0833,3.0692,3.0897,3.1034,3.1098,3.1305,3.1378,3.1294,3.1094,3.1034,3.0936,3.07,3.027,3.0137,3.0575,3.0175,2.9523,2.883,2.8163,2.7535,4.7584,4.654,4.6036,4.5036,4.382,4.3502,4.3236,4.2912,4.2181,4.1682,4.1426,4.025,3.9108,3.8089,3.7538,3.7378,3.7514,3.7487,3.7799,3.8332,3.8373,3.8435,3.8421,3.8617,3.8505,3.8098,3.7426,3.6888,3.6458,3.5809,3.5162,3.4596,3.4568,3.4469,3.4262,3.4272,3.452,3.5039,3.4743,3.3681,3.1834,3.0,2.8682,2.7871,2.7523,2.707,2.6483,2.6379,2.6136,2.5746,2.4853,2.4163,2.3833,2.2645,0.0,0.0,0.0,0.0,0.0,0.0,0.0,0.0,0.0,2.0236,2.0359,0.0,2.1118,0.0,2.2882,2.3688,2.3894,2.3876,0.0,0.0,2.4724,2.4913,2.575,2.628,2.6729,2.7022,2.7768,2.8694,2.9837,3.0128,3.0597,3.1472,3.2249,3.2493,3.1961,3.1783,3.1553,3.1167,3.094,3.07,3.0138,2.9678,2.9467,2.9496,2.9739,2.9913,2.9988,2.9988,2.9988,2.9913,2.9692,2.9517,2.9488,2.9187,2.9019,2.9124,2.9214,2.9053,2.8296,2.7866,2.7259,4.8494,4.7426,4.7048,4.5924,4.4351,4.4201,4.3826,4.3273,4.2593,4.2111,4.1669,4.0184,3.9093,3.8315,3.7782,3.7656,3.7765,3.7743,3.8027,3.8454,3.8568,3.8462,3.8186,3.8388,3.8147,3.7472,3.692,3.6358,3.5783,3.5366,3.49,3.4327,3.4551,3.4609,3.4453,3.4472,3.4679,3.4935,3.4059,3.2863,3.1346,2.9727,2.8558,2.7966,2.7249,2.6714,2.6319,2.6067,2.5753,2.5335,2.4702,2.4078,2.3544,2.2555,2.1759,0.0,0.0,0.0,0.0,0.0,0.0,0.0,0.0,0.0,0.0,0.0,2.1537,2.2181,2.2933,2.3509,2.3902,2.4113,2.4555,2.5295,2.5397,2.5664,2.6285,2.6735,2.7056,2.7243,2.7899,2.8556,2.9214,2.952,2.9842,3.0399,3.0892,3.1133,3.0954,3.0845,3.0576,3.0079,2.991,2.9698,2.9253,2.8999,2.8861,2.8985,2.9155,2.9324,2.9469,2.9519,2.9469,2.93,2.913,2.8956,2.8836,2.852,2.8268,2.8153,2.8029,2.7905,2.7697,2.713,2.6352,4.9097,4.8196,4.7516,4.651,4.522,4.4748,4.4139,4.3449,4.2874,4.2093,4.1144,3.9887,3.9107,3.8633,3.807,3.7926,3.8159,3.8125,3.8345,3.8774,3.9047,3.8782,3.8095,3.8242,3.7858,3.6934,3.6261,3.5646,3.5088,3.479,3.4356,3.3823,3.4088,3.4264,3.4264,3.4551,3.4635,3.4513,3.3157,3.2103,3.1443,2.9741,2.8582,2.8014,2.6975,2.6302,2.6109,2.5711,2.5324,2.4892,2.4503,2.3959,2.3224,2.2406,2.1694,0.0,2.041,0.0,0.0,0.0,0.0,0.0,0.0,0.0,0.0,2.189,2.2191,2.2798,2.2961,2.333,2.4096,2.4554,2.5033,2.5557,2.5977,2.6304,2.6599,2.6891,2.7177,2.7529,2.8142,2.8519,2.86,2.9009,2.931,2.9391,2.9459,2.959,2.9723,2.9724,2.9518,2.8977,2.8695,2.8616,2.8549,2.8462,2.8454,2.8697,2.8705,2.8912,2.9088,2.9161,2.9063,2.882,2.8705,2.8652,2.8442,2.8016,2.7716,2.75,2.6907,2.6621,2.6854,2.6264,2.5405,4.8804,4.7905,4.6914,4.5906,4.4905,4.3746,4.3276,4.3282,4.248,4.1389,4.0165,3.9464,3.9097,3.8943,3.8217,3.7893,3.7938,3.7736,3.7779,3.8099,3.8304,3.8269,3.8011,3.7617,3.7169,3.6641,3.604,3.5467,3.4866,3.4646,3.4224,3.3659,3.354,3.3496,3.3496,0.0,0.0,0.0,3.2333,3.1496,3.1046,2.9379,2.8248,2.7683,2.6854,0.0,2.5518,2.5229,2.4784,2.4141,2.3574,0.0,0.0,0.0,0.0,0.0,0.0,0.0,0.0,0.0,0.0,0.0,2.1683,2.1704,2.1861,2.2382,2.2808,2.3097,2.3764,2.4228,2.4397,2.4779,2.5247,2.5716,2.6023,2.6361,2.6768,2.709,2.7274,2.7336,2.7488,2.7699,2.8032,2.8154,2.8341,2.8678,2.8757,2.8653,2.8362,2.8802,2.9015,2.8707,2.8301,2.8045,2.8024,2.7779,2.7641,2.763,2.763,2.7675,2.7765,2.7765,2.7747,2.7648,2.763,2.7552,2.7287,2.7156,2.7023,2.6738,2.6179,2.5809,2.6183,2.5693,2.5032,4.8684,0.0,4.6926,4.5842,0.0,4.3429,4.2679,4.2262,4.1848,4.0931,3.9722,3.9357,3.9057,3.87,3.7922,3.7619,3.7738,3.7294,3.7248,3.7502,3.7756,3.7647,3.7316,3.6866,3.6369,3.589,3.5325,3.4827,3.4319,3.4301,3.3919,3.3135,3.312,3.3025,3.2704,3.266,3.2696,3.2856,3.209,3.146,3.098,2.9738,2.8813,2.8228,2.7055,0.0,0.0,0.0,0.0,0.0,0.0,0.0,0.0,2.1624,0.0,2.1351,2.1446,2.1441,2.1379,2.187,2.2187,2.2207,2.2599,2.2658,2.2248,2.2881,2.3385,2.3513,2.4088,2.451,2.4643,2.5022,2.5428,2.5789,2.6128,2.6513,2.6836,2.702,2.7143,2.7286,2.7309,2.7413,2.7596,2.7593,2.7676,2.7903,2.7945,2.7883,2.7721,2.8108,2.8341,2.8011,2.7804,2.7614,2.7572,2.7451,2.7238,2.7143,2.7095,2.7023,2.6928,2.6904,2.6904,2.6904,2.6904,2.6856,2.6716,2.6526,2.6293,2.6015,2.5554,2.5175,2.5232,2.482,2.4398,4.8406,4.7793,4.6873,4.5768,4.4518,4.3288,4.2149,4.1072,0.0,0.0,0.0,3.9474,3.9095,3.8589,3.7837,3.7534,3.7626,3.7116,3.6904,3.7038,3.732,3.7177,3.6687,3.6193,3.5709,3.5219,3.4564,3.4074,3.3794,3.3911,3.3562,3.2852,3.2793,3.2475,3.1945,3.1753,3.1808,3.2073,3.1863,3.1458,3.0955,3.0084,2.9393,2.8812,2.725,2.6201,2.5717,2.4585,2.3653,2.3034,2.2448,2.1997,2.177,2.1389,2.1261,2.1422,2.1558,2.1638,2.1617,2.2235,2.2635,2.2734,2.3379,2.3496,2.2773,2.3457,2.3906,2.3929,2.4297,2.4601,2.4852,2.527,2.5599,2.5788,2.6156,2.652,2.6712,2.6853,2.6996,2.7167,2.7262,2.7309,2.733,2.733,2.7309,2.733,2.7368,2.7309,2.7351,2.7617,2.7721,2.7431,2.7392,2.7306,2.7214,2.7211,2.7119,2.6856,2.6781,2.6685,2.6496,2.64,2.6376,2.6352,2.6316,2.6232,2.6144,2.5757,2.5451,2.522,2.4841,2.45,2.4254,2.3919,2.373,4.7747,4.6974,4.6141,4.5196,4.4255,4.2888,4.1516,4.0287,4.0287,4.0185,4.0007,3.9751,3.9598,3.9472,3.8919,3.8391,3.7938,3.7627,3.7215,3.6781,3.7038,3.7129,3.6975,3.5997,3.5458,3.5282,3.4324,3.3759,3.3693,3.3467,3.3253,3.3034,3.2352,3.1701,3.1176,3.0981,3.0905,3.0962,3.1048,3.0999,3.0736,2.9598,2.8831,2.8365,2.7179,2.6127,2.5382,2.4637,2.3871,2.3137,2.2453,2.1924,2.1571,2.1323,2.1216,2.1271,2.1784,2.2123,2.2101,2.2661,2.3181,2.3574,2.373,2.373,2.3652,2.4043,2.4313,2.4313,2.4727,2.5004,2.5071,2.5419,2.5698,2.5722,2.5954,2.6183,2.6255,2.6613,2.69,2.6948,2.7167,2.7286,2.7262,2.7262,2.7262,2.7286,2.7214,2.7286,2.7282,2.7351,2.7348,2.733,2.7309,2.719,2.702,2.6948,2.6829,2.6592,2.6352,2.6183,2.6066,2.5858,2.5741,2.5781,2.5462,2.52,2.4994,2.4617,2.4314,2.4051,2.3794,2.3593,2.3573,2.3379,2.3357,4.7408,4.6559,4.5685,4.4838,4.3966,4.2216,4.1028,4.0307,4.0004,3.9878,3.9852,3.9774,3.9697,3.9673,3.9145,3.8768,3.8467,3.771,3.7253,3.6975,3.679,3.6734,3.6635,3.5828,3.5297,3.4967,3.4204,3.3733,3.3535,3.3364,3.3213,3.2978,3.1997,3.1358,3.1099,3.0599,3.0318,3.0222,3.0413,3.0432,3.0203,2.9407,2.8762,2.8251,2.7062,2.6122,2.5435,2.4395,2.3506,2.2798,2.2144,2.1681,2.1469,2.1235,2.124,2.1485,2.1997,2.2288,2.2288,2.3042,2.3672,2.4079,2.4378,2.4496,2.4515,2.4672,2.4789,2.4785,2.5176,2.543,2.543,2.5601,2.5698,2.5698,2.5795,2.5941,2.6086,2.6304,2.652,2.6664,2.6784,2.6856,2.6856,2.6856,2.6856,2.688,2.6856,2.6856,2.688,2.688,2.6928,2.7044,2.6952,2.6832,2.6688,2.6544,2.6376,2.6091,2.5844,2.5557,2.5319,2.499,2.4745,2.4568,2.424,2.3947,2.3768,2.3448,2.32,2.3198,2.2896,2.2786,2.2955,2.3064,2.3179,4.6837,4.5954,4.5208,4.4409,4.3488,4.1895,4.0912,4.0475,4.0074,3.9823,3.9697,3.9697,3.9697,3.9647,3.9271,3.9019,3.8768,3.7839,3.7287,3.716,3.6632,3.6405,3.6355,3.5782,3.523,3.4678,3.4173,3.3708,3.3376,3.3347,3.3132,3.2694,3.1847,3.1343,3.1176,3.0612,3.0195,2.9959,2.9868,2.9768,2.9566,2.9131,2.8598,2.7951,2.6915,2.6049,2.5378,2.4215,2.3268,2.2586,2.2002,2.1646,2.1475,2.132,2.1379,2.1695,2.2132,2.2479,2.2748,2.3393,2.4004,2.4531,2.4887,2.5145,2.5219,2.5239,2.5239,2.5254,2.5527,2.5698,2.5679,2.5698,2.5698,2.5698,2.5698,2.5747,2.5873,2.597,2.6042,2.6231,2.6279,2.6328,2.6328,2.6328,2.6328,2.6328,2.6328,2.6328,2.6328,2.6224,2.6192,2.6308,2.6308,2.6112,2.602,2.5702,2.5443,2.5218,2.4861,2.4466,2.4108,2.3782,2.3467,2.3244,2.2857,2.2574,2.2501,2.2275,2.2108,2.2149,2.2105,2.2191,2.2634,2.2813,2.2969,4.5872,4.4883,4.4505,4.3732,4.2729,4.225,4.1483,4.0601,4.0424,4.0149,3.9747,3.9697,3.9697,3.9697,3.9622,3.9346,3.8894,3.8216,3.7663,3.7185,3.6632,3.6405,3.638,3.5782,3.5207,3.4703,3.4198,3.3693,3.3208,3.3158,3.2835,3.2307,3.2156,3.1746,3.1182,3.1016,3.0791,3.0316,2.9522,2.904,2.8879,2.8498,2.7978,2.7307,2.6586,2.5818,2.4999,2.4426,2.3698,2.2853,2.2484,2.213,2.1743,2.1654,2.165,2.1709,2.2132,2.2748,2.3557,2.3747,2.416,2.4926,2.5059,2.523,2.5557,2.5615,2.5635,2.5615,2.5654,2.5674,2.5698,2.5693,2.565,2.5645,2.5645,2.562,2.5455,2.5582,2.5679,2.543,2.5606,2.5776,2.5727,2.5727,2.5708,2.5679,2.5679,2.564,2.5581,2.5227,2.4856,2.4975,2.5212,2.5149,2.461,2.4175,2.4013,2.3716,2.3212,2.2977,2.2805,2.2464,2.2072,2.2019,2.1573,2.1212,2.1125,2.0945,2.0917,2.1179,2.1446,2.1887,2.2309,2.2485,2.2574,4.5669,4.4449,4.3958,4.339,4.2803,4.2391,4.1934,4.1482,4.0802,4.0349,4.0149,3.9848,3.9697,3.9697,3.9697,3.9572,3.9346,3.8768,3.824,3.7638,3.7135,3.6732,3.6405,3.6155,3.573,3.518,3.4628,3.4076,3.3596,3.3244,3.2879,3.25,3.2179,3.1737,3.1157,3.0692,3.0208,2.9748,2.9092,2.8605,2.8224,2.7566,2.7021,2.6569,2.5842,2.5189,2.4679,2.412,2.3472,2.2838,2.253,2.2176,2.1731,2.1687,2.1687,2.175,2.2419,2.3081,2.3687,2.4094,2.4519,2.4977,2.4991,2.5087,2.5216,2.5235,2.5235,2.526,2.5376,2.5455,2.5455,2.5333,2.5235,2.5235,2.5211,2.5186,2.5088,2.5039,2.4947,2.4849,2.4799,2.4775,2.475,2.475,2.4732,2.4732,2.4756,2.4681,2.4485,2.4224,2.378,2.3294,2.3322,2.3541,2.3522,2.3341,2.3017,2.2735,2.2446,2.2138,2.1728,2.1371,2.1032,2.0891,2.0462,2.0174,2.014,2.0125,2.0104,2.0405,2.1032,2.1638,2.1932,2.2109,2.222,4.5423,4.4268,4.3566,4.3184,4.2964,4.2587,4.2338,4.2137,4.1304,4.0802,4.0475,4.0099,3.9797,3.962,3.9671,3.9697,3.9622,3.9145,3.8668,3.8191,3.7513,3.7009,3.6656,3.6455,3.6081,3.5531,3.5104,3.4555,3.3834,3.3258,3.2831,3.2497,3.2108,3.1657,3.1115,3.0513,2.9959,2.9354,2.8824,2.8296,2.7701,2.6822,2.6298,2.615,2.5465,2.4902,2.4597,2.4115,2.3629,2.3182,2.2961,2.2636,2.2098,2.2076,2.2039,2.1965,2.2569,2.3168,2.356,2.4136,2.4554,2.4669,2.4695,2.4677,2.4695,2.4677,2.4677,2.4701,2.4775,2.4892,2.5162,2.4966,2.4818,2.4794,2.4745,2.4652,2.4554,2.4332,2.4103,2.3956,2.3746,2.3662,2.3662,2.3687,2.3662,2.3644,2.3579,2.346,2.3184,2.2967,2.2517,2.1805,2.1575,2.1754,2.2464,2.2214,2.1936,2.1679,2.1368,2.1045,2.0735,2.0396,2.0152,1.9996,1.9579,1.9353,1.9362,1.9359,1.9602,2.011,2.0654,2.1145,2.1351,2.162,2.1687,4.4808,4.4196,4.3409,4.3042,4.2989,4.2964,4.2663,4.2263,4.2085,4.1532,4.0625,4.0448,4.0017,3.9386,3.9592,3.9697,3.9596,3.9119,3.8843,3.8642,3.7714,3.7186,3.7111,3.6632,3.6081,3.5608,3.541,3.4744,3.3593,3.3046,3.2481,3.2067,3.1999,3.1623,3.0933,3.0751,3.0372,2.9375,2.8699,2.8071,2.7303,2.6423,2.6036,2.6105,2.5723,2.5207,2.4817,2.4746,2.4493,2.4033,2.3925,2.3656,2.3085,2.3002,2.2787,2.2441,2.2588,2.2889,2.3275,2.3704,2.3973,2.4085,2.4084,2.4109,2.4059,2.4059,2.4059,2.4134,2.3911,2.4084,2.4627,2.4529,2.443,2.4406,2.4257,2.401,2.3786,2.3484,2.3093,2.2684,2.2542,2.2498,2.2534,2.2568,2.2568,2.25,2.2301,2.2093,2.1996,2.1514,2.1117,2.0898,2.052,2.0207,2.0678,2.0835,2.0526,2.0314,2.0231,1.9803,1.9622,1.9458,1.932,1.9175,1.8882,1.8705,1.8651,1.882,1.9173,1.9631,2.0019,2.0405,2.0744,2.0907,2.0975,4.4434,4.3431,4.3118,4.3014,4.3014,4.3014,4.2889,4.2663,4.2336,4.1848,4.1259,4.0908,4.0301,3.9489,3.9595,3.9448,3.9128,3.8904,3.8657,3.8335,3.789,3.7444,3.6945,3.6744,3.6466,3.6058,3.5519,3.4787,3.389,3.3461,3.2852,3.2157,3.1884,3.1221,3.0239,3.0011,2.9531,2.8608,2.8086,2.7603,2.7043,2.6378,2.5993,2.5859,2.5334,2.4894,2.4572,2.4391,2.4067,2.3617,2.3575,2.3402,2.3038,2.2954,2.2829,2.2557,2.2934,2.3043,2.2775,2.3206,2.3377,2.3128,2.3088,2.307,2.307,2.307,2.307,2.3045,2.2995,2.312,2.3338,2.3612,2.3712,2.3495,2.337,2.3213,2.291,2.2487,2.209,2.1847,2.1476,2.1123,2.1204,2.1153,2.1251,2.1389,2.1211,2.0974,2.0834,2.0452,2.0142,2.0081,1.9868,1.97,1.966,1.9876,1.9785,1.9579,1.9412,1.9313,1.9143,1.8936,1.8813,1.8767,1.845,1.8288,1.8288,1.8435,1.8788,1.9058,1.9448,1.9791,2.0133,2.0229,2.0275,4.4191,4.309,4.3014,4.3014,4.3014,4.3014,4.3014,4.2936,4.2501,4.206,4.1643,4.1104,4.0387,3.9599,3.9323,3.8948,3.8558,3.8703,3.8592,3.8248,3.8102,3.7687,3.7196,3.685,3.6576,3.6249,3.5388,3.4613,3.3991,3.3448,3.2744,3.1856,3.1577,3.0785,2.9627,2.931,2.8753,2.7949,2.7538,2.7098,2.6572,2.6163,2.58,2.5431,2.497,2.4679,2.4585,2.4377,2.4141,2.3852,2.3727,2.3505,2.3138,2.2873,2.2677,2.2476,2.2829,2.2753,2.212,2.2437,2.2543,2.2055,2.1979,2.1979,2.1979,2.1979,2.1979,2.1979,2.1979,2.1979,2.2055,2.2333,2.256,2.2485,2.2442,2.2283,2.1996,2.1445,2.1024,2.0696,2.0176,1.9868,1.9948,1.9987,2.0134,2.0423,2.0119,1.9816,1.9811,1.9503,1.9223,1.9145,1.909,1.8982,1.8943,1.8989,1.9235,1.9081,1.8989,1.885,1.8735,1.8543,1.8381,1.8311,1.8218,1.804,1.804,1.8156,1.8342,1.855,1.8827,1.9134,1.9356,1.9494,1.9523,4.3991,4.3115,4.3014,4.3014,4.3014,4.3014,4.3014,4.2905,4.2628,4.2162,4.162,4.108,4.0345,3.9478,3.8823,3.824,3.8071,3.8393,3.8577,3.8533,3.8119,3.79,3.773,3.6872,3.6382,3.6211,3.5039,3.4268,3.3935,3.3007,3.2132,3.1419,3.1059,3.0341,2.9289,2.8891,2.8334,2.7615,2.7138,2.6577,2.5844,2.5752,2.5522,2.5017,2.4671,2.4621,2.4799,2.4786,2.4681,2.4651,2.4454,2.4153,2.3378,2.2871,2.2381,2.2177,2.223,2.1896,2.1271,2.1468,2.1471,2.0986,2.0883,2.0899,2.0899,2.0899,2.0899,2.0934,2.0909,2.0899,2.0925,2.0976,2.119,2.1573,2.1496,2.1267,2.0938,2.0389,1.9769,1.9281,1.887,1.8782,1.8987,1.9094,1.9231,1.9399,1.9109,1.8828,1.9023,1.8672,1.8233,1.8218,1.8342,1.8435,1.8272,1.8156,1.8435,1.8643,1.8589,1.852,1.8435,1.8288,1.8148,1.804,1.7877,1.7714,1.7691,1.7792,1.7924,1.8133,1.8342,1.8504,1.862,1.8735,1.8719,4.4192,4.3514,4.3165,4.3014,4.3014,4.3014,4.2902,4.2678,4.2513,4.2048,4.1416,4.116,4.0363,3.9339,3.8854,3.84,3.7775,3.7648,3.7581,3.7596,3.7435,3.7305,3.71,3.6764,3.6238,3.5517,3.4602,3.4,3.3611,3.2786,3.2038,3.1327,3.0665,2.9824,2.8873,2.8487,2.7953,2.7226,2.7032,2.6627,2.6021,2.5774,2.5495,2.5182,2.4703,2.4394,2.4273,2.4151,2.4003,2.3904,2.3562,2.3217,2.2845,2.2616,2.2292,2.1894,2.187,2.1459,2.0597,2.0497,2.037,1.9946,1.9817,1.9791,1.9791,1.9817,1.9894,1.9983,1.992,1.9869,1.9983,1.992,2.0127,2.0796,2.0796,2.0627,2.0302,1.9774,1.9018,1.83,1.8056,1.8075,1.8171,1.8236,1.8394,1.8662,1.834,1.8195,1.8339,1.8147,1.7939,1.804,1.8063,1.8017,1.797,1.7947,1.8087,1.8249,1.8226,1.8218,1.8172,1.8017,1.7877,1.7761,1.7574,1.7481,1.7457,1.7504,1.7621,1.7729,1.79,1.797,1.7947,1.797,1.7978,4.4493,4.3765,4.3413,4.319,4.3014,4.3014,4.2818,4.2485,4.2259,4.172,4.1086,4.0624,3.9855,3.8861,3.8445,3.7933,3.7283,3.681,3.6533,3.6498,3.6731,3.6714,3.652,3.6332,3.584,3.4992,3.4129,3.3621,3.3396,3.2358,3.1509,3.0889,3.0232,2.9435,2.8518,2.8146,2.7606,2.6995,2.6679,2.6294,2.5811,2.5422,2.5084,2.477,2.4254,2.385,2.3525,2.3289,2.3209,2.3164,2.2772,2.2308,2.1954,2.1861,2.17,2.1343,2.1113,2.0714,1.9905,1.9683,1.9439,1.9049,1.8959,1.8959,1.8959,1.8959,1.9063,1.9153,1.9075,1.9037,1.9153,1.9075,1.922,1.962,1.992,1.9911,1.9617,1.9155,1.8585,1.7954,1.7654,1.7613,1.7622,1.7647,1.7741,1.7999,1.7852,1.7721,1.7873,1.7773,1.7765,1.7761,1.7699,1.7714,1.7784,1.7784,1.7784,1.7854,1.79,1.7924,1.7939,1.7714,1.7551,1.7512,1.7396,1.7387,1.7372,1.7349,1.7434,1.7481,1.7519,1.7472,1.7434,1.7293,1.7255,4.4869,4.394,4.3865,4.3539,4.3087,4.3034,4.2812,4.24,4.1863,4.1263,4.0571,3.9837,3.899,3.8208,3.7621,3.7096,3.655,3.6165,3.5787,3.5691,3.591,3.6118,3.5999,3.5565,3.5059,3.4523,3.3581,3.3146,3.2997,3.1685,3.0667,3.0407,2.9858,2.9158,2.839,2.7851,2.7309,2.6771,2.6154,2.5692,2.5334,2.4799,2.4351,2.4068,2.3553,2.3141,2.2845,2.2462,2.2464,2.2762,2.21,2.1464,2.0972,2.0828,2.0715,2.04,2.0163,1.9776,1.9298,1.8971,1.871,1.8396,1.837,1.837,1.8344,1.837,1.8396,1.8448,1.8422,1.8396,1.8422,1.837,1.8422,1.8475,1.8985,1.9114,1.8833,1.8525,1.8233,1.7911,1.7565,1.739,1.7507,1.7492,1.7624,1.7741,1.7653,1.7633,1.7662,1.7622,1.7384,1.7372,1.7442,1.7466,1.7559,1.7559,1.7559,1.7597,1.7621,1.7667,1.7691,1.7504,1.7387,1.7349,1.7326,1.7302,1.7302,1.7302,1.727,1.727,1.7214,1.705,1.6909,1.6777,1.6683,4.5321,4.4995,4.4593,4.4091,4.3611,4.3387,4.2882,4.2192,4.1569,4.0898,4.0071,3.9544,3.8649,3.7684,3.7415,3.7019,3.6415,3.5952,3.5725,3.554,3.5373,3.5209,3.4902,3.4449,3.4112,3.3832,3.2932,3.2373,3.2319,3.1291,3.0599,3.0231,2.9467,2.8817,2.8293,2.7523,2.7029,2.666,2.6235,2.5694,2.5216,2.4835,2.4432,2.391,2.3342,2.2915,2.2565,2.1846,2.1416,2.1525,2.1362,2.0829,2.014,2.0031,1.9851,1.9449,1.9234,1.8919,1.8503,1.8307,1.8109,1.7845,1.7939,1.7819,1.7819,1.7819,1.7898,1.8016,1.795,1.7924,1.8043,1.795,1.7924,1.8122,1.8436,1.8596,1.8534,1.8452,1.8315,1.8184,1.8062,1.7999,1.7984,1.7974,1.8028,1.8057,1.7896,1.7653,1.7697,1.7536,1.7302,1.7302,1.7349,1.7326,1.7326,1.7326,1.7326,1.7349,1.7372,1.7434,1.7434,1.7387,1.7326,1.7302,1.7302,1.7302,1.7302,1.7302,1.7223,1.7129,1.7003,1.6862,1.6555,1.6366,1.6258,4.5698,4.5447,4.5121,4.4581,4.399,4.3792,4.3214,4.2336,4.1675,4.0911,4.0025,3.9326,3.8426,3.7335,3.713,3.6685,3.5982,3.5699,3.5468,3.5194,3.4685,3.4368,3.4111,3.371,3.3412,3.3181,3.2342,3.196,3.1733,3.092,3.0299,2.9811,2.9113,2.8435,2.7807,2.72,2.6554,2.6045,2.5706,2.5321,2.4878,2.4323,2.3888,2.344,2.295,2.2456,2.1957,2.131,2.0873,2.0696,2.0508,2.0162,1.9623,1.954,1.9359,1.9014,1.8907,1.8721,1.8453,1.8292,1.8131,1.8023,1.7983,1.7889,1.7822,1.7769,1.7835,1.782,1.7701,1.7714,1.7766,1.7687,1.7687,1.7806,1.7977,1.817,1.8339,1.8417,1.8376,1.834,1.8319,1.8306,1.8306,1.8306,1.8306,1.8233,1.7984,1.7828,1.7755,1.7492,1.7302,1.7302,1.7302,1.7302,1.7302,1.7302,1.7302,1.7302,1.7302,1.7302,1.7302,1.7302,1.7302,1.7302,1.7302,1.7279,1.7279,1.7246,1.7129,1.7003,1.6862,1.6626,1.6319,1.6106,1.5974,4.6024,4.5573,4.5573,4.5069,4.4356,4.4189,4.3507,4.2598,4.1837,4.099,4.0072,3.9201,3.8208,3.7105,3.6864,3.6238,3.5552,3.551,3.5169,3.4777,3.4163,3.377,3.3722,3.3283,3.2989,3.2657,3.1945,3.162,3.1321,3.0513,2.9847,2.9394,2.8797,2.8032,2.7308,2.6755,2.6069,2.543,2.5063,2.4744,2.4349,2.3727,2.326,2.2959,2.2352,2.1822,2.1334,2.0831,2.0472,2.0149,1.9872,1.9638,1.9333,1.925,1.9209,1.9126,1.8892,1.8782,1.8809,1.8562,1.8478,1.841,1.8424,1.8397,1.8116,1.8009,1.7903,1.7769,1.7635,1.7635,1.7635,1.7608,1.7608,1.7635,1.7661,1.7845,1.8171,1.8339,1.8363,1.844,1.8408,1.8388,1.8408,1.8408,1.8438,1.8668,1.835,1.8145,1.7955,1.7667,1.7463,1.7302,1.7302,1.7302,1.7302,1.7302,1.7302,1.7302,1.7302,1.7302,1.7302,1.7302,1.7302,1.7302,1.7302,1.727,1.7223,1.7129,1.7026,1.6791,1.6555,1.6343,1.613,1.5998,1.5855,4.625,4.6125,4.6095,4.5645,4.4814,4.4263,4.3391,4.2274,4.1373,4.0523,3.9588,3.9016,3.8227,3.7245,3.6855,3.6321,3.5862,3.5542,3.5201,3.482,3.4116,3.3649,3.3357,3.29,3.2594,3.2327,3.1732,3.1292,3.0953,3.0509,2.9843,2.9002,2.8536,2.7909,2.6982,2.6316,2.5858,2.5324,2.48,2.4362,2.4043,2.3594,2.3113,2.2642,2.1891,2.1394,2.1103,2.0425,1.9984,1.9887,1.9803,1.9551,1.9147,1.9022,1.8969,1.8848,1.8725,1.8628,1.8587,1.8599,1.8504,1.8557,1.8571,1.8464,1.8397,1.8169,1.8036,1.7876,1.7742,1.7648,1.7608,1.7608,1.7608,1.7608,1.7608,1.7635,1.7779,1.7974,1.8272,1.8596,1.8735,1.8835,1.9012,1.8994,1.8994,1.9034,1.88,1.8482,1.8189,1.7896,1.7638,1.7419,1.7317,1.7317,1.7302,1.7302,1.7302,1.7302,1.7302,1.7246,1.7246,1.7246,1.7246,1.727,1.7302,1.7246,1.7082,1.6988,1.6862,1.6555,1.6295,1.613,1.5987,1.5855,1.5761,4.6296,4.6271,4.612,4.5613,4.4852,4.4196,4.3293,4.2218,4.1231,4.0414,3.9716,3.9077,3.8326,3.7611,3.7188,3.6641,3.5807,3.5188,3.4828,3.455,3.4068,3.3791,3.3497,3.295,3.2494,3.2246,3.1515,3.1113,3.0819,3.0233,2.9565,2.888,2.8275,2.7486,2.6632,2.587,2.5194,2.4698,2.429,2.3878,2.3582,2.3242,2.2796,2.2274,2.1696,2.1328,2.0928,2.052,2.0171,1.9999,1.9861,1.96,1.9227,1.9132,1.9038,1.8973,1.8933,1.8933,1.8933,1.8905,1.8946,1.892,1.892,1.8811,1.8731,1.8503,1.8369,1.8209,1.7996,1.7769,1.7635,1.7608,1.7622,1.7608,1.7622,1.7608,1.7635,1.7859,1.8095,1.8477,1.8684,1.8893,1.9078,1.9142,1.9257,1.9114,1.8906,1.8628,1.8452,1.816,1.7823,1.758,1.739,1.7293,1.7317,1.7302,1.7302,1.7302,1.7302,1.72,1.7129,1.7129,1.7129,1.7153,1.7129,1.7012,1.6871,1.6767,1.6626,1.6366,1.6153,1.5974,1.5855,1.5808,1.5713,4.6271,4.618,4.5878,4.5337,4.4669,4.3934,4.3059,4.2079,4.1164,4.0343,3.9866,3.8979,3.8268,3.7809,3.7381,3.6573,3.5581,3.4759,3.4329,3.4247,3.3945,3.3748,3.3575,3.3113,3.2645,3.2232,3.1535,3.1142,3.0599,2.9867,2.9152,2.8636,2.7778,2.6925,2.6164,2.5459,2.4738,2.4205,2.3817,2.3548,2.3292,2.2962,2.2509,2.2072,2.1639,2.1355,2.0934,2.0637,2.0429,2.0214,1.997,1.976,1.9589,1.9415,1.9401,1.9403,1.9321,1.9294,1.9281,1.9334,1.9334,1.9401,1.9374,1.9267,1.9038,1.8863,1.8716,1.8516,1.829,1.8023,1.7796,1.7836,1.7809,1.7782,1.7716,1.7662,1.7702,1.7847,1.7938,1.8095,1.8398,1.8608,1.8776,1.8907,1.9089,1.919,1.8942,1.8738,1.8603,1.8452,1.812,1.7814,1.7638,1.7521,1.7507,1.7486,1.7466,1.7297,1.7316,1.7145,1.7013,1.6918,1.6918,1.6932,1.6885,1.6767,1.6612,1.6471,1.6343,1.6153,1.6011,1.5855,1.5784,1.5761,1.5618,4.612,4.5848,4.5519,4.5006,4.4268,4.3389,4.2379,4.1454,4.0637,3.9658,3.8636,3.8337,3.7842,3.7312,3.6767,3.6062,3.524,3.4432,3.3985,3.3922,3.3639,3.3481,3.3379,3.3068,3.2763,3.259,3.1853,3.1023,3.0322,2.9507,2.873,2.7861,2.7111,2.6305,2.565,2.5067,2.4604,2.4055,2.3703,2.3458,2.335,2.3073,2.2702,2.2241,2.1701,2.131,2.1026,2.0588,2.0227,2.0197,2.0157,2.0104,1.9987,1.9682,1.9481,1.9428,1.9441,1.9441,1.9401,1.9401,1.9401,1.9401,1.9401,1.9401,1.9267,1.9078,1.8931,1.8798,1.8597,1.8384,1.8357,1.8277,1.8303,1.8263,1.8103,1.7942,1.7929,1.7862,1.7847,1.7993,1.815,1.8279,1.8463,1.8646,1.8776,1.8881,1.8832,1.8697,1.8629,1.8575,1.8436,1.8169,1.7916,1.7814,1.7741,1.7741,1.7691,1.7389,1.7279,1.7036,1.6894,1.6701,1.6659,1.6686,1.6644,1.6541,1.6376,1.6211,1.6092,1.5974,1.5855,1.5737,1.5666,1.5594,1.538,4.5732,4.5276,4.4915,4.4299,4.3428,4.2443,4.1572,4.0702,3.9691,3.8868,3.8237,3.7803,3.7448,3.7085,3.6877,3.6208,3.5127,3.4104,3.3709,3.3576,3.3292,3.3153,3.307,3.2785,3.2435,3.2053,3.1463,3.0895,3.0148,2.9084,2.8272,2.756,2.6639,2.5808,2.5264,2.4642,2.4255,2.3805,2.3556,2.3355,2.3324,2.3012,2.2606,2.2062,2.171,2.1378,2.1087,2.0913,2.0664,2.0668,2.0548,2.0481,2.0334,2.0094,1.9746,1.9639,1.9599,1.9548,1.9441,1.9401,1.9401,1.9401,1.9401,1.9401,1.9374,1.9254,1.9078,1.8931,1.8851,1.8651,1.849,1.8517,1.849,1.8477,1.8329,1.8263,1.8209,1.8103,1.801,1.7969,1.8047,1.8111,1.8174,1.8331,1.8448,1.8553,1.862,1.861,1.8623,1.8534,1.8455,1.8229,1.7941,1.7855,1.7758,1.7743,1.7707,1.7436,1.7162,1.6943,1.6825,1.6666,1.6536,1.6474,1.6392,1.6255,1.6116,1.595,1.5879,1.5808,1.5666,1.5571,1.5499,1.538,1.5118,4.5306,4.4669,4.4268,4.3521,4.2538,4.1518,4.0647,3.9855,3.8769,3.8104,3.777,3.728,3.6944,3.6816,3.6509,3.5951,3.4954,3.3794,3.3362,3.3228,3.2943,3.2804,3.2594,3.2307,3.1859,3.123,3.071,3.0409,2.98,2.8619,2.783,2.7093,2.6088,2.5455,2.5108,2.4358,2.3816,2.3506,2.3276,2.3074,2.2918,2.2574,2.2167,2.1646,2.1538,2.1348,2.1132,2.1042,2.1029,2.0989,2.0882,2.0793,2.0722,2.0504,2.025,2.0027,1.9933,1.976,1.9669,1.9602,1.9629,1.9548,1.9495,1.9468,1.9388,1.9348,1.9281,1.9065,1.897,1.8945,1.8784,1.8719,1.8704,1.8691,1.8595,1.8459,1.8377,1.8229,1.7961,1.7926,1.7943,1.7928,1.794,1.7977,1.8108,1.8279,1.8331,1.8448,1.8426,1.8367,1.828,1.8102,1.7908,1.7809,1.7731,1.7661,1.7551,1.7326,1.7018,1.6739,1.6685,1.667,1.6488,1.6219,1.6066,1.5923,1.5806,1.5689,1.5642,1.5547,1.5452,1.5285,1.5046,1.4831,1.4592,4.497,4.4299,4.3678,4.2854,4.1806,4.0831,3.9833,3.888,3.8337,3.7603,3.6856,3.66,3.6398,3.6018,3.5355,3.474,3.4141,3.3488,3.2994,3.2848,3.2549,3.2243,3.1987,3.1667,3.1069,3.0422,2.9822,2.9528,2.9045,2.793,2.7214,2.6696,2.586,2.5077,2.487,2.428,2.3909,2.3627,2.3267,2.2979,2.2634,2.2087,2.174,2.152,2.133,2.1172,2.1109,2.1109,2.1109,2.1096,2.1069,2.1042,2.1056,2.1011,2.0855,2.0588,2.0361,2.013,2.0064,1.9997,1.9947,1.9786,1.9762,1.9642,1.9481,1.9401,1.9374,1.9374,1.9321,1.9223,1.9143,1.9212,1.9267,1.9017,1.8687,1.8494,1.8385,1.8277,1.8009,1.7852,1.7851,1.774,1.7676,1.7728,1.7766,1.7938,1.8069,1.8188,1.8199,1.8076,1.7995,1.7819,1.7637,1.7555,1.7463,1.7414,1.731,1.7139,1.6869,1.6548,1.6484,1.6432,1.615,1.5921,1.5753,1.557,1.5367,1.5314,1.5335,1.519,1.4975,1.4712,1.4448,1.422,1.3956,4.3888,4.3389,4.2728,4.187,4.0874,3.9833,3.9045,3.837,3.7549,3.6958,3.6459,3.6026,3.5661,3.5195,3.459,3.4161,3.3747,3.3155,3.2676,3.2307,3.1987,3.1635,3.1249,3.0764,3.0163,2.9659,2.9069,2.8461,2.8015,2.7603,2.7028,2.6569,2.5695,2.5086,2.4779,2.4366,2.4072,2.3779,2.3383,2.286,2.2328,2.1868,2.152,2.133,2.1172,2.1109,2.1109,2.1109,2.1109,2.1109,2.1109,2.1109,2.1109,2.1096,2.1029,2.0949,2.0815,2.0544,2.025,2.0224,2.0144,2.001,1.9893,1.9666,1.9481,1.9401,1.9401,1.9388,1.9388,1.933,1.9156,1.9113,1.8968,1.8771,1.8506,1.8423,1.8272,1.8234,1.81,1.7903,1.7707,1.7552,1.7446,1.7462,1.7563,1.7729,1.7796,1.7836,1.7795,1.7648,1.7568,1.7514,1.7344,1.7187,1.7095,1.7029,1.6951,1.6794,1.6585,1.635,1.6247,1.6093,1.5775,1.5599,1.5502,1.5282,1.4985,1.4908,1.4918,1.4689,1.4424,1.4076,1.3715,1.3461,1.3219,4.2696,4.2252,4.1751,4.0906,3.9833,3.8967,3.8188,3.7519,3.6743,3.6247,3.5941,3.5465,3.4994,3.4557,3.4161,3.3785,3.3386,3.281,3.2313,3.1795,3.123,3.0797,3.0375,2.9822,2.9299,2.8823,2.8296,2.7666,2.7134,2.6769,2.6568,2.6383,2.5538,2.5133,2.493,2.4543,2.4174,2.3786,2.321,2.265,2.2185,2.1815,2.1457,2.1199,2.1109,2.1109,2.1109,2.1109,2.1109,2.1109,2.1109,2.1109,2.1109,2.1096,2.1096,2.1056,2.1015,2.0864,2.061,2.049,2.0384,2.0224,1.9957,1.9679,1.9455,1.9372,1.9272,1.9243,1.9098,1.8981,1.8852,1.8706,1.8519,1.8327,1.8098,1.8081,1.7994,1.7703,1.7521,1.7319,1.7194,1.7248,1.7175,1.7195,1.7331,1.7524,1.7574,1.7524,1.7381,1.7224,1.7133,1.7081,1.7015,1.6829,1.6697,1.6617,1.6551,1.6338,1.6125,1.59,1.5668,1.5512,1.5282,1.5197,1.5103,1.4789,1.4373,1.4432,1.4437,1.4027,1.3606,1.3281,1.2966,1.2662,1.2419,4.1518,4.0938,4.0874,4.0018,3.8772,3.8404,3.7391,3.6243,3.5991,3.5507,3.4962,3.4746,3.4512,3.4115,3.3734,3.3348,3.2893,3.1942,3.1506,3.1055,3.044,2.9822,2.9364,2.8905,2.8378,2.76,2.73,2.6867,2.6298,2.6063,2.5828,2.5611,2.5301,2.5143,2.4973,2.4671,2.4126,2.3671,2.3009,2.2549,2.2138,2.18,2.144,2.1208,2.1122,2.1109,2.1109,2.1109,2.1109,2.1109,2.1109,2.1109,2.1109,2.1109,2.1109,2.1109,2.1109,2.0984,2.0891,2.0851,2.0824,2.0561,2.0144,1.9657,1.9304,1.9053,1.8968,1.8881,1.8677,1.8473,1.8327,1.8169,1.7964,1.7642,1.7379,1.7173,1.7067,1.685,1.6668,1.6621,1.6633,1.664,1.6646,1.6623,1.6951,1.7151,1.7257,1.7211,1.6997,1.6832,1.672,1.6657,1.6644,1.6497,1.6271,1.6084,1.5805,1.5512,1.5271,1.503,1.4804,1.4658,1.4513,1.4378,1.4188,1.3989,1.3769,1.3569,1.335,1.3111,1.2759,1.2335,1.1995,1.1678,1.1516,4.0647,3.9779,3.9086,3.8469,3.788,3.7141,3.6316,3.556,3.5271,3.4871,3.4316,3.4297,3.3985,3.3501,3.3225,3.2701,3.1987,3.141,3.0764,3.0115,2.9463,2.8888,2.8444,2.7948,2.75,2.6934,2.6633,2.6313,2.5843,2.5626,2.5472,2.5303,2.5119,2.5119,2.4979,2.4651,2.4089,2.354,2.3006,2.2642,2.2256,2.1827,2.1529,2.1435,2.1162,2.1122,2.1109,2.1109,2.1109,2.1109,2.1109,2.1109,2.1109,2.1109,2.1109,2.1109,2.1109,2.1077,2.1077,2.1019,2.0881,2.0402,2.0003,1.9588,1.9122,1.8748,1.8499,1.8327,1.8177,1.7951,1.755,1.742,1.7232,1.6879,1.6608,1.6376,1.6168,1.5964,1.5842,1.5793,1.5879,1.5972,1.5972,1.5983,1.6385,1.6784,1.6859,1.6833,1.6566,1.6305,1.6157,1.5982,1.5931,1.5684,1.5416,1.5202,1.5003,1.4708,1.4412,1.4196,1.3954,1.3603,1.3457,1.3372,1.3288,1.3069,1.2806,1.2516,1.2372,1.2328,1.1865,1.1296,1.0978,1.0699,1.0634,3.9585,3.8573,3.7348,3.6898,3.6901,3.6109,3.5415,3.4929,3.4662,3.4277,3.3887,3.3771,3.3475,3.2937,3.2517,3.207,3.1281,3.0635,2.9839,2.9135,2.851,2.7981,2.7484,2.7067,2.67,2.6365,2.613,2.5775,2.5472,2.5457,2.5221,2.5018,2.4916,2.4883,2.4781,2.4394,2.3884,2.3474,2.3093,2.2788,2.2398,2.2104,2.1703,2.1622,2.1381,2.1203,2.1149,2.1109,2.1109,2.1109,2.1109,2.1109,2.1109,2.1109,2.1109,2.1109,2.1077,2.1046,2.0982,2.0893,2.0724,2.0291,1.9781,1.9333,1.8867,1.8414,1.8103,1.7905,1.7702,1.7369,1.6881,1.6751,1.6534,1.6216,1.5793,1.553,1.5346,1.5195,1.5063,1.4981,1.502,1.4967,1.4997,1.5026,1.5545,1.5933,1.6063,1.6046,1.5891,1.5651,1.5429,1.5276,1.5131,1.4781,1.4434,1.4364,1.4294,1.39,1.3613,1.3386,1.3115,1.2799,1.2555,1.2508,1.2362,1.2135,1.1845,1.1558,1.1591,1.1684,1.1038,1.0291,0.9986,0.9764,0.9789,3.8216,3.7372,3.5985,3.5599,3.5858,3.5494,3.485,3.4218,3.4114,3.3835,3.344,3.3147,3.2925,3.2594,3.1923,3.1281,3.0602,2.9757,2.8905,2.8263,2.76,2.71,2.6733,2.6365,2.6063,2.5727,2.5592,2.5457,2.5168,2.5119,2.4883,2.4611,2.4495,2.4442,2.4394,2.3782,2.3441,2.3359,2.3038,2.274,2.2498,2.2352,2.2031,2.1743,2.1542,2.1395,2.1162,2.1109,2.1109,2.1109,2.1109,2.1109,2.1109,2.1109,2.1109,2.1109,2.1077,2.0919,2.0634,2.0615,2.0346,2.0026,1.9462,1.8958,1.8588,1.8123,1.7563,1.7287,1.702,1.6778,1.6453,1.6144,1.5834,1.5494,1.5052,1.4723,1.4571,1.4409,1.4311,1.4263,1.3957,1.3783,1.3873,1.4082,1.4639,1.5011,1.5216,1.5243,1.5192,1.5005,1.4755,1.4549,1.4359,1.404,1.3747,1.3716,1.3539,1.3145,1.2846,1.2684,1.2437,1.2173,1.1919,1.1728,1.1528,1.1329,1.0952,1.0561,1.0589,1.0535,0.9962,0.935,0.9046,0.8949,0.9072,3.7411,3.6582,3.5348,3.4796,3.47,3.455,3.4171,3.3691,3.3601,3.3428,3.3089,3.2931,3.2466,3.1891,3.1313,3.062,2.9724,2.8757,2.7915,2.75,2.68,2.6331,2.6029,2.5861,2.5607,2.5371,2.5255,2.5255,2.51,2.4883,2.4713,2.4476,2.402,2.3782,2.3713,2.3441,2.3304,2.3099,2.2948,2.2827,2.2686,2.2512,2.2245,2.189,2.1703,2.1462,2.1162,2.1136,2.1109,2.1109,2.1109,2.1109,2.1077,2.1077,2.1077,2.1014,2.0919,2.0475,2.0062,1.9775,1.9591,1.9327,1.9034,1.8399,1.775,1.7329,1.687,1.6509,1.6231,1.5971,1.5691,1.5328,1.4996,1.4706,1.4323,1.3988,1.3764,1.3662,1.3594,1.3549,1.3388,1.3159,1.3147,1.3243,1.3714,1.4072,1.4282,1.4524,1.4539,1.4303,1.4056,1.382,1.3607,1.3285,1.3058,1.3092,1.2876,1.2497,1.2238,1.2073,1.1807,1.1534,1.1381,1.119,1.0888,1.0551,1.0276,0.9969,0.9551,0.9233,0.9046,0.8941,0.8827,0.8723,0.8676,3.6406,3.5618,3.46,3.4071,3.388,3.3848,3.3672,3.3406,3.3386,3.3197,3.2912,3.2657,3.2083,3.1281,3.0538,2.9757,2.8757,2.7948,2.7051,2.67,2.6213,2.5809,2.5558,2.5423,2.5322,2.5119,2.5052,2.5052,2.4849,2.4645,2.4326,2.3986,2.3543,2.3338,2.3236,2.3167,2.3133,2.2962,2.2893,2.2893,2.2813,2.2693,2.2445,2.2171,2.1903,2.1609,2.1336,2.1189,2.1109,2.1109,2.1109,2.1109,2.1077,2.0982,2.0951,2.0824,2.0316,1.9839,1.9348,1.8752,1.8483,1.8107,1.8097,1.771,1.6976,1.6562,1.616,1.5781,1.5446,1.5235,1.5013,1.4623,1.436,1.4075,1.3861,1.352,1.3384,1.332,1.3115,1.3064,1.2952,1.2732,1.2543,1.2548,1.2775,1.3054,1.3315,1.358,1.3849,1.3624,1.342,1.3229,1.3039,1.2792,1.2602,1.2501,1.2239,1.1827,1.1642,1.1552,1.1162,1.0898,1.0769,1.0622,1.0264,0.9954,0.9739,0.9426,0.9184,0.8978,0.8818,0.8718,0.8639,0.8564,0.8489,3.5203,3.4497,3.3721,3.3437,3.3406,3.3445,3.3406,3.3386,3.3355,3.3165,3.2835,3.2179,3.1506,3.0732,2.9774,2.8774,2.7849,2.73,2.6599,2.5962,2.5659,2.539,2.5221,2.5153,2.5086,2.5086,2.4984,2.4781,2.4544,2.4292,2.3952,2.3509,2.3167,2.303,2.2996,2.2962,2.2962,2.2893,2.2893,2.2893,2.2867,2.2853,2.2619,2.2352,2.2058,2.181,2.1542,2.1301,2.1149,2.1109,2.1109,2.1109,2.0982,2.0761,2.0666,2.0284,1.9584,1.906,1.8483,1.7852,1.7206,1.6818,1.6796,1.6667,1.6355,1.5798,1.5435,1.5113,1.4812,1.4609,1.4377,1.4172,1.3926,1.3739,1.3552,1.338,1.3265,1.3085,1.2799,1.2676,1.2561,1.2388,1.2227,1.2203,1.2293,1.2363,1.2642,1.2715,1.2922,1.2982,1.28,1.2681,1.2475,1.2334,1.2203,1.2061,1.1818,1.1487,1.1224,1.1069,1.0643,1.0401,1.035,1.0176,0.971,0.9417,0.9313,0.9154,0.8948,0.8805,0.8757,0.8646,0.8587,0.8506,0.8401,3.4588,3.4069,3.3603,3.3386,3.3386,3.3386,3.3386,3.3355,3.3165,3.2867,3.2517,3.1827,3.0991,3.005,2.9004,2.8114,2.7284,2.6532,2.6029,2.5592,2.5322,2.5187,2.5086,2.5018,2.4916,2.4747,2.4611,2.4461,2.4136,2.3918,2.3577,2.3099,2.2962,2.2893,2.2893,2.2893,2.2893,2.2893,2.2893,2.2893,2.2893,2.2893,2.2686,2.2458,2.2151,2.1903,2.1622,2.1301,2.1136,2.1109,2.1109,2.1077,2.1077,2.0761,2.0443,1.9552,1.8976,1.8419,1.7582,1.7044,1.6364,1.5616,1.5518,1.5453,1.5257,1.4996,1.467,1.4441,1.4202,1.4006,1.3884,1.372,1.3555,1.3433,1.3268,1.3128,1.3013,1.2955,1.271,1.267,1.2556,1.2361,1.2181,1.2026,1.212,1.2007,1.201,1.207,1.216,1.2272,1.2346,1.223,1.2047,1.1959,1.1822,1.1703,1.1465,1.1195,1.0957,1.072,1.0482,1.0255,1.0089,0.9831,0.9539,0.9231,0.9002,0.8906,0.8919,0.8892,0.8845,0.8676,0.8533,0.8498,0.843,3.4096,3.369,3.3481,3.3386,3.3386,3.3386,3.3386,3.3323,3.3038,3.2626,3.2115,3.1295,3.0358,2.9347,2.8312,2.74,2.67,2.6063,2.5558,2.5322,2.5052,2.4916,2.4849,2.4747,2.451,2.434,2.4224,2.4122,2.3761,2.3406,2.3065,2.2962,2.2893,2.2893,2.2893,2.2893,2.2893,2.2893,2.2893,2.2893,2.2893,2.2893,2.2726,2.2552,2.2231,2.1943,2.1716,2.1363,2.1136,2.1109,2.1109,2.1014,2.0792,2.0348,1.9616,1.8784,1.8162,1.7389,1.6548,1.6071,1.5388,1.4768,1.4408,1.4319,1.4277,1.4113,1.3949,1.3752,1.3588,1.3457,1.3358,1.3293,1.3235,1.3169,1.3005,1.2832,1.2799,1.2799,1.2783,1.2791,1.2661,1.2515,1.2336,1.2119,1.1981,1.1953,1.1855,1.1768,1.1859,1.1911,1.201,1.1998,1.1788,1.1599,1.1488,1.1367,1.1139,1.092,1.0681,1.0458,1.0244,1.0062,0.9866,0.9657,0.9465,0.9241,0.9041,0.9007,0.9028,0.8967,0.8926,0.8804,0.8683,0.8635,0.8567,3.369,3.3386,3.3386,3.3347,3.3328,3.3308,3.3289,3.3226,3.2801,3.2441,3.179,3.0728,2.9772,2.8855,2.775,2.69,2.6264,2.5727,2.5288,2.5052,2.4781,2.4578,2.4408,2.4156,2.4102,2.4034,2.3898,2.3747,2.3406,2.3133,2.2962,2.2893,2.2893,2.2893,2.2893,2.2791,2.2722,2.2722,2.2688,2.2688,2.2859,2.2893,2.288,2.2773,2.2398,2.1984,2.185,2.151,2.1109,2.1109,2.1014,2.0887,2.0221,1.9647,1.8804,1.7905,1.7227,1.6418,1.5639,1.5117,1.4628,1.4048,1.3588,1.3564,1.3564,1.3498,1.3367,1.3325,1.3194,1.3128,1.3062,1.303,1.3005,1.2972,1.2873,1.2799,1.2799,1.2799,1.2799,1.2775,1.2751,1.2572,1.2474,1.2248,1.1961,1.195,1.176,1.1573,1.1458,1.1518,1.1557,1.1647,1.1466,1.1246,1.1156,1.1035,1.0846,1.0642,1.04,1.0244,1.0063,0.9836,0.9601,0.9526,0.948,0.9378,0.9232,0.9191,0.913,0.9035,0.8967,0.8933,0.8852,0.8757,0.871,3.3481,3.3386,3.3386,3.3211,3.2969,3.2949,3.2599,3.2111,3.1753,3.1722,3.1638,3.0534,2.9478,2.8609,2.7351,2.6499,2.6078,2.5506,2.5052,2.4781,2.451,2.4258,2.4136,2.3952,2.3795,2.3611,2.3475,2.3372,2.3099,2.2928,2.2893,2.2893,2.2893,2.2893,2.2791,2.2654,2.2516,2.2448,2.231,2.2448,2.2722,2.2859,2.288,2.2719,2.2385,2.205,2.1804,2.1411,2.1157,2.1077,2.0824,2.0316,1.9488,1.8964,1.8066,1.7023,1.6224,1.5476,1.4856,1.4333,1.3982,1.3687,1.3367,1.3202,1.3071,1.2972,1.2931,1.2898,1.2865,1.2832,1.2799,1.2799,1.2799,1.2799,1.2799,1.2799,1.2799,1.2799,1.2799,1.2775,1.275,1.2653,1.2564,1.2338,1.205,1.1781,1.153,1.1307,1.1065,1.1005,1.0974,1.1035,1.1035,1.0883,1.0823,1.0694,1.0482,1.0361,1.0142,1.0,0.9882,0.9787,0.968,0.9612,0.9537,0.9456,0.9388,0.934,0.9266,0.9123,0.9055,0.9028,0.8933,0.8838,0.8838,3.2871,3.2871,3.2871,3.2734,3.2539,3.255,3.2199,3.17,3.1325,3.1077,3.0796,2.9795,2.8932,2.8196,2.6985,2.6264,2.5843,2.5337,2.4916,2.4611,2.4306,2.4034,2.3864,2.3611,2.3406,2.3201,2.3167,2.3065,2.2893,2.2893,2.2893,2.2893,2.2893,2.2791,2.2654,2.2379,2.2207,2.207,2.1829,2.2001,2.2413,2.2516,2.2756,2.2631,2.2378,2.2058,2.1725,2.136,2.0967,2.057,2.0125,1.9424,1.8547,1.7808,1.6958,1.6116,1.5378,1.466,1.4113,1.372,1.349,1.3268,1.3137,1.2939,1.2939,1.2832,1.2832,1.2832,1.2832,1.2799,1.2799,1.2799,1.2799,1.2799,1.2799,1.2799,1.2799,1.2799,1.2799,1.2791,1.2742,1.266,1.2507,1.2234,1.1917,1.1533,1.1287,1.0989,1.0731,1.0573,1.0513,1.0482,1.055,1.0581,1.052,1.0338,1.0126,1.0004,0.9943,0.9899,0.9825,0.9808,0.9758,0.969,0.9629,0.9618,0.9557,0.9496,0.9362,0.9199,0.9152,0.9124,0.9028,0.8926,0.8906,3.2237,3.2198,3.2218,3.2159,3.212,3.212,3.1819,3.1427,3.1154,3.0469,2.9609,2.8887,2.8189,2.7439,2.6633,2.6063,2.5558,2.5119,2.4747,2.4408,2.4068,2.3727,2.3372,2.3099,2.303,2.2962,2.2962,2.2928,2.2893,2.2893,2.2893,2.2893,2.2825,2.2688,2.2413,2.2173,2.2035,2.1656,2.1427,2.1496,2.1725,2.2035,2.234,2.2394,2.2224,2.1905,2.1548,2.1142,2.0591,1.9966,1.9252,1.8355,1.7486,1.658,1.5791,1.4987,1.4333,1.372,1.3293,1.3161,1.2972,1.284,1.2766,1.2766,1.2766,1.2799,1.2799,1.2799,1.2799,1.2799,1.2799,1.2799,1.2799,1.2799,1.2799,1.2799,1.2799,1.2799,1.2799,1.2766,1.2667,1.2601,1.2366,1.2101,1.1736,1.1354,1.1009,1.0692,1.0409,1.0299,1.0179,1.0179,1.0179,1.0186,1.0217,1.0126,0.9913,0.9883,0.9852,0.9822,0.9792,0.9792,0.9792,0.9785,0.9737,0.969,0.9693,0.9646,0.9485,0.933,0.9322,0.9301,0.9111,0.9015,0.8946,3.2198,3.2198,3.2198,3.1973,3.168,3.1641,3.1118,3.0325,3.0206,2.9649,2.8847,2.812,2.7569,2.7246,2.6473,2.5816,2.5241,2.4863,2.4447,2.4068,2.3678,2.3345,2.3099,2.2935,2.2893,2.2893,2.2893,2.2893,2.2893,2.2893,2.2893,2.2893,2.2846,2.264,2.2284,2.1962,2.1465,2.097,2.0534,2.0396,2.0674,2.1052,2.1675,2.1594,2.1312,2.1042,2.074,2.0413,2.0081,1.9475,1.8407,1.7313,1.6278,1.5271,1.4455,1.3809,1.3194,1.27,1.2371,1.2437,1.2338,1.2536,1.2568,1.2741,1.2774,1.2799,1.2799,1.2799,1.2799,1.2799,1.2799,1.2799,1.2799,1.2799,1.2799,1.2799,1.2799,1.2799,1.2799,1.2667,1.2536,1.2404,1.219,1.1853,1.1456,1.1108,1.083,1.0492,1.0194,1.0026,0.9927,0.9913,0.9913,0.9852,0.9883,0.9943,0.9822,0.9822,0.9792,0.9792,0.9792,0.9792,0.9792,0.9792,0.9792,0.9758,0.9737,0.9741,0.9652,0.9539,0.953,0.9476,0.9245,0.911,0.9096]},{"header":{"parameterUnit":"m.s-1","parameterCategory":1,"la1":31.0,"la2":29.5877,"lo1":-88.7671,"lo2":-86.6584,"dy":0.0162,"dx":0.0185,"nx":115,"ny":88,"refTime":"2023-11-10T06:00:00:Z","depth":0,"parameterNumber":3,"parameterNumberName":"V-component_of_WINDS"},"data":[0.0,0.0,0.0,0.0,0.0,0.0,0.0,0.0,0.0,0.0,0.0,0.0,0.0,0.0,0.0,0.0,0.0,0.0,0.0,0.0,0.0,0.0,0.0,0.0,0.0,0.0,0.0,0.0,0.0,0.0,0.0,0.0,0.0,0.0,0.0,0.0,0.0,0.0,0.0,0.0,0.0,0.0,0.0,0.0,0.0,0.0,0.0,0.0,0.0,0.0,0.0,0.0,0.0,0.0,0.0,0.0,0.0,0.0,0.0,0.0,0.0,0.0,0.0,0.0,0.0,0.0,0.0,0.0,0.0,0.0,0.0,0.0,0.0,0.0,0.0,0.0,0.0,0.0,0.0,0.0,0.0,0.0,0.0,0.0,0.0,0.0,0.0,0.0,0.0,0.0,0.0,0.0,0.0,0.0,0.0,0.0,0.0,0.0,0.0,0.0,0.0,0.0,0.0,0.0,0.0,0.0,0.0,0.0,0.0,0.0,0.0,0.0,0.0,0.0,0.0,0.0,0.0,0.0,0.0,0.0,0.0,0.0,0.0,0.0,0.0,0.0,0.0,0.0,0.0,0.0,0.0,0.0,0.0,0.0,0.0,0.0,0.0,0.0,0.0,0.0,0.0,0.0,0.0,0.0,0.0,0.0,0.0,0.0,0.0,0.0,0.0,0.0,0.0,0.0,0.0,0.0,0.0,0.0,0.0,0.0,0.0,0.0,0.0,0.0,0.0,0.0,0.0,0.0,0.0,0.0,0.0,0.0,0.0,0.0,0.0,0.0,0.0,0.0,0.0,0.0,0.0,0.0,0.0,0.0,0.0,0.0,0.0,0.0,0.0,0.0,0.0,0.0,0.0,0.0,0.0,0.0,0.0,0.0,0.0,0.0,0.0,0.0,0.0,0.0,0.0,0.0,0.0,0.0,0.0,0.0,0.0,0.0,0.0,0.0,0.0,0.0,0.0,0.0,0.0,0.0,0.0,0.0,0.0,0.0,0.0,0.0,0.0,0.0,0.0,0.0,0.0,0.0,0.0,0.0,0.0,0.0,0.0,0.0,0.0,0.0,0.0,0.0,0.0,0.0,0.0,0.0,0.0,0.0,0.0,0.0,0.0,0.0,0.0,0.0,0.0,0.0,0.0,0.0,0.0,0.0,0.0,0.0,0.0,0.0,0.0,0.0,0.0,0.0,0.0,0.0,0.0,0.0,0.0,0.0,0.0,0.0,0.0,0.0,0.0,0.0,0.0,0.0,0.0,0.0,0.0,0.0,0.0,0.0,0.0,0.0,0.0,0.0,0.0,0.0,0.0,0.0,0.0,0.0,0.0,0.0,0.0,0.0,0.0,0.0,0.0,0.0,0.0,0.0,0.0,0.0,0.0,0.0,0.0,0.0,0.0,0.0,0.0,0.0,0.0,0.0,0.0,0.0,0.0,0.0,0.0,0.0,0.0,0.0,0.0,0.0,0.0,0.0,0.0,0.0,0.0,0.0,0.0,0.0,0.0,0.0,0.0,0.0,0.0,0.0,0.0,0.0,0.0,0.0,0.0,0.0,0.0,0.0,0.0,0.0,0.0,0.0,0.0,0.0,0.0,0.0,0.0,0.0,0.0,0.0,0.0,0.0,0.0,0.0,0.0,0.0,0.0,0.0,0.0,0.0,0.0,0.0,0.0,0.0,0.0,0.0,0.0,0.0,0.0,0.0,0.0,0.0,0.0,0.0,0.0,0.0,0.0,0.0,0.0,0.0,0.0,0.0,0.0,0.0,0.0,0.0,0.0,0.0,0.0,0.0,0.0,0.0,0.0,0.0,0.0,0.0,0.0,0.0,0.0,0.0,0.0,0.0,0.0,0.0,0.0,0.0,0.0,0.0,0.0,0.0,0.0,0.0,0.0,0.0,0.0,0.0,0.0,0.0,0.0,0.0,0.0,0.0,0.0,0.0,0.0,0.0,0.0,0.0,0.0,0.0,0.0,0.0,0.0,0.0,0.0,0.0,0.0,0.0,0.0,0.0,0.0,0.0,0.0,0.0,0.0,0.0,0.0,0.0,0.0,0.0,0.0,0.0,0.0,0.0,0.0,0.0,0.0,0.0,0.0,0.0,0.0,0.0,0.0,0.0,0.0,0.0,0.0,0.0,0.0,0.0,0.0,0.0,0.0,0.0,0.0,0.0,0.0,0.0,0.0,0.0,0.0,0.0,0.0,0.0,0.0,0.0,0.0,0.0,0.0,0.0,0.0,0.0,0.0,0.0,0.0,0.0,0.0,0.0,0.0,0.0,0.0,0.0,0.0,0.0,0.0,0.0,0.0,0.0,0.0,0.0,0.0,0.0,0.0,0.0,0.0,0.0,0.0,0.0,0.0,0.0,0.0,0.0,0.0,0.0,0.0,0.0,0.0,0.0,0.0,0.0,0.0,0.0,0.0,0.0,0.0,0.0,0.0,0.0,0.0,0.0,0.0,0.0,0.0,0.0,0.0,0.0,0.0,0.0,0.0,0.0,0.0,0.0,0.0,0.0,0.0,0.0,0.0,0.0,0.0,0.0,0.0,0.0,0.0,0.0,0.0,0.0,0.0,0.0,0.0,0.0,0.0,0.0,0.0,0.0,0.0,0.0,0.0,0.0,0.0,0.0,0.0,0.0,0.0,0.0,0.0,0.0,0.0,0.0,0.0,0.0,0.0,0.0,0.0,0.0,0.0,0.0,0.0,0.0,0.0,0.0,0.0,0.0,0.0,0.0,0.0,0.0,0.0,0.0,0.0,0.0,0.0,0.0,0.0,0.0,0.0,0.0,0.0,0.0,0.0,0.0,0.0,0.0,0.0,0.0,0.0,0.0,0.0,0.0,0.0,0.0,0.0,0.0,0.0,0.0,0.0,0.0,0.0,0.0,0.0,0.0,0.0,0.0,0.0,0.0,0.0,0.0,0.0,0.0,0.0,0.0,0.0,0.0,0.0,0.0,0.0,0.0,0.0,0.0,0.0,0.0,0.0,0.0,0.0,0.0,0.0,0.0,0.0,0.0,0.0,0.0,0.0,0.0,0.0,0.0,0.0,0.0,0.0,0.0,0.0,0.0,0.0,0.0,0.0,0.0,0.0,0.0,0.0,0.0,0.0,0.0,0.0,0.0,0.0,0.0,0.0,0.0,0.0,0.0,0.0,0.0,0.0,0.0,0.0,0.0,0.0,0.0,0.0,0.0,0.0,0.0,0.0,0.0,0.0,0.0,0.0,0.0,0.0,0.0,0.0,0.0,0.0,0.0,0.0,0.0,0.0,0.0,0.0,0.0,0.0,0.0,0.0,0.0,0.0,0.0,0.0,0.0,0.0,0.0,0.0,0.0,0.0,0.0,0.0,0.0,0.0,0.0,0.0,0.0,0.0,0.0,0.0,0.0,0.0,0.0,0.0,0.0,0.0,0.0,0.0,0.0,0.0,0.0,0.0,0.0,0.0,0.0,0.0,0.0,0.0,0.0,0.0,0.0,0.0,0.0,0.0,0.0,0.0,0.0,0.0,0.0,0.0,0.0,0.0,0.0,0.0,0.0,0.0,0.0,0.0,0.0,0.0,0.0,0.0,0.0,0.0,0.0,0.0,0.0,0.0,0.0,0.0,0.0,0.0,0.0,0.0,0.0,0.0,0.0,0.0,0.0,0.0,0.0,0.0,0.0,0.0,0.0,0.0,0.0,0.0,0.0,0.0,0.0,0.0,0.0,0.0,0.0,0.0,0.0,0.0,0.0,0.0,0.0,0.0,0.0,0.0,0.0,0.0,0.0,0.0,0.0,0.0,0.0,0.0,0.0,0.0,0.0,0.0,0.0,0.0,0.0,0.0,0.0,0.0,0.0,0.0,0.0,0.0,0.0,0.0,0.0,0.0,0.0,0.0,0.0,0.0,0.0,0.0,0.0,0.0,0.0,0.0,0.0,0.0,0.0,0.0,0.0,0.0,0.0,0.0,0.0,0.0,0.0,0.0,0.0,0.0,0.0,0.0,0.0,0.0,0.0,0.0,0.0,0.0,0.0,0.0,0.0,0.0,0.0,0.0,0.0,0.0,0.0,0.0,0.0,0.0,0.0,0.0,0.0,0.0,0.0,0.0,0.0,0.0,0.0,0.0,0.0,0.0,0.0,0.0,0.0,0.0,0.0,0.0,0.0,0.0,0.0,0.0,0.0,0.0,0.0,0.0,0.0,0.0,0.0,0.0,0.0,0.0,0.0,0.0,0.0,0.0,0.0,0.0,0.0,0.0,0.0,0.0,0.0,0.0,0.0,0.0,0.0,2.1186,0.0,0.0,0.0,0.0,0.0,0.0,0.0,0.0,0.0,0.0,0.0,0.0,0.0,0.0,0.0,0.0,0.0,0.0,0.0,0.0,0.0,0.0,0.0,0.0,0.0,0.0,0.0,0.0,0.0,0.0,0.0,0.0,0.0,0.0,0.0,0.0,0.0,0.0,0.0,0.0,0.0,0.0,0.0,0.0,0.0,0.0,0.0,0.0,0.0,0.0,0.0,0.0,0.0,0.0,0.0,0.0,0.0,0.0,0.0,0.0,0.0,0.0,0.0,0.0,0.0,0.0,0.0,0.0,0.0,0.0,0.0,0.0,0.0,0.0,0.0,0.0,0.0,0.0,0.0,0.0,0.0,0.0,0.0,0.0,0.0,0.0,0.0,0.0,0.0,0.0,0.0,0.0,0.0,0.0,0.0,0.0,0.0,0.0,0.0,0.0,0.0,0.0,0.0,0.0,0.0,0.0,0.0,0.0,0.0,0.0,2.0586,2.0605,2.0702,2.0896,2.1205,0.0,0.0,0.0,0.0,0.0,0.0,0.0,0.0,0.0,0.0,0.0,0.0,0.0,0.0,0.0,0.0,0.0,0.0,0.0,0.0,0.0,0.0,0.0,0.0,0.0,0.0,0.0,0.0,0.0,0.0,0.0,0.0,0.0,0.0,0.0,0.0,0.0,0.0,0.0,0.0,0.0,0.0,0.0,0.0,0.0,0.0,0.0,0.0,0.0,0.0,0.0,0.0,0.0,0.0,0.0,0.0,0.0,0.0,0.0,0.0,0.0,0.0,0.0,0.0,0.0,0.0,0.0,0.0,0.0,0.0,0.0,0.0,0.0,0.0,0.0,0.0,0.0,0.0,0.0,0.0,0.0,0.0,0.0,0.0,0.0,0.0,0.0,0.0,0.0,0.0,0.0,0.0,0.0,0.0,0.0,0.0,0.0,0.0,0.0,0.0,0.0,0.0,0.0,0.0,0.0,0.0,0.0,0.0,0.0,0.0,0.0,0.0,2.0918,2.1151,2.1396,0.0,0.0,0.0,0.0,0.0,0.0,0.0,0.0,0.0,0.0,0.0,0.0,0.0,0.0,0.0,0.0,0.0,0.0,0.0,0.0,0.0,0.0,0.0,0.0,0.0,0.0,0.0,0.0,0.0,0.0,0.0,0.0,0.0,0.0,0.0,0.0,0.0,0.0,0.0,0.0,0.0,0.0,0.0,0.0,0.0,0.0,0.0,0.0,0.0,0.0,0.0,0.0,0.0,0.0,0.0,0.0,0.0,0.0,0.0,0.0,0.0,0.0,0.0,0.0,0.0,0.0,0.0,0.0,0.0,0.0,0.0,0.0,0.0,0.0,0.0,0.0,0.0,0.0,0.0,0.0,0.0,0.0,0.0,0.0,0.0,0.0,0.0,0.0,0.0,0.0,0.0,0.0,0.0,0.0,0.0,0.0,0.0,0.0,0.0,0.0,0.0,0.0,0.0,0.0,0.0,0.0,0.0,0.0,0.0,0.0,2.1152,2.1152,2.1352,0.0,2.1987,0.0,0.0,0.0,0.0,0.0,0.0,0.0,0.0,0.0,0.0,0.0,0.0,0.0,0.0,0.0,0.0,0.0,0.0,0.0,0.0,0.0,0.0,0.0,0.0,0.0,0.0,0.0,0.0,0.0,0.0,0.0,0.0,0.0,0.0,0.0,0.0,0.0,0.0,0.0,0.0,0.0,0.0,0.0,0.0,0.0,0.0,0.0,0.0,0.0,0.0,0.0,0.0,0.0,0.0,0.0,0.0,0.0,0.0,0.0,0.0,0.0,0.0,0.0,0.0,0.0,0.0,0.0,0.0,0.0,0.0,0.0,0.0,0.0,0.0,0.0,0.0,0.0,0.0,0.0,0.0,0.0,0.0,0.0,0.0,0.0,0.0,0.0,0.0,0.0,0.0,0.0,0.0,0.0,0.0,0.0,0.0,0.0,0.0,0.0,0.0,0.0,0.0,0.0,0.0,0.0,0.0,0.0,0.0,0.0,0.0,2.1347,2.1621,2.1669,2.1863,0.0,0.0,0.0,0.0,0.0,0.0,0.0,0.0,0.0,0.0,0.0,0.0,0.0,0.0,0.0,0.0,0.0,0.0,0.0,0.0,0.0,0.0,0.0,0.0,0.0,0.0,0.0,0.0,0.0,0.0,0.0,0.0,0.0,0.0,0.0,0.0,0.0,0.0,0.0,0.0,0.0,0.0,0.0,0.0,0.0,0.0,0.0,0.0,0.0,0.0,0.0,0.0,0.0,0.0,0.0,0.0,0.0,0.0,0.0,0.0,0.0,0.0,0.0,0.0,0.0,0.0,0.0,0.0,0.0,0.0,0.0,0.0,0.0,0.0,0.0,0.0,0.0,0.0,0.0,0.0,0.0,0.0,0.0,0.0,0.0,0.0,0.0,0.0,0.0,0.0,0.0,0.0,0.0,0.0,0.0,0.0,0.0,0.0,0.0,0.0,0.0,0.0,0.0,0.0,0.0,0.0,0.0,0.0,0.0,0.0,2.1424,2.1721,2.2041,2.2029,2.2123,2.2386,0.0,0.0,0.0,0.0,0.0,0.0,0.0,0.0,0.0,0.0,0.0,0.0,0.0,0.0,0.0,0.0,0.0,0.0,0.0,0.0,0.0,0.0,0.0,0.0,0.0,0.0,0.0,0.0,0.0,0.0,0.0,0.0,0.0,0.0,0.0,0.0,0.0,0.0,0.0,0.0,0.0,0.0,0.0,0.0,0.0,0.0,0.0,0.0,0.0,0.0,0.0,0.0,0.0,0.0,0.0,0.0,0.0,0.0,0.0,0.0,0.0,0.0,0.0,0.0,0.0,0.0,0.0,0.0,0.0,0.0,0.0,0.0,0.0,0.0,0.0,0.0,0.0,0.0,0.0,0.0,0.0,0.0,0.0,0.0,0.0,0.0,0.0,0.0,0.0,0.0,0.0,0.0,0.0,0.0,0.0,0.0,0.0,0.0,0.0,0.0,0.0,0.0,0.0,0.0,0.0,0.0,0.0,0.0,2.1269,2.201,2.2434,2.2471,2.2472,2.247,0.0,0.0,0.0,0.0,0.0,0.0,0.0,0.0,0.0,0.0,0.0,0.0,0.0,0.0,0.0,0.0,0.0,0.0,0.0,0.0,0.0,0.0,0.0,0.0,0.0,0.0,0.0,0.0,0.0,0.0,0.0,0.0,0.0,0.0,0.0,0.0,0.0,0.0,0.0,0.0,0.0,0.0,0.0,0.0,0.0,0.0,0.0,0.0,0.0,0.0,0.0,0.0,0.0,0.0,0.0,0.0,0.0,0.0,0.0,0.0,0.0,0.0,0.0,0.0,0.0,0.0,0.0,0.0,0.0,0.0,0.0,0.0,0.0,0.0,0.0,0.0,0.0,0.0,0.0,0.0,0.0,0.0,0.0,0.0,0.0,0.0,0.0,0.0,0.0,0.0,0.0,0.0,0.0,0.0,0.0,0.0,0.0,0.0,0.0,0.0,0.0,0.0,0.0,0.0,0.0,0.0,0.0,0.0,0.0,2.1681,2.2459,2.277,2.2512,2.2615,2.2649,0.0,0.0,0.0,0.0,0.0,0.0,0.0,0.0,0.0,0.0,0.0,0.0,0.0,0.0,0.0,0.0,0.0,0.0,0.0,0.0,0.0,0.0,0.0,0.0,0.0,0.0,0.0,0.0,0.0,0.0,0.0,0.0,0.0,0.0,0.0,0.0,0.0,0.0,0.0,0.0,0.0,0.0,0.0,0.0,0.0,0.0,0.0,0.0,0.0,0.0,0.0,0.0,0.0,0.0,0.0,0.0,0.0,0.0,0.0,0.0,0.0,0.0,0.0,0.0,0.0,0.0,0.0,0.0,0.0,0.0,0.0,0.0,0.0,0.0,0.0,0.0,0.0,0.0,0.0,0.0,0.0,0.0,0.0,0.0,0.0,0.0,0.0,0.0,0.0,0.0,0.0,0.0,0.0,0.0,0.0,0.0,0.0,0.0,0.0,0.0,0.0,0.0,0.0,0.0,0.0,0.0,0.0,0.0,0.0,2.2306,0.0,2.2906,2.2532,2.2696,2.2768,0.0,0.0,0.0,0.0,0.0,0.0,0.0,0.0,0.0,0.0,0.0,0.0,0.0,0.0,0.0,0.0,0.0,0.0,0.0,0.0,0.0,0.0,0.0,0.0,0.0,0.0,0.0,0.0,0.0,0.0,0.0,0.0,0.0,0.0,0.0,0.0,0.0,0.0,0.0,0.0,0.0,0.0,0.0,0.0,0.0,0.0,0.0,0.0,0.0,0.0,0.0,0.0,0.0,0.0,0.0,0.0,0.0,0.0,0.0,0.0,0.0,0.0,0.0,0.0,0.0,0.0,0.0,0.0,0.0,0.0,0.0,0.0,0.0,0.0,0.0,0.0,0.0,0.0,0.0,0.0,0.0,0.0,0.0,0.0,0.0,0.0,0.0,0.0,0.0,0.0,0.0,0.0,0.0,0.0,0.0,0.0,0.0,0.0,0.0,0.0,0.0,0.0,0.0,0.0,0.0,0.0,0.0,0.0,2.2684,2.3064,2.3081,2.2906,2.2532,2.2717,2.2768,0.0,0.0,0.0,0.0,0.0,0.0,0.0,0.0,0.0,0.0,0.0,0.0,0.0,0.0,0.0,0.0,0.0,0.0,0.0,0.0,0.0,0.0,0.0,0.0,0.0,0.0,0.0,0.0,0.0,0.0,0.0,0.0,0.0,0.0,0.0,0.0,0.0,0.0,0.0,0.0,0.0,0.0,0.0,0.0,0.0,0.0,0.0,0.0,0.0,0.0,0.0,0.0,0.0,0.0,0.0,0.0,0.0,0.0,0.0,0.0,0.0,0.0,0.0,0.0,0.0,0.0,0.0,0.0,0.0,0.0,0.0,0.0,0.0,0.0,0.0,0.0,0.0,0.0,0.0,0.0,0.0,0.0,0.0,0.0,0.0,0.0,0.0,0.0,0.0,0.0,0.0,0.0,0.0,0.0,0.0,0.0,0.0,0.0,0.0,0.0,0.0,0.0,0.0,0.0,0.0,0.0,0.0,0.0,0.0,2.3081,2.3101,2.3065,2.2995,2.2982,2.3113,0.0,0.0,0.0,0.0,0.0,0.0,0.0,0.0,0.0,0.0,0.0,0.0,0.0,0.0,0.0,0.0,0.0,0.0,0.0,0.0,0.0,0.0,0.0,0.0,0.0,0.0,0.0,0.0,0.0,0.0,0.0,0.0,0.0,0.0,0.0,0.0,0.0,0.0,0.0,0.0,0.0,0.0,0.0,0.0,0.0,0.0,0.0,0.0,0.0,0.0,0.0,0.0,0.0,0.0,0.0,0.0,0.0,0.0,0.0,0.0,0.0,0.0,0.0,0.0,0.0,0.0,0.0,0.0,0.0,0.0,0.0,0.0,0.0,0.0,0.0,0.0,0.0,0.0,0.0,0.0,0.0,0.0,0.0,0.0,0.0,0.0,0.0,0.0,0.0,0.0,0.0,0.0,0.0,0.0,0.0,0.0,0.0,0.0,0.0,0.0,0.0,0.0,0.0,0.0,0.0,0.0,0.0,0.0,0.0,2.3357,2.3467,2.3489,2.3438,2.3638,2.3753,2.3801,0.0,0.0,0.0,0.0,0.0,0.0,0.0,0.0,0.0,0.0,0.0,0.0,0.0,0.0,0.0,0.0,0.0,0.0,0.0,0.0,0.0,0.0,0.0,0.0,0.0,0.0,0.0,0.0,0.0,0.0,0.0,0.0,0.0,0.0,0.0,0.0,0.0,0.0,0.0,0.0,0.0,0.0,0.0,0.0,0.0,0.0,0.0,0.0,0.0,0.0,0.0,0.0,0.0,0.0,0.0,0.0,0.0,0.0,0.0,0.0,0.0,0.0,0.0,0.0,0.0,0.0,0.0,0.0,0.0,0.0,0.0,0.0,0.0,0.0,0.0,0.0,0.0,0.0,0.0,0.0,0.0,0.0,0.0,0.0,0.0,0.0,0.0,0.0,0.0,0.0,0.0,0.0,0.0,0.0,0.0,0.0,0.0,0.0,0.0,0.0,0.0,0.0,0.0,0.0,0.0,0.0,0.0,0.0,2.3828,2.4137,2.4142,2.3879,2.4465,2.4593,0.0,0.0,0.0,0.0,0.0,0.0,0.0,0.0,0.0,0.0,0.0,0.0,0.0,0.0,0.0,0.0,0.0,0.0,0.0,0.0,0.0,0.0,0.0,0.0,0.0,0.0,0.0,0.0,0.0,0.0,0.0,0.0,0.0,0.0,0.0,0.0,0.0,0.0,0.0,0.0,0.0,0.0,0.0,0.0,0.0,0.0,0.0,0.0,0.0,0.0,0.0,0.0,0.0,0.0,0.0,0.0,0.0,0.0,0.0,0.0,0.0,0.0,0.0,0.0,0.0,0.0,0.0,0.0,0.0,0.0,0.0,0.0,0.0,0.0,0.0,0.0,0.0,0.0,0.0,0.0,0.0,0.0,0.0,0.0,0.0,0.0,0.0,0.0,0.0,0.0,0.0,0.0,0.0,0.0,0.0,0.0,0.0,0.0,0.0,0.0,0.0,0.0,0.0,0.0,0.0,0.0,0.0,0.0,0.0,2.4258,2.4987,2.5108,2.4584,2.491,2.499,0.0,0.0,0.0,0.0,0.0,0.0,0.0,0.0,0.0,0.0,0.0,0.0,0.0,0.0,0.0,0.0,0.0,0.0,0.0,0.0,0.0,0.0,0.0,0.0,0.0,0.0,0.0,0.0,0.0,0.0,0.0,0.0,0.0,0.0,0.0,0.0,0.0,0.0,0.0,0.0,0.0,0.0,0.0,0.0,0.0,0.0,0.0,0.0,0.0,0.0,0.0,0.0,0.0,0.0,0.0,0.0,0.0,0.0,0.0,0.0,0.0,0.0,0.0,0.0,0.0,0.0,0.0,0.0,0.0,0.0,0.0,0.0,0.0,0.0,0.0,0.0,0.0,0.0,0.0,0.0,0.0,0.0,0.0,0.0,0.0,0.0,0.0,0.0,0.0,0.0,0.0,0.0,0.0,0.0,0.0,0.0,0.0,0.0,0.0,0.0,0.0,0.0,0.0,0.0,0.0,0.0,0.0,0.0,2.4225,2.4572,2.5561,2.6029,2.586,2.5909,2.5802,0.0,0.0,0.0,0.0,0.0,0.0,0.0,0.0,0.0,0.0,0.0,0.0,0.0,0.0,0.0,0.0,0.0,0.0,0.0,0.0,0.0,0.0,0.0,0.0,0.0,0.0,0.0,0.0,0.0,0.0,0.0,0.0,0.0,0.0,0.0,0.0,0.0,0.0,0.0,0.0,0.0,0.0,0.0,0.0,0.0,0.0,0.0,0.0,0.0,0.0,0.0,0.0,0.0,0.0,0.0,0.0,0.0,0.0,0.0,0.0,0.0,0.0,0.0,0.0,0.0,0.0,0.0,0.0,0.0,0.0,0.0,0.0,0.0,0.0,0.0,0.0,0.0,0.0,0.0,0.0,0.0,0.0,0.0,0.0,0.0,0.0,0.0,0.0,0.0,0.0,0.0,0.0,0.0,0.0,0.0,0.0,0.0,0.0,0.0,0.0,0.0,0.0,0.0,0.0,0.0,0.0,0.0,0.0,2.4529,2.4779,2.5939,2.6818,2.7337,2.7118,2.6821,0.0,0.0,0.0,0.0,0.0,0.0,0.0,0.0,0.0,0.0,0.0,0.0,0.0,0.0,0.0,0.0,0.0,0.0,0.0,0.0,0.0,0.0,0.0,0.0,0.0,0.0,0.0,0.0,0.0,0.0,0.0,0.0,0.0,0.0,0.0,0.0,0.0,0.0,0.0,0.0,0.0,0.0,0.0,0.0,0.0,0.0,0.0,0.0,0.0,0.0,0.0,0.0,0.0,0.0,0.0,0.0,0.0,0.0,0.0,0.0,0.0,0.0,0.0,0.0,0.0,0.0,0.0,0.0,0.0,0.0,0.0,0.0,0.0,0.0,0.0,0.0,0.0,0.0,0.0,0.0,0.0,0.0,0.0,0.0,0.0,0.0,0.0,0.0,0.0,0.0,0.0,0.0,0.0,0.0,0.0,0.0,0.0,0.0,0.0,0.0,0.0,0.0,0.0,0.0,0.0,0.0,0.0,0.0,2.4529,2.4845,2.6108,2.7152,2.7828,2.7606,2.7534,0.0,0.0,0.0,0.0,0.0,0.0,0.0,0.0,0.0,0.0,0.0,0.0,0.0,0.0,0.0,0.0,0.0,0.0,0.0,0.0,0.0,0.0,0.0,0.0,0.0,0.0,0.0,0.0,0.0,0.0,0.0,0.0,0.0,0.0,0.0,0.0,0.0,0.0,0.0,0.0,0.0,0.0,0.0,0.0,0.0,0.0,0.0,0.0,3.2106,0.0,0.0,0.0,0.0,0.0,0.0,0.0,0.0,0.0,0.0,0.0,0.0,0.0,0.0,0.0,0.0,0.0,0.0,0.0,0.0,0.0,0.0,0.0,0.0,0.0,0.0,0.0,0.0,0.0,0.0,0.0,0.0,0.0,0.0,0.0,0.0,0.0,0.0,0.0,0.0,0.0,0.0,0.0,0.0,0.0,0.0,0.0,0.0,0.0,0.0,0.0,0.0,0.0,0.0,0.0,0.0,0.0,0.0,0.0,2.4575,2.4982,2.6226,2.7256,2.7959,2.8055,2.8227,0.0,0.0,0.0,0.0,0.0,0.0,0.0,0.0,0.0,0.0,0.0,0.0,0.0,0.0,0.0,0.0,0.0,0.0,0.0,0.0,0.0,0.0,0.0,0.0,0.0,0.0,0.0,0.0,0.0,0.0,0.0,0.0,0.0,0.0,0.0,0.0,0.0,0.0,0.0,0.0,0.0,0.0,0.0,0.0,0.0,0.0,0.0,0.0,0.0,0.0,0.0,0.0,0.0,0.0,0.0,0.0,0.0,0.0,0.0,0.0,0.0,0.0,0.0,0.0,0.0,0.0,0.0,0.0,0.0,0.0,0.0,0.0,0.0,0.0,0.0,0.0,0.0,0.0,0.0,0.0,0.0,0.0,0.0,0.0,0.0,0.0,0.0,0.0,0.0,0.0,0.0,0.0,0.0,0.0,0.0,0.0,0.0,0.0,0.0,0.0,0.0,0.0,0.0,0.0,0.0,0.0,0.0,2.3555,2.4664,2.5209,2.6279,2.7212,2.8024,2.8427,2.8799,2.916,0.0,0.0,0.0,0.0,0.0,0.0,0.0,0.0,0.0,0.0,0.0,0.0,0.0,0.0,0.0,0.0,0.0,0.0,0.0,0.0,0.0,0.0,0.0,0.0,0.0,0.0,0.0,0.0,0.0,0.0,0.0,0.0,0.0,0.0,0.0,0.0,0.0,0.0,3.1539,3.2293,0.0,0.0,0.0,0.0,0.0,0.0,0.0,0.0,3.2787,0.0,0.0,0.0,0.0,0.0,0.0,0.0,0.0,0.0,0.0,0.0,0.0,0.0,0.0,0.0,0.0,0.0,0.0,0.0,0.0,0.0,0.0,0.0,0.0,0.0,0.0,0.0,0.0,0.0,0.0,0.0,0.0,0.0,0.0,0.0,0.0,0.0,0.0,0.0,0.0,0.0,0.0,0.0,0.0,0.0,0.0,0.0,0.0,0.0,0.0,0.0,0.0,0.0,0.0,0.0,0.0,2.1915,2.3555,2.4667,2.5211,2.6092,2.7106,2.8207,2.8602,2.8998,2.9479,0.0,0.0,0.0,0.0,0.0,0.0,0.0,0.0,0.0,0.0,0.0,0.0,0.0,0.0,0.0,0.0,0.0,0.0,0.0,0.0,0.0,0.0,0.0,0.0,0.0,0.0,0.0,0.0,0.0,0.0,0.0,0.0,0.0,0.0,0.0,0.0,0.0,0.0,0.0,3.3338,3.4092,0.0,0.0,0.0,0.0,0.0,0.0,0.0,0.0,3.3877,0.0,0.0,0.0,0.0,0.0,0.0,0.0,0.0,0.0,0.0,0.0,0.0,0.0,0.0,0.0,0.0,0.0,0.0,0.0,0.0,0.0,0.0,0.0,0.0,0.0,0.0,0.0,0.0,0.0,0.0,0.0,0.0,0.0,0.0,0.0,0.0,0.0,0.0,0.0,0.0,0.0,0.0,0.0,0.0,0.0,0.0,0.0,0.0,0.0,0.0,0.0,0.0,0.0,0.0,0.0,2.2139,2.3494,2.451,2.5049,2.6024,2.6986,2.7852,2.8314,2.8703,0.0,0.0,0.0,0.0,0.0,0.0,0.0,0.0,0.0,0.0,0.0,0.0,0.0,0.0,0.0,0.0,0.0,0.0,0.0,0.0,0.0,0.0,0.0,0.0,0.0,0.0,0.0,0.0,0.0,0.0,0.0,0.0,0.0,0.0,0.0,0.0,0.0,0.0,0.0,0.0,3.4109,3.5038,3.5357,0.0,0.0,0.0,0.0,0.0,0.0,3.491,3.4591,0.0,0.0,0.0,0.0,0.0,0.0,0.0,0.0,0.0,0.0,0.0,0.0,0.0,0.0,0.0,0.0,0.0,0.0,0.0,0.0,0.0,0.0,0.0,0.0,0.0,0.0,0.0,0.0,0.0,0.0,0.0,0.0,0.0,0.0,0.0,0.0,0.0,0.0,0.0,0.0,0.0,0.0,0.0,0.0,0.0,0.0,0.0,0.0,0.0,0.0,0.0,0.0,0.0,0.0,0.0,2.2306,2.3474,2.4371,2.4968,2.5965,2.6867,2.7562,2.8036,2.8366,0.0,0.0,0.0,0.0,0.0,0.0,0.0,0.0,0.0,0.0,0.0,0.0,0.0,0.0,0.0,0.0,0.0,0.0,0.0,0.0,0.0,0.0,0.0,0.0,0.0,0.0,0.0,0.0,0.0,0.0,0.0,0.0,0.0,0.0,0.0,0.0,0.0,0.0,0.0,0.0,0.0,3.5625,3.6199,3.6286,0.0,0.0,0.0,0.0,3.5636,3.5479,0.0,0.0,0.0,0.0,0.0,0.0,0.0,0.0,0.0,0.0,0.0,0.0,0.0,0.0,0.0,0.0,0.0,0.0,0.0,0.0,0.0,0.0,0.0,0.0,0.0,0.0,0.0,0.0,0.0,0.0,0.0,0.0,0.0,0.0,0.0,0.0,0.0,0.0,0.0,0.0,0.0,0.0,0.0,0.0,0.0,0.0,0.0,0.0,0.0,0.0,0.0,0.0,0.0,0.0,0.0,0.0,2.2512,2.3539,2.444,2.5148,2.589,2.6778,2.7815,2.8104,2.8419,0.0,0.0,0.0,0.0,0.0,0.0,0.0,0.0,0.0,0.0,0.0,0.0,0.0,0.0,0.0,0.0,0.0,0.0,0.0,0.0,0.0,0.0,0.0,0.0,0.0,0.0,0.0,0.0,0.0,0.0,0.0,0.0,0.0,0.0,0.0,0.0,0.0,0.0,0.0,0.0,0.0,3.5625,3.6228,3.6286,3.6286,0.0,0.0,3.6286,3.6199,3.5752,0.0,0.0,0.0,0.0,0.0,0.0,0.0,0.0,0.0,0.0,0.0,0.0,0.0,0.0,0.0,0.0,0.0,0.0,0.0,0.0,0.0,0.0,0.0,0.0,0.0,0.0,0.0,0.0,0.0,0.0,0.0,0.0,0.0,0.0,0.0,0.0,0.0,0.0,0.0,0.0,0.0,0.0,0.0,0.0,0.0,0.0,0.0,0.0,0.0,0.0,0.0,0.0,0.0,0.0,0.0,2.2879,2.2717,2.3771,2.4602,2.5187,2.5956,2.6811,2.772,2.7935,2.8355,0.0,0.0,0.0,0.0,0.0,0.0,0.0,0.0,0.0,0.0,0.0,0.0,0.0,0.0,0.0,0.0,0.0,0.0,0.0,0.0,0.0,0.0,0.0,0.0,0.0,0.0,0.0,0.0,0.0,0.0,0.0,0.0,0.0,0.0,0.0,0.0,0.0,0.0,0.0,0.0,0.0,0.0,3.7767,3.7941,0.0,0.0,0.0,3.7825,3.7447,0.0,0.0,0.0,0.0,0.0,0.0,0.0,0.0,0.0,0.0,0.0,0.0,0.0,0.0,0.0,0.0,0.0,0.0,0.0,0.0,0.0,0.0,0.0,0.0,0.0,0.0,0.0,0.0,0.0,0.0,0.0,0.0,0.0,0.0,0.0,0.0,0.0,0.0,0.0,0.0,0.0,0.0,0.0,0.0,0.0,0.0,0.0,0.0,0.0,0.0,0.0,0.0,0.0,0.0,0.0,0.0,0.0,2.3062,2.4011,2.4786,2.538,2.6217,2.6973,2.7608,2.794,0.0,0.0,0.0,0.0,0.0,0.0,0.0,0.0,0.0,0.0,0.0,0.0,0.0,0.0,0.0,0.0,0.0,0.0,0.0,0.0,0.0,0.0,0.0,0.0,0.0,0.0,0.0,2.759,0.0,0.0,0.0,0.0,0.0,0.0,0.0,0.0,0.0,0.0,0.0,0.0,0.0,0.0,3.7012,3.8928,3.917,3.9421,0.0,0.0,3.9189,3.8532,3.7941,3.7117,0.0,0.0,0.0,0.0,0.0,0.0,0.0,0.0,0.0,0.0,0.0,0.0,0.0,0.0,0.0,0.0,0.0,0.0,0.0,0.0,0.0,0.0,0.0,0.0,0.0,0.0,0.0,0.0,0.0,0.0,0.0,0.0,0.0,0.0,0.0,0.0,0.0,0.0,0.0,0.0,0.0,0.0,0.0,0.0,0.0,0.0,0.0,0.0,0.0,0.0,0.0,0.0,0.0,0.0,0.0,2.3749,2.4242,2.4956,2.5843,2.6693,2.7295,2.7608,2.8219,2.8661,0.0,0.0,0.0,0.0,0.0,0.0,0.0,0.0,0.0,0.0,0.0,0.0,0.0,0.0,0.0,0.0,0.0,0.0,0.0,0.0,0.0,0.0,0.0,0.0,0.0,0.0,0.0,0.0,0.0,0.0,0.0,0.0,0.0,0.0,0.0,0.0,0.0,0.0,0.0,0.0,0.0,3.7012,3.8928,3.917,3.9421,0.0,0.0,3.9828,3.9218,3.858,3.7793,3.6692,0.0,0.0,0.0,0.0,0.0,0.0,0.0,0.0,0.0,0.0,0.0,0.0,0.0,0.0,0.0,0.0,0.0,0.0,0.0,0.0,0.0,0.0,0.0,0.0,0.0,0.0,0.0,0.0,0.0,0.0,0.0,0.0,0.0,0.0,0.0,0.0,0.0,0.0,0.0,0.0,0.0,0.0,0.0,0.0,0.0,0.0,0.0,0.0,0.0,0.0,0.0,0.0,0.0,2.4146,2.4185,2.4949,2.5717,2.6511,2.7205,2.7668,2.7841,2.8555,2.8882,0.0,0.0,0.0,0.0,0.0,0.0,0.0,0.0,0.0,0.0,0.0,0.0,0.0,0.0,0.0,0.0,0.0,0.0,0.0,0.0,0.0,0.0,0.0,0.0,0.0,0.0,0.0,0.0,2.7989,2.8162,2.8405,0.0,0.0,0.0,0.0,0.0,0.0,0.0,0.0,0.0,0.0,3.7622,3.9479,4.0089,0.0,0.0,4.108,4.0665,4.0033,3.9506,3.8807,3.77,3.6585,0.0,0.0,0.0,0.0,0.0,0.0,0.0,0.0,0.0,0.0,0.0,0.0,0.0,0.0,0.0,0.0,0.0,0.0,0.0,0.0,0.0,0.0,0.0,0.0,0.0,0.0,0.0,0.0,0.0,0.0,0.0,0.0,0.0,0.0,0.0,0.0,0.0,0.0,0.0,0.0,0.0,0.0,0.0,0.0,0.0,0.0,0.0,0.0,0.0,0.0,0.0,0.0,2.4547,2.4697,2.5455,2.623,2.6983,2.7733,2.8082,2.8049,2.8823,2.9173,0.0,0.0,0.0,0.0,0.0,0.0,0.0,0.0,0.0,0.0,0.0,0.0,0.0,0.0,0.0,0.0,0.0,0.0,0.0,0.0,0.0,0.0,0.0,0.0,0.0,0.0,0.0,0.0,2.8235,2.8551,2.9104,0.0,0.0,0.0,0.0,0.0,0.0,0.0,0.0,0.0,0.0,3.836,4.0081,4.0869,4.152,4.2161,4.2043,4.1655,4.1008,4.0545,3.9914,3.8776,0.0,0.0,0.0,0.0,0.0,0.0,0.0,0.0,0.0,0.0,0.0,0.0,0.0,0.0,0.0,0.0,0.0,0.0,0.0,0.0,0.0,0.0,0.0,0.0,0.0,0.0,0.0,0.0,0.0,0.0,2.6962,0.0,0.0,0.0,0.0,0.0,0.0,0.0,0.0,0.0,0.0,0.0,0.0,0.0,0.0,0.0,0.0,0.0,0.0,0.0,0.0,0.0,0.0,2.4849,2.5344,2.5666,2.6282,2.7182,2.8235,2.8532,2.8067,2.909,2.9497,2.9097,0.0,0.0,0.0,0.0,0.0,0.0,0.0,0.0,0.0,0.0,0.0,0.0,0.0,0.0,0.0,0.0,0.0,0.0,0.0,0.0,0.0,0.0,0.0,0.0,0.0,0.0,2.8259,2.8501,2.9116,0.0,0.0,0.0,0.0,0.0,0.0,0.0,0.0,0.0,0.0,3.7559,3.9287,4.0614,4.1332,4.1961,4.258,4.284,4.2743,4.2139,4.1688,4.098,0.0,0.0,0.0,0.0,0.0,0.0,0.0,0.0,0.0,0.0,0.0,0.0,0.0,0.0,0.0,0.0,0.0,0.0,0.0,0.0,0.0,0.0,0.0,0.0,0.0,0.0,0.0,2.9142,2.8444,0.0,0.0,0.0,0.0,0.0,0.0,0.0,0.0,0.0,0.0,0.0,3.0256,2.993,0.0,0.0,0.0,0.0,0.0,0.0,0.0,0.0,0.0,0.0,0.0,0.0,2.5338,2.5981,2.6276,2.694,2.8035,2.8697,2.8883,2.8612,2.9434,2.9694,2.9315,0.0,0.0,0.0,0.0,0.0,0.0,0.0,0.0,0.0,0.0,0.0,0.0,0.0,0.0,0.0,0.0,0.0,0.0,0.0,0.0,0.0,0.0,0.0,0.0,0.0,2.9722,0.0,0.0,0.0,0.0,0.0,0.0,0.0,0.0,0.0,0.0,0.0,3.5902,3.7948,3.906,4.0143,4.1477,4.2317,4.2852,0.0,0.0,0.0,0.0,0.0,0.0,0.0,0.0,0.0,0.0,0.0,0.0,0.0,0.0,3.9178,3.7496,3.7283,3.7272,3.7026,0.0,0.0,0.0,0.0,0.0,0.0,0.0,0.0,0.0,0.0,0.0,0.0,0.0,0.0,3.0522,0.0,2.9674,0.0,0.0,0.0,0.0,0.0,0.0,0.0,0.0,3.0534,3.0873,3.1508,3.11,3.0708,0.0,2.9559,2.8831,0.0,0.0,0.0,0.0,0.0,0.0,0.0,0.0,2.5933,2.6586,2.6997,2.7695,2.8673,2.9075,2.9195,2.9097,2.9624,2.9903,2.9884,2.9886,2.9673,0.0,0.0,0.0,0.0,0.0,0.0,0.0,0.0,0.0,0.0,0.0,0.0,0.0,0.0,0.0,0.0,0.0,0.0,0.0,0.0,0.0,0.0,0.0,3.0715,0.0,0.0,0.0,0.0,0.0,0.0,0.0,0.0,0.0,3.5224,3.6177,3.7563,3.9354,4.0533,4.1535,4.2406,0.0,0.0,0.0,0.0,0.0,0.0,0.0,4.3879,4.3568,4.2556,4.1997,4.2556,4.2277,4.2151,4.259,0.0,0.0,4.0015,3.9706,3.9603,3.9139,3.8801,3.8524,3.8229,3.8293,3.8357,0.0,0.0,0.0,0.0,0.0,0.0,0.0,0.0,3.1779,3.1696,0.0,3.1275,0.0,0.0,0.0,0.0,0.0,3.0477,0.0,0.0,3.1919,3.1843,3.1848,3.1579,3.1432,3.1381,3.0351,2.9824,2.9723,2.8165,0.0,0.0,0.0,0.0,0.0,0.0,2.6676,2.7235,2.7808,2.8435,2.9076,2.9353,2.9478,2.9443,2.9677,3.0113,3.0718,3.0396,3.0258,3.0464,2.9442,0.0,0.0,0.0,0.0,0.0,0.0,0.0,0.0,0.0,0.0,0.0,0.0,0.0,0.0,0.0,0.0,0.0,0.0,0.0,0.0,3.1049,0.0,0.0,0.0,0.0,0.0,0.0,0.0,0.0,0.0,0.0,3.7017,3.839,3.9712,4.0104,0.0,0.0,0.0,0.0,4.4629,4.4629,4.4968,4.5228,4.5247,4.4975,4.4766,4.4766,0.0,0.0,4.374,4.3772,4.3772,4.3772,4.3959,4.3703,4.2476,4.2171,4.1733,4.0562,4.0474,4.0274,3.9644,3.974,3.9864,3.7098,0.0,0.0,0.0,0.0,3.4466,3.4415,3.4543,3.439,3.413,3.376,3.3222,0.0,0.0,0.0,0.0,0.0,0.0,3.235,3.2863,3.2828,3.2911,3.3109,3.2539,3.2258,3.2233,3.0964,3.0382,3.0306,2.9082,2.801,2.724,0.0,0.0,0.0,0.0,2.7072,2.793,2.8303,2.8622,2.8942,2.9451,2.9722,2.9763,2.9934,3.0281,3.0762,3.091,3.0801,3.0508,2.988,0.0,0.0,0.0,0.0,0.0,0.0,0.0,0.0,0.0,0.0,0.0,0.0,0.0,0.0,0.0,0.0,0.0,0.0,0.0,3.2606,3.2715,3.3066,0.0,0.0,0.0,0.0,0.0,0.0,0.0,0.0,0.0,4.0133,4.0333,4.1021,0.0,0.0,4.3963,4.4558,4.4992,4.5302,4.5431,4.5669,0.0,4.5963,4.6003,4.6066,4.6066,4.5783,4.5391,4.4947,4.5217,4.555,4.555,4.5725,4.5716,4.5353,4.4385,4.3585,4.3188,4.3126,4.2986,4.2413,4.2286,4.2125,3.9734,3.8185,3.6991,3.659,3.677,3.6356,3.6219,3.6286,3.6077,3.5753,3.5336,3.5024,3.4747,3.4504,3.3978,0.0,0.0,0.0,3.445,3.4758,3.4721,3.4544,3.4284,3.381,3.336,3.2999,3.1787,3.1195,3.1175,2.9959,2.8931,2.8073,0.0,0.0,2.7433,2.753,2.7879,2.8504,2.898,2.9227,2.9262,2.964,2.9885,2.9991,3.0177,3.0522,3.097,3.119,3.1215,3.1026,3.0588,3.0259,0.0,0.0,0.0,0.0,0.0,0.0,0.0,0.0,0.0,0.0,0.0,3.0275,3.0566,0.0,0.0,0.0,3.2652,3.3406,3.3837,3.4024,0.0,0.0,0.0,0.0,0.0,0.0,0.0,3.9826,4.066,4.1547,4.2585,4.2663,4.2967,4.4018,4.4429,4.4851,4.546,0.0,4.5994,4.612,4.6351,4.6562,4.6635,4.6808,4.6927,4.6858,4.6754,4.6486,4.6065,4.6273,4.653,4.6649,4.6771,4.6875,4.6944,4.5953,4.5092,4.4925,4.4716,4.4397,4.3848,4.3571,4.3256,4.1977,4.1196,3.9217,3.8585,3.8793,3.7837,3.7539,3.767,3.717,3.6895,3.6748,3.6686,3.662,3.652,3.6219,0.0,3.6893,3.6893,3.702,3.7261,3.7096,3.6433,3.5388,3.5174,3.4628,3.3784,3.2711,3.2197,3.2094,3.0822,2.9891,2.9313,2.8621,2.8259,2.8179,2.8674,2.895,2.9001,2.977,3.0086,2.9868,2.9865,2.9931,3.0113,3.0432,3.0821,3.1292,3.1321,3.1496,3.1798,3.1469,3.1357,3.1601,0.0,0.0,0.0,0.0,0.0,0.0,0.0,0.0,0.0,0.0,0.0,0.0,0.0,0.0,0.0,3.3995,0.0,3.4901,3.5057,0.0,0.0,0.0,3.7505,3.9067,3.9133,3.9809,4.1802,0.0,0.0,4.4362,4.4968,4.5124,4.4741,4.5376,4.59,4.6152,4.6389,4.6649,4.6684,4.6978,4.7201,4.707,4.714,4.7092,4.6958,4.7055,4.6872,4.6686,4.6685,4.6835,4.6922,4.7055,4.7073,4.7273,4.6667,4.6241,4.5812,4.5374,4.4869,4.4342,4.389,4.3641,4.2892,4.1951,4.1634,4.0818,3.9716,3.9428,3.9488,3.9667,3.9249,3.9039,3.897,3.828,3.789,3.7758,3.8032,3.8244,3.8384,3.8356,3.8214,3.7957,3.7915,3.7238,3.6064,3.5854,3.5284,3.4454,3.3625,3.2996,3.254,3.1681,3.0939,3.034,3.0016,2.9472,2.875,2.8981,2.9353,2.9827,3.0469,3.0661,3.0408,2.9772,2.9701,3.025,3.0568,3.097,3.1422,3.1611,3.1812,3.2079,3.174,3.1632,3.1881,3.1492,0.0,0.0,0.0,0.0,0.0,0.0,0.0,0.0,0.0,3.2542,3.2741,0.0,3.3879,0.0,3.5489,3.613,3.6228,3.6287,0.0,0.0,3.8392,3.9106,4.0517,4.1152,4.1654,4.2162,4.2657,4.3404,4.4708,4.4983,4.5468,4.6386,4.6325,4.6298,4.6667,4.6789,4.6944,4.7201,4.7303,4.7273,4.6799,4.6306,4.5977,4.5912,4.5848,4.5734,4.5685,4.5685,4.5685,4.5734,4.5832,4.5945,4.601,4.5924,4.5937,4.5825,4.5582,4.5222,4.4685,4.454,4.4319,4.3808,4.3126,4.3017,4.2451,4.1676,4.1264,4.1093,4.111,4.1086,4.1022,4.0859,4.036,3.9955,3.9676,4.0076,4.0249,4.0146,4.0166,3.9898,3.9432,3.9375,3.8546,3.7158,3.6949,3.624,3.5135,3.4466,3.3867,3.3223,3.2407,3.1701,3.1112,3.0804,3.0385,2.9851,2.9769,2.9947,3.0368,3.0768,3.1083,3.1244,3.0483,3.0358,3.0957,3.1072,3.1278,3.161,3.1869,3.2123,3.2355,3.2301,3.2429,3.2818,3.2513,3.2488,0.0,0.0,0.0,0.0,0.0,0.0,0.0,0.0,0.0,0.0,0.0,3.5318,3.5932,3.6568,3.7036,3.7249,3.7577,3.8221,3.9278,3.977,4.0479,4.1659,4.2067,4.2418,4.2762,4.327,4.3868,4.4558,4.4918,4.5408,4.6257,4.607,4.6049,4.6545,4.6712,4.6748,4.6651,4.6667,4.6617,4.6252,4.5904,4.5576,4.5497,4.5435,4.5372,4.5324,4.5292,4.5324,4.5388,4.5451,4.5561,4.5592,4.5421,4.5348,4.5328,4.5129,4.493,4.4921,4.449,4.3911,4.4597,4.4309,4.3779,4.3656,4.3764,4.3072,4.2578,4.228,4.2641,4.2647,4.2374,4.2494,4.2259,4.1793,4.2096,4.2121,4.1963,4.1835,4.1527,4.1128,4.0923,3.9985,3.8471,3.8159,3.7325,3.598,3.5439,3.4839,3.4181,3.3195,3.2461,3.1887,3.1373,3.1123,3.1123,3.0804,3.071,3.0905,3.1055,3.1478,3.2137,3.1444,3.1295,3.1804,3.1619,3.1625,3.1885,3.2107,3.2413,3.2697,3.3038,3.3435,3.3949,3.3653,3.3606,0.0,3.3718,0.0,0.0,0.0,0.0,0.0,0.0,0.0,0.0,3.6657,3.6932,3.7432,3.7653,3.7931,3.8328,3.9009,3.9723,4.0408,4.1022,4.1739,4.2568,4.2569,4.2711,4.3368,4.3857,4.4125,4.4305,4.4831,4.5241,4.5421,4.5471,4.5619,4.6044,4.6322,4.6222,4.5594,4.5588,4.5684,4.5633,4.5549,4.537,4.5263,4.5166,4.5219,4.506,4.5012,4.5076,4.5185,4.5166,4.5246,4.5516,4.4999,4.468,4.4767,4.4397,4.425,4.4748,4.4145,4.3291,4.4917,4.4623,4.4423,4.4234,4.4032,4.4034,4.3894,4.3614,4.3417,4.333,4.3356,4.3733,4.3852,4.3728,4.3483,4.3351,4.326,4.2605,4.2096,4.1806,4.1619,4.0905,3.9751,3.9209,3.8447,3.749,3.6875,3.6289,3.5674,3.4684,3.3889,3.3294,3.2354,3.1891,3.1891,0.0,0.0,0.0,3.1913,3.2086,3.2467,3.1782,3.1649,3.2093,3.1722,0.0,3.2261,3.2437,3.2778,3.3303,3.3707,0.0,0.0,0.0,0.0,0.0,0.0,0.0,0.0,0.0,0.0,0.0,3.7368,3.731,3.758,3.8045,3.8337,3.8392,3.9404,4.0174,4.0254,4.0936,4.1657,4.2378,4.2465,4.2808,4.3521,4.3459,4.3436,4.3535,4.3671,4.3953,4.4482,4.4729,4.5026,4.5506,4.5687,4.5522,4.5059,4.5428,4.5709,4.5719,4.5236,4.4935,4.4902,4.4456,4.4128,4.395,4.395,4.3968,4.4004,4.4004,4.3923,4.4032,4.395,4.4092,4.4256,4.4153,4.4097,4.4225,4.3786,4.3597,4.4284,4.3892,4.3193,4.5449,0.0,4.5316,4.5196,0.0,4.5218,4.5122,4.4926,4.4778,4.4669,4.4603,4.4977,4.4979,4.4617,4.4205,4.395,4.3797,4.3044,4.2566,4.2342,4.2117,4.1583,4.0723,3.9969,3.9258,3.853,3.7882,3.7225,3.6523,3.5949,3.5124,3.4088,3.3447,3.2989,3.2704,3.2803,3.2767,3.2606,3.2762,3.3044,3.3441,3.2883,3.2818,3.3271,3.2675,0.0,0.0,0.0,0.0,0.0,0.0,0.0,0.0,3.5723,0.0,3.6657,3.7099,3.7372,3.7453,3.8072,3.843,3.8464,3.9094,3.9196,3.8485,3.9382,3.9948,3.9918,4.0894,4.1506,4.1473,4.2111,4.2688,4.2973,4.327,4.3585,4.3846,4.3824,4.3702,4.3613,4.3598,4.3764,4.411,4.4158,4.4291,4.4655,4.4721,4.4622,4.4309,4.4711,4.5026,4.4772,4.4441,4.4191,4.4125,4.3878,4.3643,4.3702,4.3732,4.3776,4.3835,4.385,4.385,4.385,4.385,4.3879,4.3919,4.3714,4.349,4.3566,4.3113,4.2792,4.3212,4.2774,4.2205,4.6086,4.6609,4.6264,4.632,4.6555,4.6319,4.6149,4.6068,0.0,0.0,0.0,4.6116,4.5926,4.5382,4.4893,4.4484,4.4201,4.3506,4.3019,4.2749,4.2555,4.216,4.1604,4.0684,3.9964,3.9459,3.8683,3.7968,3.7326,3.7008,3.6267,3.5114,3.4633,3.4073,3.3553,3.3681,3.3629,3.3322,3.3577,3.3957,3.4416,3.4041,3.4074,3.4566,3.3877,3.3611,3.3934,3.3994,3.4175,3.4596,3.5025,3.5678,3.6637,3.6861,3.734,3.8057,3.8249,3.8294,3.8306,3.8853,3.9254,3.9377,4.0493,4.0696,3.9445,4.0629,4.1407,4.1394,4.2083,4.2449,4.2348,4.3008,4.3404,4.3292,4.38,4.4083,4.3967,4.3927,4.3839,4.3687,4.3628,4.3598,4.3631,4.3631,4.3598,4.3631,4.3746,4.3598,4.3664,4.4143,4.4309,4.3845,4.3731,4.3646,4.3658,4.3706,4.3717,4.3879,4.3971,4.4029,4.4097,4.4155,4.4169,4.4184,4.4069,4.3982,4.3944,4.3401,4.2992,4.3083,4.249,4.2011,4.2063,4.1534,4.1102,4.6768,4.7489,4.7158,4.7419,4.7927,4.7061,4.6719,4.6756,4.6756,4.6741,4.6739,4.7008,4.7086,4.6937,4.633,4.5702,4.5063,4.4251,4.3525,4.297,4.2749,4.2618,4.2441,4.1273,4.0655,4.0498,3.9312,3.8664,3.8462,3.7828,3.7339,3.7011,3.5891,3.49,3.4322,3.4445,3.4513,3.4462,3.4332,3.4428,3.4664,3.4464,3.4551,3.4834,3.4632,3.475,3.5298,3.568,3.615,3.667,3.7047,3.7453,3.7838,3.7978,3.8127,3.8276,3.8749,3.9052,3.9064,3.9599,4.0202,4.0832,4.1102,4.1102,4.0967,4.1644,4.2164,4.2164,4.2828,4.3254,4.326,4.3916,4.4342,4.4328,4.4282,4.4284,4.4241,4.4073,4.3898,4.3868,4.3687,4.3613,4.3628,4.3628,4.3628,4.3613,4.3658,4.3613,4.3661,4.3664,4.3712,4.3631,4.3598,4.3673,4.3824,4.3868,4.3942,4.4039,4.4184,4.4284,4.4307,4.4339,4.4361,4.4429,4.3936,4.3592,4.362,4.3071,4.2704,4.2673,4.2056,4.1541,4.1507,4.0854,4.0506,4.7719,4.7951,4.8247,4.8399,4.8456,4.7717,4.751,4.7612,4.7255,4.7106,4.7127,4.7244,4.7309,4.7228,4.66,4.6151,4.5792,4.4693,4.4005,4.3677,4.3219,4.301,4.2941,4.2089,4.1464,4.1078,4.0137,3.9409,3.8962,3.8593,3.8207,3.7687,3.6365,3.5522,3.5229,3.5045,3.503,3.5113,3.4948,3.4931,3.5129,3.524,3.5518,3.5876,3.5709,3.5872,3.641,3.6552,3.6853,3.7295,3.7687,3.8224,3.8881,3.9009,3.9273,3.9673,3.9838,3.99,3.99,4.0417,4.1001,4.1758,4.2172,4.2374,4.2408,4.2679,4.2882,4.2929,4.3606,4.4045,4.4045,4.4398,4.4567,4.4567,4.4511,4.4426,4.4341,4.4212,4.4083,4.3996,4.3923,4.3879,4.3879,4.3879,4.3879,4.3864,4.3879,4.3879,4.3864,4.3864,4.3835,4.3809,4.382,4.3894,4.3981,4.4068,4.4169,4.4293,4.4483,4.4603,4.4694,4.4565,4.4299,4.4264,4.3731,4.3313,4.3323,4.274,4.2342,4.212,4.1573,4.1054,4.078,4.0404,4.0248,4.8714,4.8531,4.9174,4.9267,4.8938,4.8568,4.838,4.8237,4.7758,4.7459,4.7309,4.7309,4.7309,4.7249,4.6749,4.645,4.6151,4.5095,4.4436,4.4237,4.3609,4.329,4.323,4.269,4.2032,4.1373,4.0726,3.9994,3.9252,3.9174,3.8792,3.7985,3.6961,3.6416,3.6302,3.5961,3.5905,3.6102,3.5873,3.5753,3.5667,3.5973,3.6398,3.6799,3.6792,3.7029,3.7492,3.7511,3.7693,3.8106,3.8446,3.905,3.9811,3.9939,4.0262,4.0802,4.0655,4.0554,4.0672,4.0981,4.1576,4.2489,4.3051,4.3443,4.3626,4.366,4.366,4.3741,4.4215,4.4567,4.4533,4.4567,4.4567,4.4567,4.4567,4.4539,4.4421,4.4364,4.4321,4.4255,4.4227,4.4198,4.4198,4.4198,4.4198,4.4198,4.4198,4.4198,4.4198,4.4078,4.3915,4.3891,4.3891,4.3781,4.379,4.3797,4.3902,4.4122,4.4279,4.4365,4.4516,4.4204,4.4018,4.4004,4.3501,4.3076,4.2938,4.2395,4.1909,4.1711,4.1247,4.0712,4.0467,4.0322,4.0188,4.9624,4.9575,4.9863,4.9921,4.9808,4.9908,4.9329,4.8386,4.8229,4.7848,4.7369,4.7309,4.7309,4.7309,4.7219,4.689,4.63,4.5544,4.4885,4.4267,4.3609,4.329,4.326,4.269,4.2051,4.1403,4.0756,4.0109,3.9445,3.9385,3.9044,3.8417,3.8237,3.7918,3.7575,3.7459,3.7644,3.8027,3.7659,3.7044,3.6225,3.6476,3.6877,3.7328,3.7749,3.8232,3.8726,3.909,3.9489,3.9985,4.0148,4.0389,4.0732,4.0779,4.0825,4.0883,4.0655,4.0672,4.1112,4.1183,4.1847,4.3118,4.3403,4.3755,4.4378,4.4479,4.4513,4.4479,4.4547,4.4581,4.4567,4.4615,4.4595,4.4643,4.4643,4.4657,4.4706,4.4589,4.4533,4.472,4.4575,4.4477,4.4505,4.4505,4.4471,4.4533,4.4533,4.4465,4.4364,4.4027,4.3654,4.3586,4.3449,4.3124,4.2895,4.2783,4.3098,4.3173,4.3313,4.3614,4.3749,4.3793,4.373,4.3625,4.315,4.2719,4.2544,4.2066,4.1556,4.1511,4.1197,4.0787,4.0558,4.0461,4.0412,5.0498,4.9965,5.0346,5.0579,5.0617,5.0352,4.992,4.9381,4.8626,4.8139,4.7848,4.7489,4.7309,4.7309,4.7309,4.716,4.6839,4.6202,4.5523,4.4855,4.4207,4.3678,4.329,4.304,4.2581,4.1972,4.1313,4.0655,4.0038,3.9619,3.9314,3.912,3.8777,3.8586,3.8605,3.8327,3.8362,3.8769,3.8826,3.8701,3.8448,3.7768,3.7535,3.7857,3.8357,3.8788,3.9161,3.9554,3.9897,4.0263,4.0436,4.0631,4.0871,4.0894,4.0894,4.0905,4.1077,4.1426,4.2027,4.2424,4.3172,4.4259,4.4341,4.4511,4.4797,4.4831,4.4831,4.4817,4.4796,4.4706,4.4706,4.4776,4.4831,4.4831,4.4845,4.4858,4.4913,4.494,4.4947,4.5002,4.5029,4.5042,4.5056,4.5056,4.5021,4.5021,4.5008,4.4871,4.4399,4.4097,4.3627,4.2958,4.2676,4.2689,4.2655,4.2932,4.3062,4.3212,4.3407,4.3565,4.364,4.3337,4.3242,4.3311,4.278,4.2355,4.2284,4.2075,4.1739,4.1549,4.1279,4.0964,4.0764,4.0667,4.0607,5.1398,5.0645,5.084,5.1011,5.1146,5.0697,5.0345,5.0106,4.9224,4.8626,4.8237,4.7788,4.748,4.7374,4.7331,4.7309,4.7219,4.66,4.6031,4.5514,4.4706,4.4057,4.3589,4.3349,4.3,4.2391,4.1882,4.1272,4.0501,3.9811,3.9607,3.973,3.9342,3.9356,3.9736,3.9363,3.9443,3.9896,4.004,4.0224,4.0399,3.9486,3.8897,3.8997,3.9448,3.9852,4.0041,4.0333,4.0619,4.0921,4.1,4.1047,4.1073,4.1085,4.1016,4.0879,4.1351,4.1958,4.2723,4.3431,4.4182,4.4966,4.513,4.5096,4.513,4.5096,4.5096,4.5083,4.5042,4.5022,4.4872,4.4981,4.5063,4.5076,4.5103,4.511,4.5163,4.5283,4.5272,4.5174,4.5373,4.5637,4.5637,4.5624,4.5637,4.5602,4.5416,4.5126,4.4476,4.4061,4.337,4.2507,4.223,4.2182,4.2472,4.2559,4.2879,4.3009,4.3034,4.3149,4.3472,4.2941,4.2668,4.2698,4.2289,4.2221,4.2303,4.2175,4.1977,4.1692,4.1426,4.1221,4.107,4.093,4.0894,5.2348,5.1689,5.1333,5.1182,5.1176,5.1146,5.0787,5.0255,5.0099,4.9441,4.8468,4.8311,4.8009,4.7619,4.7499,4.7309,4.7241,4.6672,4.6343,4.6103,4.4996,4.4317,4.4227,4.3609,4.3,4.253,4.234,4.1776,4.0751,4.0088,3.9844,4.0178,4.0183,4.043,4.0911,4.0901,4.1281,4.171,4.1467,4.1471,4.1794,4.1525,4.1215,4.1125,4.1365,4.159,4.1869,4.1957,4.2105,4.237,4.2341,4.2133,4.1647,4.1604,4.1321,4.0798,4.1386,4.2156,4.2924,4.3713,4.45,4.5238,4.5415,4.5402,4.5428,4.5428,4.5428,4.5389,4.5507,4.5415,4.5123,4.5177,4.523,4.5243,4.5323,4.5455,4.5572,4.5597,4.5446,4.5127,4.546,4.5874,4.6074,4.6144,4.6144,4.6003,4.5535,4.4985,4.4727,4.3746,4.294,4.2612,4.2188,4.1776,4.1588,4.1903,4.1968,4.2115,4.2414,4.2228,4.214,4.2087,4.215,4.2259,4.2348,4.2384,4.245,4.2333,4.2132,4.192,4.1736,4.1549,4.138,4.1255,4.122,5.2256,5.1416,5.1272,5.1206,5.1206,5.1206,5.1056,5.0787,5.0398,5.0094,4.9719,4.9351,4.889,4.8494,4.8408,4.8175,4.773,4.751,4.7157,4.6764,4.622,4.5524,4.4569,4.4278,4.3748,4.302,4.2707,4.2247,4.1619,4.1413,4.1301,4.1252,4.1365,4.1526,4.1716,4.1736,4.2077,4.2663,4.2635,4.281,4.312,4.3256,4.326,4.325,4.2425,4.2051,4.224,4.23,4.2485,4.2826,4.2805,4.2766,4.2652,4.2609,4.2543,4.2423,4.3019,4.3624,4.4161,4.4817,4.5388,4.5822,4.593,4.5895,4.5895,4.5895,4.5895,4.5907,4.5933,4.587,4.5803,4.5662,4.5611,4.5679,4.5743,4.5867,4.5888,4.5662,4.5291,4.5105,4.5153,4.5233,4.5798,4.5951,4.6164,4.653,4.601,4.5302,4.4678,4.3735,4.2889,4.2399,4.2067,4.1888,4.1863,4.1848,4.1891,4.1987,4.2108,4.2196,4.2188,4.2282,4.2379,4.2399,4.2496,4.2566,4.2566,4.246,4.2262,4.2184,4.2005,4.1845,4.1681,4.1591,4.1569,5.2258,5.1295,5.1206,5.1206,5.1206,5.1206,5.1206,5.1169,5.082,5.0628,5.0517,5.0252,4.9929,4.956,4.9381,4.913,4.8691,4.8276,4.7764,4.7338,4.7105,4.6436,4.5526,4.5002,4.4469,4.3827,4.3169,4.2743,4.2541,4.2572,4.2576,4.2514,4.2722,4.2912,4.3057,4.2896,4.3083,4.3609,4.3593,4.3684,4.4006,4.425,4.4463,4.4495,4.3634,4.3125,4.3179,4.3252,4.3384,4.3588,4.37,4.3688,4.3574,4.336,4.3331,4.3523,4.4089,4.4655,4.5102,4.5686,4.6156,4.6435,4.6471,4.6471,4.6471,4.6471,4.6471,4.6471,4.6471,4.6471,4.6435,4.6301,4.6191,4.6228,4.6205,4.6326,4.6376,4.5858,4.5408,4.5086,4.4593,4.4689,4.5336,4.549,4.5895,4.6621,4.5859,4.4968,4.4628,4.374,4.2923,4.2316,4.2255,4.2261,4.2236,4.2215,4.2146,4.2173,4.2215,4.2277,4.2328,4.2455,4.2526,4.2556,4.2596,4.2629,4.2629,4.258,4.25,4.2409,4.2287,4.2107,4.2048,4.1984,4.1927,5.2426,5.1325,5.1206,5.1206,5.1206,5.1206,5.1206,5.1246,5.1426,5.1203,5.094,5.1127,5.1063,5.07,5.0368,5.0175,5.0009,4.8921,4.8227,4.8012,4.7442,4.7117,4.6853,4.5788,4.518,4.4867,4.3854,4.3468,4.363,4.3554,4.3623,4.3947,4.4203,4.4509,4.5209,4.4489,4.4476,4.4788,4.4393,4.4231,4.4483,4.4716,4.4938,4.5132,4.5144,4.5171,4.5029,4.4947,4.4871,4.4932,4.5039,4.4892,4.4375,4.3935,4.3572,4.3939,4.4525,4.5081,4.5552,4.6236,4.6708,4.6928,4.6973,4.7009,4.7009,4.7009,4.7009,4.695,4.6962,4.7009,4.6998,4.6975,4.6836,4.6661,4.6696,4.6801,4.6821,4.6338,4.567,4.4945,4.4186,4.4181,4.4731,4.4982,4.5306,4.5702,4.5018,4.4289,4.4545,4.3591,4.2759,4.2596,4.25,4.246,4.253,4.258,4.246,4.2369,4.2435,4.2465,4.246,4.2566,4.2625,4.2629,4.2697,4.2765,4.2775,4.2691,4.2678,4.2589,4.25,4.243,4.2379,4.2328,4.2292,5.2665,5.1858,5.1385,5.1206,5.1206,5.1206,5.1299,5.1486,5.1572,5.1751,5.2009,5.2211,5.2189,5.2087,5.1914,5.1717,5.1401,5.0474,4.9646,4.8996,4.8676,4.8234,4.77,4.7269,4.654,4.5665,4.4941,4.4713,4.4909,4.5177,4.5281,4.5158,4.5517,4.5652,4.5706,4.5534,4.5727,4.6163,4.6005,4.6061,4.6405,4.6498,4.6652,4.6866,4.7076,4.7237,4.7255,4.6086,4.5502,4.5554,4.5688,4.5689,4.5571,4.5423,4.5453,4.5646,4.5917,4.6283,4.6673,4.693,4.7198,4.7421,4.7475,4.7486,4.7486,4.7475,4.7443,4.7363,4.7432,4.7454,4.7363,4.7432,4.7345,4.7054,4.7054,4.7086,4.6972,4.6094,4.4803,4.3706,4.3258,4.3504,4.414,4.4367,4.4682,4.5332,4.462,4.4131,4.4071,4.3474,4.2714,4.2629,4.2619,4.2639,4.2658,4.2668,4.2609,4.254,4.255,4.2596,4.2615,4.2639,4.2697,4.2746,4.2823,4.2861,4.2871,4.2852,4.2804,4.2802,4.2688,4.2658,4.2668,4.2658,4.2613,5.3025,5.2157,5.1738,5.1415,5.1206,5.1206,5.1369,5.1595,5.178,5.2215,5.2765,5.3122,5.3312,5.3365,5.3281,5.3119,5.2815,5.2145,5.1335,5.035,4.9696,4.9222,4.8684,4.8434,4.7778,4.6754,4.6228,4.6116,4.623,4.6535,4.6549,4.6448,4.6832,4.7106,4.6938,4.6843,4.6982,4.7291,4.7155,4.7193,4.7414,4.7624,4.7803,4.7966,4.8185,4.843,4.8502,4.7487,4.6742,4.646,4.6305,4.6314,4.6483,4.6483,4.6602,4.6766,4.687,4.7006,4.7396,4.7446,4.7589,4.7747,4.7824,4.7824,4.7824,4.7824,4.7783,4.7705,4.7736,4.7793,4.7705,4.7736,4.772,4.7515,4.7432,4.7266,4.6924,4.5889,4.473,4.3681,4.3086,4.3187,4.3479,4.3679,4.3978,4.4548,4.4186,4.386,4.3756,4.3375,4.2956,4.2746,4.2729,4.2765,4.2736,4.2736,4.2736,4.2707,4.2688,4.2678,4.2714,4.2765,4.2833,4.2806,4.2854,4.2899,4.2863,4.2873,4.288,4.2861,4.2888,4.2907,4.288,4.2937,4.291,5.3473,5.2366,5.2276,5.1887,5.1349,5.1342,5.1476,5.1665,5.2101,5.2577,5.3113,5.3714,5.4285,5.4504,5.4294,5.4229,5.4316,5.368,5.2993,5.2114,5.1106,5.0287,4.9891,4.929,4.8644,4.8066,4.7682,4.7558,4.7566,4.7701,4.762,4.7787,4.8132,4.8468,4.856,4.824,4.8146,4.8358,4.7983,4.7878,4.8024,4.8215,4.8443,4.8671,4.8966,4.9205,4.9343,4.9218,4.8658,4.7655,4.7191,4.7097,4.7105,4.7126,4.7218,4.727,4.7287,4.745,4.7689,4.7778,4.788,4.8002,4.8012,4.8012,4.8022,4.8012,4.8002,4.7982,4.7992,4.8002,4.7992,4.8012,4.7992,4.7972,4.7814,4.7384,4.6613,4.5852,4.5128,4.4331,4.3544,4.3109,4.3399,4.3363,4.3689,4.3978,4.3761,4.3643,4.3715,4.3479,4.3027,4.2863,4.2835,4.2825,4.2787,4.2787,4.2787,4.2814,4.2804,4.2785,4.2775,4.2852,4.2899,4.2873,4.2882,4.2892,4.2892,4.2892,4.2947,4.2947,4.3011,4.3077,4.3132,4.3142,4.3178,5.4012,5.3623,5.3144,5.2546,5.2031,5.2167,5.2078,5.1986,5.2435,5.3059,5.354,5.3931,5.4624,5.5152,5.5146,5.5272,5.5344,5.4901,5.4489,5.4143,5.3317,5.2016,5.0902,5.0123,4.9691,4.9457,4.917,4.9026,4.9061,4.9354,4.9327,4.8912,4.9284,4.9351,4.9068,4.9146,4.9331,4.9487,4.9536,4.9555,4.9756,4.9948,5.0233,5.0483,5.0705,5.0943,5.1056,5.0773,5.015,4.9209,4.8982,4.8701,4.8398,4.8359,4.8222,4.7838,4.7756,4.7798,4.8045,4.8161,4.8194,4.8209,4.8383,4.8219,4.8219,4.8219,4.819,4.8187,4.817,4.818,4.8177,4.817,4.818,4.8148,4.8028,4.7589,4.69,4.6471,4.5979,4.5148,4.4775,4.4548,4.4512,4.4558,4.4621,4.4693,4.4295,4.3761,4.387,4.3471,4.2892,4.2892,4.2873,4.2882,4.2882,4.2882,4.2882,4.2873,4.2863,4.288,4.288,4.2899,4.2882,4.2892,4.2892,4.2892,4.2892,4.2892,4.2965,4.3003,4.3095,4.3151,4.3269,4.3341,4.334,5.4461,5.4162,5.3773,5.3307,5.2834,5.2947,5.3068,5.3223,5.3643,5.4229,5.4837,5.5388,5.578,5.6141,5.623,5.6288,5.6277,5.5902,5.5539,5.5111,5.451,5.3367,5.209,5.1233,5.0961,5.0972,5.0583,5.041,5.0415,5.0643,5.0425,5.0171,5.0173,5.0067,4.9972,4.9771,4.9942,5.0165,5.0383,5.0578,5.0797,5.1066,5.1228,5.1434,5.1697,5.1956,5.2042,5.1846,5.118,5.0198,4.9895,4.9825,4.9578,4.9527,4.9304,4.8894,4.8935,4.909,4.9192,4.9252,4.9311,4.9351,4.9324,4.915,4.8967,4.882,4.8754,4.8302,4.8304,4.8258,4.8238,4.8267,4.8267,4.8265,4.8161,4.7879,4.7312,4.6904,4.6501,4.5969,4.5556,4.5309,4.5309,4.5309,4.5309,4.5128,4.4512,4.4196,4.4015,4.3363,4.2892,4.2892,4.2892,4.2892,4.2892,4.2892,4.2892,4.2892,4.2892,4.2892,4.2892,4.2892,4.2892,4.2892,4.2892,4.2901,4.2901,4.2956,4.3003,4.3095,4.3151,4.3242,4.3359,4.3438,4.3445,5.485,5.4311,5.4311,5.407,5.3748,5.3785,5.4087,5.4707,5.5144,5.5776,5.6439,5.7238,5.7249,5.7273,5.7243,5.7225,5.6826,5.6622,5.6282,5.579,5.5206,5.4439,5.364,5.2623,5.2347,5.2325,5.1939,5.1726,5.1679,5.148,5.1373,5.1364,5.1029,5.0963,5.1089,5.0719,5.0549,5.1004,5.1316,5.1514,5.1701,5.199,5.2243,5.2334,5.2341,5.2522,5.2638,5.2545,5.1972,5.0504,5.0529,5.0663,5.0613,5.0561,5.0451,5.0316,5.0279,5.0403,5.056,5.0485,5.0682,5.0582,5.0618,5.0545,4.9858,4.9564,4.9187,4.8654,4.837,4.8287,4.8287,4.8296,4.8296,4.8287,4.8277,4.8209,4.7962,4.7312,4.6842,4.6812,4.6068,4.5655,4.5562,4.5562,4.5635,4.6132,4.5417,4.491,4.444,4.3797,4.329,4.2892,4.2892,4.2892,4.2892,4.2892,4.2892,4.2892,4.2892,4.2892,4.2892,4.2892,4.2892,4.2892,4.2892,4.2947,4.2965,4.3003,4.3086,4.3178,4.3269,4.335,4.3429,4.3437,4.3489,5.5119,5.497,5.4995,5.476,5.4484,5.4782,5.4979,5.5155,5.5785,5.655,5.7066,5.7505,5.7892,5.8252,5.7851,5.7496,5.7461,5.7017,5.6677,5.6682,5.6152,5.5932,5.5378,5.4285,5.3648,5.3536,5.3073,5.2925,5.2944,5.2976,5.295,5.2659,5.2557,5.2628,5.2319,5.2352,5.2579,5.2795,5.2957,5.3074,5.3219,5.3463,5.3715,5.383,5.3592,5.3456,5.3403,5.3123,5.2747,5.2492,5.2356,5.2118,5.1726,5.1647,5.1417,5.1004,5.0841,5.0835,5.0808,5.0929,5.0839,5.0986,5.1022,5.0729,5.0545,5.0004,4.9637,4.9197,4.8746,4.8406,4.8296,4.8296,4.8296,4.8296,4.8296,4.8287,4.8192,4.7995,4.7756,4.7589,4.7409,4.7285,4.713,4.7011,4.7011,4.7037,4.6457,4.5743,4.5019,4.4295,4.3725,4.3181,4.2928,4.2928,4.2892,4.2892,4.2892,4.2892,4.2892,4.2956,4.2956,4.2956,4.2956,4.2947,4.2892,4.2956,4.3022,4.3059,4.3151,4.3269,4.3368,4.3429,4.3482,4.3489,4.3523,5.5234,5.5204,5.533,5.5395,5.5512,5.5936,5.6293,5.6666,5.734,5.7919,5.8399,5.8829,5.9088,5.9037,5.8797,5.8495,5.7864,5.7282,5.7044,5.7076,5.691,5.6939,5.6795,5.5938,5.5164,5.4812,5.4244,5.4025,5.4059,5.3986,5.382,5.3748,5.3671,5.351,5.3416,5.3486,5.3419,5.3651,5.3922,5.4106,5.4235,5.4424,5.4613,5.4786,5.4555,5.4406,5.452,5.434,5.4221,5.4118,5.3836,5.3308,5.2737,5.2564,5.2307,5.204,5.193,5.193,5.193,5.194,5.1966,5.1893,5.1893,5.1683,5.1463,5.0922,5.0555,5.0115,4.9444,4.882,4.837,4.8296,4.8333,4.8296,4.8333,4.8296,4.8287,4.8246,4.8158,4.8055,4.7891,4.7809,4.7819,4.7752,4.7663,4.7384,4.6794,4.6106,4.5671,4.4947,4.4114,4.358,4.3109,4.2937,4.2928,4.2892,4.2892,4.2892,4.2892,4.2975,4.3003,4.3003,4.3003,4.2994,4.3003,4.305,4.3105,4.3187,4.3242,4.3341,4.3421,4.3445,4.3489,4.3506,4.354,5.5204,5.528,5.5531,5.5924,5.6409,5.6934,5.7598,5.8318,5.9062,5.939,5.9946,6.0527,6.0286,6.0068,5.9967,5.9319,5.8278,5.7634,5.7346,5.735,5.7483,5.7508,5.7429,5.7065,5.6614,5.604,5.5314,5.5043,5.4989,5.4724,5.4754,5.4717,5.437,5.4449,5.4472,5.4288,5.4362,5.4687,5.4857,5.4974,5.504,5.5179,5.5365,5.5499,5.5375,5.536,5.5437,5.5381,5.5375,5.5537,5.4961,5.4289,5.3728,5.3251,5.3214,5.313,5.2994,5.292,5.2884,5.3031,5.3031,5.3214,5.3141,5.2847,5.2307,5.1914,5.151,5.0959,5.0251,4.9517,4.881,4.892,4.8847,4.8773,4.8673,4.8526,4.847,4.8375,4.8217,4.8158,4.8085,4.8004,4.7896,4.7845,4.7772,4.7648,4.7032,4.6524,4.6116,4.5671,4.492,4.416,4.3725,4.3435,4.3399,4.3828,4.371,4.3356,4.3265,4.3249,4.3259,4.3087,4.3087,4.3123,4.3141,4.3187,4.3205,4.326,4.335,4.3421,4.3473,4.3489,4.3515,4.3523,4.3575,5.533,5.5556,5.5775,5.614,5.6724,5.7448,5.8197,5.886,5.9474,6.0131,6.0793,6.0981,6.1152,6.1111,6.0665,5.9722,5.8576,5.7876,5.7551,5.7588,5.7753,5.7845,5.7814,5.7857,5.7761,5.7455,5.666,5.6184,5.621,5.5936,5.5857,5.6034,5.5663,5.5616,5.5879,5.5971,5.5835,5.5989,5.6181,5.6284,5.6371,5.6485,5.6635,5.6734,5.644,5.6339,5.6237,5.5899,5.5574,5.5585,5.5475,5.5328,5.4913,5.3985,5.3434,5.3287,5.3324,5.3324,5.3214,5.3214,5.3214,5.3214,5.3214,5.3214,5.2847,5.2417,5.2013,5.1646,5.1096,5.0508,5.0435,5.0131,5.0288,5.0178,4.9738,4.938,4.926,4.8911,4.8458,4.8446,4.8304,4.8088,4.8018,4.7947,4.7896,4.7855,4.758,4.7088,4.6694,4.6337,4.5846,4.5111,4.4413,4.416,4.3978,4.4609,4.4839,4.4286,4.4078,4.3879,4.3725,4.3297,4.3187,4.347,4.336,4.3233,4.3295,4.3358,4.3402,4.3445,4.3489,4.3532,4.3558,4.3583,4.3659,5.5601,5.5973,5.6213,5.67,5.737,5.815,5.8824,5.9429,6.0109,6.0645,6.1044,6.1314,6.1486,6.1568,6.1374,6.0409,5.919,5.8115,5.7803,5.779,5.7954,5.8079,5.8081,5.8243,5.8438,5.8425,5.7947,5.7499,5.7453,5.708,5.7094,5.7138,5.6884,5.6794,5.691,5.6756,5.6795,5.6943,5.7046,5.7087,5.71,5.7226,5.7388,5.7473,5.7398,5.7273,5.7256,5.707,5.687,5.6785,5.6455,5.6271,5.5868,5.5207,5.4252,5.3959,5.3849,5.3618,5.3324,5.3214,5.3214,5.3214,5.3214,5.3214,5.3141,5.281,5.2417,5.2013,5.1793,5.1242,5.0802,5.0875,5.0802,5.0765,5.0445,5.0261,5.0115,4.9821,4.9397,4.8955,4.8593,4.836,4.8128,4.8068,4.7982,4.7941,4.7957,4.7626,4.7201,4.69,4.6553,4.6055,4.5328,4.5111,4.4939,4.5406,4.5756,4.5274,4.5002,4.4793,4.4629,4.4355,4.4154,4.4135,4.3915,4.3549,4.3393,4.3454,4.348,4.3506,4.3558,4.3592,4.3617,4.3659,4.3751,5.5948,5.6409,5.6724,5.7298,5.8081,5.8814,5.9419,6.0001,6.0708,6.1127,6.1334,6.1588,6.179,6.173,6.1367,6.0654,5.9563,5.8386,5.8004,5.7991,5.8153,5.8277,5.835,5.8509,5.8754,5.9046,5.923,5.9122,5.8644,5.8273,5.8265,5.8267,5.8082,5.7936,5.7917,5.7558,5.7319,5.7278,5.7161,5.7201,5.7264,5.74,5.7559,5.7798,5.7797,5.7867,5.7863,5.7813,5.7776,5.7666,5.7373,5.7031,5.6932,5.6429,5.5732,5.5023,5.4766,5.4289,5.3948,5.3765,5.3838,5.3618,5.3471,5.3398,5.3177,5.3067,5.2884,5.238,5.2207,5.205,5.161,5.1342,5.1389,5.1353,5.1263,5.1063,5.1009,5.0772,5.037,4.9843,4.9131,4.8678,4.8466,4.8161,4.8111,4.8088,4.8068,4.7982,4.7613,4.7385,4.7084,4.6776,4.6348,4.6093,4.604,4.6234,4.6401,4.611,4.5975,4.5911,4.5764,4.5645,4.5378,4.5019,4.4368,4.4046,4.3798,4.3549,4.3566,4.36,4.3634,4.3693,4.3775,4.3849,4.3929,5.6219,5.67,5.718,5.7848,5.861,5.934,5.9968,6.0591,6.0981,6.1437,6.1797,6.1903,6.2023,6.1838,6.0777,5.9869,5.9133,5.8517,5.8169,5.8207,5.8419,5.8544,5.8684,5.8858,5.9131,5.9467,5.9814,5.9959,5.9717,5.9471,5.9458,5.9522,5.9208,5.9078,5.9038,5.8438,5.8169,5.8115,5.7587,5.7324,5.746,5.7631,5.7763,5.7845,5.7916,5.7973,5.7997,5.7997,5.7997,5.796,5.7886,5.7813,5.785,5.7824,5.7299,5.6565,5.5941,5.5401,5.5218,5.5034,5.4803,5.4363,5.4205,5.3875,5.3434,5.3214,5.3141,5.3141,5.2994,5.2905,5.2685,5.2784,5.2847,5.2606,5.2226,5.2046,5.1919,5.1791,5.1389,5.103,5.0409,4.9495,4.8895,4.8544,4.8238,4.8217,4.8168,4.8165,4.8035,4.7789,4.7653,4.7344,4.7328,4.7109,4.7018,4.7203,4.7158,4.6929,4.6985,4.6975,4.6873,4.6726,4.6328,4.5912,4.5267,4.4586,4.416,4.3931,4.3758,4.3726,4.38,4.3889,4.3976,4.401,4.4094,5.7067,5.7448,5.7941,5.8564,5.9264,5.9968,6.0484,6.0961,6.1424,6.1736,6.1896,6.1697,6.1457,6.096,5.9911,5.9392,5.9044,5.8527,5.8348,5.8509,5.8684,5.8875,5.9081,5.9334,5.9599,5.9895,6.0183,6.0516,6.0509,6.0569,6.0528,6.0561,6.0258,6.0006,6.0007,5.9374,5.9115,5.8854,5.8424,5.8127,5.8166,5.8007,5.7845,5.7916,5.7973,5.7997,5.7997,5.7997,5.7997,5.7997,5.7997,5.7997,5.7997,5.796,5.7776,5.7556,5.7189,5.6539,5.5732,5.5658,5.5438,5.5071,5.4656,5.4032,5.3434,5.3214,5.3214,5.3177,5.3177,5.3198,5.3261,5.3235,5.3287,5.3191,5.2994,5.2941,5.2786,5.2675,5.2474,5.2087,5.17,5.0886,5.022,5.009,4.9682,4.9125,4.8976,4.8837,4.8561,4.824,4.8103,4.7957,4.806,4.8116,4.8025,4.8089,4.8034,4.7924,4.7996,4.7994,4.7947,4.7752,4.7405,4.7134,4.6755,4.5922,4.4868,4.4235,4.4025,4.3979,4.3984,4.4056,4.417,4.4288,4.4361,5.7965,5.8289,5.8601,5.9241,5.9968,6.0581,6.0891,6.1076,6.1455,6.1613,6.1475,6.112,6.0535,5.993,5.9392,5.9112,5.8935,5.8587,5.8595,5.8789,5.9046,5.9318,5.9535,5.9814,6.0072,6.0345,6.0594,6.0884,6.1123,6.1198,6.1286,6.1408,6.1088,6.0959,6.0747,6.0273,5.9832,5.9525,5.9207,5.9005,5.8847,5.8444,5.816,5.8047,5.7997,5.7997,5.7997,5.7997,5.7997,5.7997,5.7997,5.7997,5.7997,5.796,5.796,5.785,5.774,5.7421,5.6723,5.6393,5.6099,5.5658,5.4924,5.4069,5.3361,5.3225,5.322,5.323,5.3282,5.3324,5.3328,5.338,5.3404,5.3511,5.3506,5.3553,5.3583,5.3392,5.3328,5.3106,5.2819,5.2596,5.2085,5.1955,5.1333,5.0358,4.9886,4.9572,4.9167,4.8725,4.8467,4.832,4.8384,4.8532,4.8578,4.8605,4.8669,4.8741,4.8812,4.8844,4.8673,4.8641,4.8468,4.829,4.7992,4.7354,4.6378,4.5254,4.4268,4.4235,4.4244,4.4302,4.4395,4.4524,4.4592,5.8814,5.9219,5.9264,5.9751,6.0567,6.094,6.1017,6.0844,6.0948,6.0733,6.0328,6.0182,5.9776,5.9238,5.9096,5.8867,5.8361,5.8753,5.8944,5.9183,5.9501,5.9814,6.004,6.0262,6.0512,6.0914,6.1049,6.1241,6.1487,6.1587,6.1686,6.1734,6.1651,6.1842,6.1616,6.1064,6.0567,6.0285,6.0039,5.9712,5.9408,5.8991,5.8707,5.8168,5.8033,5.7997,5.7997,5.7997,5.7997,5.7997,5.7997,5.7997,5.7997,5.7997,5.7997,5.7997,5.7997,5.7751,5.7494,5.7384,5.731,5.6492,5.5438,5.4285,5.3582,5.334,5.3287,5.3318,5.339,5.3461,5.3511,5.3524,5.3593,5.3699,5.3785,5.3851,5.3926,5.3953,5.3887,5.3943,5.3775,5.3487,5.3403,5.3124,5.2364,5.1352,5.0657,5.0342,4.9714,4.9233,4.8818,4.8633,4.8596,4.8687,4.8804,4.8866,4.8916,4.901,4.9086,4.916,4.9188,4.919,4.9193,4.9029,4.8677,4.8288,4.7823,4.6742,4.5707,4.48,4.4496,4.4575,4.4667,4.4751,4.4833,5.9419,5.9957,5.9759,5.9879,6.0254,6.0758,6.0664,6.0295,6.0329,6.0019,5.9438,5.9404,5.9087,5.8689,5.8577,5.8692,5.8684,5.8995,5.9334,5.9667,5.9991,6.0227,6.0481,6.0712,6.0959,6.1211,6.1343,6.1523,6.1722,6.177,6.1876,6.1945,6.1978,6.1978,6.1824,6.1787,6.1547,6.1425,6.1126,6.0762,6.053,5.9564,5.9049,5.8792,5.8143,5.8033,5.7997,5.7997,5.7997,5.7997,5.7997,5.7997,5.7997,5.7997,5.7997,5.7997,5.7997,5.8008,5.8008,5.7946,5.7664,5.6923,5.5904,5.4932,5.4186,5.3779,5.3534,5.3511,5.3645,5.3844,5.3812,5.3813,5.3833,5.3944,5.411,5.4303,5.4365,5.4548,5.4461,5.4516,5.4369,5.4138,5.4138,5.4176,5.328,5.2335,5.1695,5.1046,5.0517,4.9904,4.9541,4.9187,4.9122,4.8996,4.9081,4.9148,4.9168,4.9257,4.9345,4.9407,4.9476,4.9574,4.9573,4.9475,4.9376,4.899,4.8534,4.7964,4.6992,4.571,4.5066,4.4889,4.4968,4.4995,4.5051,5.9664,6.0184,5.9988,5.9991,6.0218,6.0469,6.0199,5.9669,5.9734,5.937,5.8693,5.8715,5.8569,5.8291,5.8437,5.8684,5.9064,5.9401,5.9849,6.0151,6.045,6.0696,6.0923,6.1152,6.1314,6.1458,6.1559,6.175,6.1876,6.184,6.1937,6.2019,6.206,6.2073,6.2114,6.2225,6.2423,6.2369,6.2178,6.1666,6.1435,6.0627,5.9526,5.9306,5.8646,5.8253,5.8107,5.7997,5.7997,5.7997,5.7997,5.7997,5.7997,5.7997,5.7997,5.7997,5.8008,5.802,5.8042,5.7992,5.772,5.7004,5.6645,5.585,5.5184,5.4637,5.4699,5.46,5.4584,5.4568,5.468,5.5006,5.5153,5.541,5.5532,5.5647,5.5455,5.5496,5.5249,5.5069,5.4856,5.4546,5.4538,5.453,5.41,5.3254,5.2643,5.2076,5.1674,5.1094,5.0467,5.0065,4.9782,4.9602,4.942,4.9481,4.9542,4.9491,4.9611,4.9633,4.9705,4.9828,4.989,4.9821,4.9696,4.9591,4.922,4.8726,4.7593,4.6323,4.5758,4.5251,4.5159,4.5208,4.5202,5.9485,5.9881,5.9815,6.0135,6.0572,6.0107,5.9534,5.9043,5.9013,5.8678,5.8139,5.8217,5.8343,5.835,5.8719,5.9064,5.9418,5.9846,6.0262,6.0609,6.0914,6.1138,6.1299,6.1458,6.1587,6.1728,6.1784,6.184,6.2,6.1978,6.2073,6.2181,6.2185,6.2248,6.2225,6.2462,6.259,6.2579,6.2657,6.2266,6.1814,6.141,6.0529,5.9636,5.9086,5.8682,5.8143,5.7997,5.7997,5.7997,5.7997,5.7997,5.7997,5.7997,5.7997,5.7997,5.8008,5.8065,5.8167,5.8215,5.7855,5.7346,5.7127,5.6761,5.6267,5.609,5.6022,5.5781,5.6108,5.6303,5.6562,5.6651,5.6616,5.6589,5.6668,5.6673,5.647,5.6351,5.6094,5.5904,5.5337,5.4898,5.4875,5.4822,5.4635,5.4129,5.3503,5.3049,5.2657,5.2223,5.1563,5.1053,5.0701,5.0628,5.0425,4.9988,4.9875,4.9818,4.9896,5.0058,5.0,4.9984,5.0005,5.005,5.0057,4.9942,4.9786,4.9551,4.8386,4.7278,4.6124,4.5574,4.5476,4.5376,4.5351,5.958,5.9405,5.9194,5.9294,5.9576,5.9393,5.889,5.8355,5.8272,5.8191,5.8115,5.8205,5.8421,5.8736,5.9047,5.9453,5.9862,6.029,6.0727,6.0959,6.127,6.1473,6.1601,6.1672,6.182,6.1918,6.1923,6.1923,6.2028,6.2073,6.2141,6.2235,6.237,6.2462,6.2488,6.259,6.2641,6.2717,6.2731,6.2609,6.2328,6.1851,6.1117,6.004,5.9526,5.8866,5.8143,5.807,5.7997,5.7997,5.7997,5.7997,5.8008,5.8008,5.8008,5.8031,5.8065,5.8223,5.8367,5.8465,5.8444,5.8079,5.7724,5.7478,5.7273,5.679,5.6724,5.6871,5.7073,5.7105,5.694,5.7079,5.7086,5.7122,5.7179,5.7302,5.7195,5.718,5.7035,5.6845,5.6442,5.5613,5.5294,5.503,5.4875,5.4784,5.4245,5.3736,5.3327,5.3148,5.2688,5.2145,5.1797,5.1719,5.1535,5.1083,5.0816,5.083,5.0732,5.0651,5.0513,5.0336,5.017,5.0214,5.028,5.0312,5.0089,4.9833,4.9278,4.8345,4.7227,4.6134,4.5678,4.5539,4.5429,5.9192,5.8986,5.8593,5.8496,5.8607,5.8626,5.8321,5.7934,5.79,5.8009,5.8171,5.8314,5.8632,5.9064,5.9451,5.9846,6.0376,6.0712,6.1117,6.1314,6.1566,6.1736,6.1798,6.1854,6.1895,6.1978,6.2005,6.2005,6.2087,6.2168,6.2252,6.2384,6.2552,6.2629,6.2667,6.2692,6.2705,6.2768,6.2793,6.2793,6.2572,6.2242,6.1667,6.0811,6.0077,5.9269,5.8621,5.8217,5.7997,5.7997,5.7997,5.7997,5.8008,5.8042,5.8054,5.8099,5.8279,5.8443,5.8566,5.8801,5.8845,5.888,5.8393,5.8266,5.8362,5.8116,5.8026,5.8009,5.7897,5.7993,5.8051,5.811,5.8135,5.8205,5.8296,5.8417,5.8408,5.8422,5.8108,5.788,5.7384,5.6553,5.5715,5.5313,5.5061,5.5035,5.4933,5.4465,5.4035,5.389,5.37,5.3184,5.2788,5.2648,5.2493,5.2196,5.1977,5.1872,5.1713,5.1574,5.114,5.0997,5.0665,5.0377,5.0451,5.0473,5.0396,5.0097,4.9705,4.9187,4.8462,4.7329,4.6191,4.5927,4.5941,5.837,5.8564,5.8113,5.7915,5.7934,5.8001,5.7934,5.79,5.7918,5.8027,5.8259,5.8579,5.8944,5.9351,5.9881,6.0325,6.0757,6.1049,6.1357,6.163,6.1756,6.1868,6.1937,6.1964,6.1992,6.1992,6.2033,6.2114,6.2208,6.2265,6.2397,6.2565,6.2692,6.2743,6.2755,6.2768,6.2768,6.2793,6.2793,6.2793,6.2719,6.2683,6.2144,6.141,6.0603,5.982,5.9086,5.8425,5.8107,5.7997,5.7997,5.7997,5.8042,5.8122,5.8156,5.829,5.8529,5.8661,5.8845,5.9081,5.9272,5.9383,5.9308,5.9344,5.935,5.9218,5.9152,5.9235,5.9271,5.9562,5.974,5.9748,5.9726,5.9809,5.9892,5.9891,5.9836,5.9636,5.9258,5.8845,5.8311,5.7509,5.6465,5.591,5.545,5.5195,5.5171,5.5075,5.4745,5.4731,5.4493,5.412,5.3767,5.3559,5.3389,5.3301,5.3035,5.2908,5.2805,5.2638,5.2167,5.1698,5.1589,5.1305,5.0839,5.0655,5.0556,5.0465,5.0264,4.9774,4.9346,4.8414,4.7194,4.6891,4.6751,5.8283,5.7909,5.791,5.79,5.79,5.79,5.79,5.7918,5.8027,5.8241,5.8437,5.8771,5.9217,5.9699,6.0215,6.0635,6.1013,6.1386,6.1601,6.1784,6.1895,6.195,6.1992,6.2019,6.206,6.2128,6.2181,6.2199,6.2367,6.241,6.2539,6.2717,6.2768,6.2793,6.2793,6.2793,6.2793,6.2793,6.2793,6.2793,6.2793,6.2793,6.2328,6.1704,6.086,6.0077,5.9306,5.8425,5.807,5.7997,5.7997,5.8008,5.8008,5.8122,5.8234,5.854,5.8729,5.8865,5.912,5.9318,5.951,5.971,5.9736,5.9753,5.9803,5.9869,5.995,6.0005,6.0022,6.0068,6.0137,6.0174,6.0212,6.0279,6.0316,6.0306,6.0251,6.0144,5.9797,5.9606,5.9071,5.8154,5.7154,5.6428,5.5968,5.5593,5.5313,5.53,5.528,5.5215,5.5119,5.4744,5.4625,5.4364,5.4594,5.462,5.4231,5.3968,5.3857,5.3587,5.2997,5.2603,5.2516,5.2247,5.1785,5.1206,5.0731,5.0668,5.0745,5.0592,5.0164,4.9202,4.8394,4.8043,4.7658,5.8029,5.7769,5.7845,5.79,5.79,5.79,5.79,5.7936,5.8099,5.8332,5.8614,5.9012,5.95,6.0005,6.0543,6.1004,6.1314,6.1587,6.1798,6.1895,6.2005,6.206,6.2087,6.2128,6.2222,6.2288,6.2291,6.2331,6.2511,6.2603,6.273,6.2768,6.2793,6.2793,6.2793,6.2793,6.2793,6.2793,6.2793,6.2793,6.2793,6.2793,6.2438,6.1961,6.108,6.0187,5.9563,5.8694,5.807,5.7997,5.7997,5.8031,5.8111,5.8268,5.8519,5.8791,5.8945,5.9178,5.9418,5.9589,5.977,5.9926,6.0013,6.0075,6.0045,6.0083,6.0122,6.0167,6.0204,6.0234,6.0256,6.027,6.0323,6.0337,6.0373,6.037,6.0377,6.0377,6.03,6.0179,5.9568,5.872,5.788,5.7167,5.6517,5.6084,5.5626,5.5365,5.5345,5.5294,5.5313,5.5115,5.5161,5.5161,5.5383,5.5408,5.5056,5.4742,5.4789,5.4434,5.3799,5.3476,5.3393,5.3074,5.2672,5.2077,5.1438,5.1246,5.1202,5.1015,5.0784,5.0091,4.9399,4.8971,4.8586,5.7769,5.79,5.79,5.7832,5.7798,5.7764,5.773,5.7767,5.7829,5.83,5.8702,5.9265,5.9795,6.0243,6.0803,6.1226,6.1501,6.1728,6.1909,6.2005,6.2114,6.2195,6.2262,6.2318,6.2381,6.2407,6.2459,6.2475,6.2603,6.2705,6.2768,6.2793,6.2793,6.2793,6.2793,6.283,6.2855,6.2855,6.2867,6.2867,6.2805,6.2793,6.2756,6.2462,6.1435,6.0297,5.993,5.9098,5.7997,5.7997,5.8031,5.8077,5.8312,5.8508,5.8743,5.9024,5.9225,5.9454,5.9664,5.9798,5.992,6.0099,6.0204,6.025,6.025,6.0264,6.0294,6.0263,6.0292,6.0306,6.032,6.0328,6.0373,6.038,6.0401,6.0377,6.0377,6.0377,6.0377,6.0262,5.9988,5.9147,5.8529,5.7778,5.6881,5.6524,5.5925,5.5486,5.539,5.5377,5.5409,5.539,5.5428,5.5433,5.5451,5.5476,5.5473,5.5393,5.5439,5.527,5.4628,5.4391,5.4274,5.3851,5.3423,5.2846,5.2356,5.2125,5.1779,5.1241,5.1015,5.0822,5.0361,4.9822,4.9553,5.7845,5.79,5.79,5.7595,5.7103,5.707,5.682,5.6469,5.6627,5.7449,5.8651,5.9365,5.994,6.0403,6.0983,6.1401,6.1623,6.1862,6.2005,6.2114,6.2222,6.2278,6.2367,6.2397,6.2498,6.2526,6.2578,6.2616,6.2717,6.278,6.2793,6.2793,6.2793,6.2793,6.283,6.288,6.2929,6.2953,6.3002,6.2953,6.2855,6.2805,6.2756,6.2316,6.1398,6.0481,5.9905,5.8926,5.8228,5.8008,5.8099,5.8279,5.8561,5.8692,5.8975,5.9243,5.9508,5.9706,5.9864,5.9991,6.0114,6.0182,6.0294,6.033,6.0359,6.038,6.0349,6.0356,6.0363,6.037,6.0377,6.0377,6.0377,6.0377,6.0377,6.0377,6.0377,6.0377,6.0377,6.0262,6.0148,5.9689,5.9109,5.8358,5.7461,5.6639,5.5893,5.5421,5.547,5.5482,5.5488,5.5476,5.5476,5.5505,5.5517,5.5502,5.5543,5.5566,5.5566,5.5473,5.5335,5.5154,5.4895,5.4511,5.4087,5.3626,5.3241,5.2972,5.2549,5.1741,5.1356,5.1202,5.0822,5.0284,5.0284,5.6934,5.6934,5.6934,5.6697,5.6359,5.6308,5.6194,5.6029,5.615,5.6867,5.7995,5.8953,5.9816,6.0468,6.1146,6.1501,6.1722,6.1932,6.206,6.2181,6.2301,6.2407,6.2472,6.2526,6.2603,6.2679,6.2692,6.273,6.2793,6.2793,6.2793,6.2793,6.2793,6.283,6.288,6.2978,6.3039,6.3087,6.3171,6.3111,6.2966,6.2929,6.2842,6.2389,6.1484,6.0603,5.9892,5.8986,5.8297,5.819,5.8345,5.8582,5.8825,5.9053,5.9262,5.9496,5.9732,5.9912,6.0083,6.0174,6.0226,6.0316,6.0344,6.0387,6.0387,6.037,6.037,6.037,6.037,6.0377,6.0377,6.0377,6.0377,6.0377,6.0377,6.0377,6.0377,6.0377,6.0377,6.0339,6.0269,6.0207,5.964,5.9138,5.8246,5.7487,5.658,5.5723,5.5694,5.5526,5.5537,5.5543,5.557,5.5564,5.5575,5.561,5.5649,5.5671,5.5682,5.561,5.5544,5.5626,5.5516,5.5131,5.4785,5.4549,5.4203,5.3857,5.2928,5.2005,5.1736,5.1582,5.1202,5.0784,5.0668,5.5767,5.5699,5.5733,5.5631,5.5564,5.5564,5.5602,5.5689,5.5843,5.6264,5.703,5.8097,5.9349,6.0472,6.1343,6.1587,6.1798,6.1978,6.2128,6.2262,6.2394,6.2524,6.2616,6.2717,6.2743,6.2768,6.2768,6.278,6.2793,6.2793,6.2793,6.2793,6.2818,6.2867,6.2966,6.3051,6.3099,6.323,6.3349,6.3326,6.3206,6.3099,6.2867,6.2267,6.1373,6.0492,5.9915,5.9189,5.8348,5.84,5.8598,5.8885,5.9149,5.9409,5.9583,5.9831,5.9991,6.0174,6.027,6.0299,6.038,6.0408,6.0384,6.0384,6.0384,6.0377,6.0377,6.0377,6.0377,6.0377,6.0377,6.0377,6.0377,6.0377,6.0377,6.0377,6.0377,6.0377,6.0377,6.0384,6.0405,6.0418,6.0108,5.9644,5.9,5.8239,5.7471,5.6656,5.5994,5.5736,5.5599,5.5599,5.5599,5.5638,5.5632,5.5649,5.5687,5.5692,5.5698,5.5703,5.5708,5.5708,5.5708,5.567,5.5401,5.5131,5.4972,5.4703,5.3621,5.2577,5.2697,5.2582,5.1505,5.1125,5.0899,5.5699,5.5699,5.5699,5.5378,5.4871,5.4803,5.4652,5.4427,5.4493,5.5108,5.6236,5.6865,5.8043,5.9959,6.1157,6.1564,6.1506,6.1829,6.2162,6.2394,6.2292,6.2543,6.2717,6.2694,6.2793,6.2793,6.2793,6.2793,6.2793,6.2793,6.2793,6.2793,6.2768,6.2843,6.2929,6.3,6.3007,6.3132,6.3316,6.336,6.3393,6.3146,6.2728,6.2053,6.1241,6.0467,5.9703,5.8866,5.8526,5.8524,5.8828,5.9159,5.9452,5.9719,5.9922,6.0114,6.0292,6.0398,6.0466,6.0453,6.0473,6.0432,6.0425,6.0429,6.0422,6.0377,6.0377,6.0377,6.0377,6.0377,6.0377,6.0377,6.0377,6.0377,6.0377,6.0377,6.0377,6.0377,6.0377,6.0405,6.0432,6.0459,6.0423,5.9933,5.9453,5.8684,5.7902,5.713,5.6549,5.6143,5.5764,5.5687,5.5687,5.5698,5.5692,5.5682,5.5703,5.5703,5.5708,5.5708,5.5708,5.5708,5.5708,5.5708,5.5708,5.5516,5.5401,5.5241,5.4741,5.3928,5.4049,5.3741,5.2433,5.1664,5.1587]}]]